[[{"header":{"parameterUnit":"m.s-1","parameterCategory":1,"la1":30.6,"la2":29.2853,"lo1":-89.7004,"lo2":-87.6739,"dy":0.0162,"dx":0.0183,"nx":112,"ny":82,"refTime":"2024-04-03T18:00:00:Z","depth":0,"parameterNumber":2,"parameterNumberName":"U-component_of_WINDS"},"data":[0.0,0.0,0.0,0.0,0.0,0.0,0.0,0.0,0.0,0.0,0.0,0.0,0.0,0.0,0.0,0.0,0.0,0.0,0.0,0.0,0.0,0.0,0.0,0.0,0.0,0.0,0.0,0.0,0.0,0.0,0.0,0.0,0.0,0.0,0.0,0.0,0.0,0.0,0.0,0.0,0.0,0.0,0.0,0.0,0.0,0.0,0.0,0.0,0.0,0.0,0.0,0.0,0.0,0.0,0.0,0.0,0.0,0.0,0.0,0.0,0.0,0.0,0.0,0.0,0.0,0.0,0.0,0.0,0.0,0.0,0.0,0.0,0.0,0.0,0.0,0.0,0.0,0.0,0.0,0.0,0.0,0.0,0.0,0.0,0.0,0.0,0.0,0.0,0.0,0.0,-0.7434,-0.671,-0.5596,-0.4952,-0.5056,-0.4834,-0.4694,-0.4694,0.0,0.0,0.0,0.0,0.0,0.0,0.0,0.0,0.0,0.0,0.0,0.0,0.0,0.0,0.0,0.0,0.0,0.0,0.0,0.0,0.0,0.0,0.0,0.0,0.0,0.0,0.0,0.0,0.0,0.0,0.0,0.0,0.0,0.0,0.0,0.0,0.0,0.0,0.0,0.0,0.0,0.0,0.0,0.0,0.0,0.0,0.0,0.0,0.0,0.0,0.0,0.0,0.0,0.0,0.0,0.0,0.0,0.0,0.0,0.0,0.0,0.0,0.0,0.0,0.0,0.0,0.0,0.0,0.0,0.0,0.0,0.0,0.0,0.0,0.0,0.0,0.0,0.0,0.0,0.0,0.0,0.0,0.0,0.0,0.0,0.0,0.0,0.0,0.0,0.0,0.0,0.0,0.0,0.0,0.0,0.0,0.0,0.0,0.0,0.0,0.0,0.0,0.0,0.0,-0.7475,-0.6923,-0.6215,-0.5817,-0.5842,-0.5129,-0.4694,-0.4694,0.0,0.0,0.0,0.0,0.0,0.0,0.0,0.0,0.0,0.0,0.0,0.0,0.0,0.0,0.0,0.0,0.0,0.0,0.0,0.0,0.0,0.0,0.0,0.0,0.0,0.0,0.0,0.0,0.0,0.0,0.0,0.0,0.0,0.0,0.0,0.0,0.0,0.0,0.0,0.0,0.0,0.0,0.0,0.0,0.0,0.0,0.0,0.0,0.0,0.0,0.0,0.0,0.0,0.0,0.0,0.0,0.0,0.0,0.0,0.0,0.0,0.0,0.0,0.0,0.0,0.0,0.0,0.0,0.0,0.0,0.0,0.0,0.0,0.0,0.0,0.0,0.0,0.0,0.0,0.0,0.0,0.0,0.0,0.0,0.0,0.0,0.0,0.0,0.0,0.0,0.0,0.0,0.0,0.0,0.0,0.0,0.0,0.0,0.0,0.0,0.0,0.0,0.0,-0.8114,-0.812,-0.7951,-0.6906,-0.6268,-0.6369,-0.547,-0.4931,-0.4931,-0.4714,0.0,0.0,0.0,0.0,0.0,0.0,0.0,0.0,0.0,0.0,0.0,0.0,0.0,0.0,0.0,0.0,0.0,0.0,0.0,0.0,0.0,0.0,0.0,0.0,0.0,0.0,0.0,0.0,0.0,0.0,0.0,0.0,0.0,0.0,0.0,0.0,0.0,0.0,0.0,0.0,0.0,0.0,0.0,0.0,0.0,0.0,0.0,0.0,0.0,0.0,0.0,0.0,0.0,0.0,0.0,0.0,0.0,0.0,0.0,0.0,0.0,0.0,0.0,0.0,0.0,0.0,0.0,0.0,0.0,0.0,0.0,0.0,0.0,0.0,0.0,0.0,0.0,0.0,0.0,0.0,0.0,0.0,0.0,0.0,0.0,0.0,0.0,0.0,0.0,0.0,0.0,0.0,0.0,0.0,0.0,0.0,0.0,0.0,0.0,0.0,0.0,0.0,-0.8509,-0.8615,-0.8558,-0.7486,-0.6757,-0.6702,-0.5917,-0.5318,-0.5096,-0.4891,0.0,0.0,0.0,0.0,0.0,0.0,0.0,0.0,0.0,0.0,0.0,0.0,0.0,0.0,0.0,0.0,0.0,0.0,0.0,0.0,0.0,0.0,0.0,0.0,0.0,0.0,0.0,0.0,0.0,0.0,0.0,0.0,0.0,0.0,0.0,0.0,0.0,0.0,0.0,0.0,0.0,0.0,0.0,0.0,0.0,0.0,0.0,0.0,0.0,0.0,0.0,0.0,0.0,0.0,0.0,0.0,0.0,0.0,0.0,0.0,0.0,0.0,0.0,0.0,0.0,0.0,0.0,0.0,0.0,0.0,0.0,0.0,0.0,0.0,0.0,0.0,0.0,0.0,0.0,0.0,0.0,0.0,0.0,0.0,0.0,0.0,0.0,0.0,0.0,0.0,0.0,0.0,0.0,0.0,0.0,0.0,0.0,0.0,0.0,0.0,0.0,0.0,-0.8711,-0.8527,-0.7861,-0.7837,-0.7558,-0.6785,-0.6461,-0.5974,-0.516,-0.4955,0.0,0.0,0.0,0.0,0.0,0.0,0.0,0.0,0.0,0.0,0.0,0.0,0.0,0.0,0.0,0.0,0.0,0.0,0.0,0.0,0.0,0.0,0.0,0.0,0.0,0.0,0.0,0.0,0.0,0.0,0.0,0.0,0.0,0.0,0.0,0.0,0.0,0.0,0.0,0.0,0.0,0.0,0.0,0.0,0.0,0.0,0.0,0.0,0.0,0.0,0.0,0.0,0.0,0.0,0.0,0.0,0.0,0.0,0.0,0.0,0.0,0.0,0.0,0.0,0.0,0.0,0.0,0.0,0.0,0.0,0.0,0.0,0.0,0.0,0.0,0.0,0.0,0.0,0.0,0.0,0.0,0.0,0.0,0.0,0.0,0.0,0.0,0.0,0.0,0.0,0.0,0.0,0.0,0.0,0.0,0.0,0.0,0.0,0.0,0.0,0.0,0.0,-0.9765,-0.9806,0.0,-0.907,-0.8452,-0.7567,-0.6951,-0.6205,-0.5343,0.0,0.0,0.0,0.0,0.0,0.0,0.0,0.0,0.0,0.0,0.0,0.0,0.0,0.0,0.0,0.0,0.0,0.0,0.0,0.0,0.0,0.0,0.0,0.0,0.0,0.0,0.0,0.0,0.0,0.0,0.0,0.0,0.0,0.0,0.0,0.0,0.0,0.0,0.0,0.0,0.0,0.0,0.0,0.0,0.0,0.0,0.0,0.0,0.0,0.0,0.0,0.0,0.0,0.0,0.0,0.0,0.0,0.0,0.0,0.0,0.0,0.0,0.0,0.0,0.0,0.0,0.0,0.0,0.0,0.0,0.0,0.0,0.0,0.0,0.0,0.0,0.0,0.0,0.0,0.0,0.0,0.0,0.0,0.0,0.0,0.0,0.0,0.0,0.0,0.0,0.0,0.0,0.0,0.0,0.0,0.0,0.0,0.0,0.0,0.0,0.0,0.0,-1.0247,-1.0466,-1.0586,0.0,-1.0079,-0.9364,-0.8484,-0.76,-0.6752,-0.5881,0.0,0.0,0.0,0.0,0.0,0.0,0.0,0.0,0.0,0.0,0.0,0.0,0.0,0.0,0.0,0.0,0.0,0.0,0.0,0.0,0.0,0.0,0.0,0.0,0.0,0.0,0.0,0.0,0.0,0.0,0.0,0.0,0.0,0.0,0.0,0.0,0.0,0.0,0.0,0.0,0.0,0.0,0.0,0.0,0.0,0.0,0.0,0.0,0.0,0.0,0.0,0.0,0.0,0.0,0.0,0.0,0.0,0.0,0.0,0.0,0.0,0.0,0.0,0.0,0.0,0.0,0.0,0.0,0.0,0.0,0.0,0.0,0.0,0.0,0.0,0.0,0.0,0.0,0.0,0.0,0.0,0.0,0.0,0.0,0.0,0.0,0.0,0.0,0.0,0.0,0.0,0.0,0.0,0.0,0.0,0.0,0.0,0.0,0.0,0.0,0.0,0.0,-1.0559,-1.0586,-1.0586,-1.0586,-1.0586,-1.0238,-0.9364,-0.8517,-0.7632,0.0,0.0,0.0,0.0,0.0,0.0,0.0,0.0,0.0,0.0,0.0,0.0,0.0,0.0,0.0,0.0,0.0,0.0,0.0,0.0,0.0,0.0,0.0,0.0,0.0,0.0,0.0,0.0,0.0,0.0,0.0,0.0,0.0,0.0,0.0,0.0,0.0,0.0,0.0,0.0,0.0,0.0,0.0,0.0,0.0,0.0,0.0,0.0,0.0,0.0,0.0,0.0,0.0,0.0,0.0,0.0,0.0,0.0,0.0,0.0,0.0,0.0,0.0,0.0,0.0,0.0,0.0,0.0,0.0,0.0,0.0,0.0,0.0,0.0,0.0,0.0,0.0,0.0,0.0,0.0,0.0,0.0,0.0,0.0,0.0,0.0,0.0,0.0,0.0,0.0,0.0,0.0,0.0,0.0,0.0,0.0,0.0,0.0,0.0,0.0,0.0,0.0,0.0,-1.0586,-1.0586,-1.0586,-1.0586,-1.0586,-1.0238,-0.9364,-0.9075,-0.8291,-0.6785,0.0,0.0,0.0,0.0,0.0,0.0,0.0,0.0,0.0,0.0,0.0,0.0,0.0,0.0,0.0,0.0,0.0,0.0,0.0,0.0,0.0,0.0,0.0,0.0,0.0,0.0,0.0,0.0,0.0,0.0,0.0,0.0,0.0,0.0,0.0,0.0,0.0,0.0,0.0,0.0,0.0,0.0,0.0,0.0,0.0,0.0,0.0,0.0,0.0,0.0,0.0,0.0,0.0,0.0,0.0,0.0,0.0,0.0,0.0,0.0,0.0,0.0,0.0,0.0,0.0,0.0,0.0,0.0,0.0,0.0,0.0,0.0,0.0,0.0,0.0,0.0,0.0,0.0,0.0,0.0,0.0,0.0,0.0,0.0,0.0,0.0,0.0,0.0,0.0,0.0,0.0,0.0,0.0,0.0,0.0,0.0,0.0,0.0,0.0,0.0,0.0,0.0,-1.0586,-1.0586,-1.0586,-1.0586,-1.0586,-1.0396,-0.9856,-0.9492,-0.8839,-0.7795,0.0,0.0,0.0,0.0,0.0,0.0,0.0,0.0,0.0,0.0,0.0,0.0,0.0,0.0,0.0,0.0,0.0,0.0,0.0,0.0,0.0,0.0,0.0,0.0,0.0,0.0,0.0,0.0,0.0,0.0,0.0,0.0,0.0,0.0,0.0,0.0,0.0,0.0,0.0,0.0,0.0,0.0,0.0,0.0,0.0,0.0,0.0,0.0,0.0,0.0,0.0,0.0,0.0,0.0,0.0,0.0,0.0,0.0,0.0,0.0,0.0,0.0,0.0,0.0,0.0,0.0,0.0,0.0,0.0,0.0,0.0,0.0,0.0,0.0,0.0,0.0,0.0,0.0,0.0,0.0,0.0,0.0,0.0,0.0,0.0,0.0,0.0,0.0,0.0,0.0,0.0,0.0,0.0,0.0,0.0,0.0,0.0,0.0,0.0,0.0,0.0,0.0,-1.0586,-1.0586,-1.06,-1.0626,-1.06,-1.06,-1.0626,-0.99,-0.9396,-0.93,0.0,0.0,0.0,0.0,0.0,0.0,0.0,0.0,0.0,0.0,0.0,0.0,0.0,0.0,0.0,0.0,0.0,0.0,0.0,0.0,0.0,0.0,0.0,0.0,0.0,0.0,0.0,0.0,0.0,0.0,0.0,0.0,0.0,0.0,0.0,0.0,0.0,0.0,0.0,0.0,0.0,0.0,0.0,0.0,0.0,0.0,0.0,0.0,0.0,0.0,0.0,0.0,0.0,0.0,0.0,0.0,0.0,0.0,0.0,0.0,-1.6718,0.0,0.0,0.0,0.0,0.0,0.0,0.0,0.0,0.0,0.0,0.0,0.0,0.0,0.0,0.0,0.0,0.0,0.0,0.0,0.0,0.0,0.0,0.0,0.0,0.0,0.0,0.0,0.0,0.0,0.0,0.0,0.0,0.0,0.0,0.0,0.0,0.0,0.0,0.0,0.0,0.0,-1.0586,-1.0586,-1.068,-1.0875,-1.0734,-1.068,-1.0908,-1.056,-1.0047,-0.9332,-0.8947,0.0,0.0,0.0,0.0,0.0,0.0,0.0,0.0,0.0,0.0,0.0,0.0,0.0,0.0,0.0,0.0,0.0,0.0,0.0,0.0,0.0,0.0,0.0,0.0,0.0,0.0,0.0,0.0,0.0,0.0,0.0,0.0,0.0,0.0,0.0,0.0,0.0,0.0,0.0,0.0,0.0,0.0,0.0,0.0,0.0,0.0,0.0,0.0,0.0,0.0,0.0,0.0,0.0,0.0,0.0,0.0,0.0,0.0,0.0,0.0,-1.7142,0.0,0.0,0.0,0.0,0.0,0.0,0.0,0.0,0.0,0.0,0.0,0.0,0.0,0.0,0.0,0.0,0.0,0.0,0.0,0.0,0.0,0.0,0.0,0.0,0.0,0.0,0.0,0.0,0.0,0.0,0.0,0.0,0.0,0.0,0.0,0.0,0.0,0.0,0.0,0.0,-1.1351,-1.1135,-1.1035,-1.1182,-1.1062,-1.1035,-1.1182,-1.1062,-1.0751,-1.0153,-0.9717,0.0,0.0,0.0,0.0,0.0,0.0,0.0,0.0,0.0,0.0,0.0,0.0,0.0,0.0,0.0,0.0,0.0,0.0,0.0,0.0,0.0,0.0,0.0,0.0,0.0,0.0,0.0,0.0,0.0,0.0,0.0,0.0,0.0,0.0,0.0,0.0,0.0,0.0,0.0,0.0,0.0,0.0,0.0,0.0,0.0,0.0,0.0,0.0,0.0,0.0,0.0,0.0,0.0,-2.192,-2.197,-2.2071,-2.2071,-2.202,-2.1838,-2.0174,-1.8815,-1.7779,-1.7779,0.0,0.0,0.0,0.0,0.0,0.0,0.0,0.0,0.0,0.0,0.0,0.0,0.0,0.0,0.0,0.0,0.0,0.0,0.0,0.0,0.0,0.0,0.0,0.0,-1.5949,-1.5761,-1.5424,0.0,0.0,0.0,0.0,0.0,0.0,0.0,0.0,0.0,0.0,0.0,-1.256,-1.2035,-1.1676,-1.173,-1.1518,-1.1415,-1.1469,-1.1415,-1.1329,-1.1089,-1.0397,-0.9808,0.0,0.0,0.0,0.0,0.0,0.0,0.0,0.0,0.0,0.0,0.0,0.0,0.0,0.0,0.0,0.0,0.0,0.0,0.0,0.0,0.0,0.0,0.0,0.0,0.0,0.0,0.0,0.0,0.0,0.0,0.0,0.0,-2.3095,-2.3095,0.0,0.0,0.0,0.0,0.0,0.0,0.0,0.0,0.0,0.0,0.0,0.0,0.0,-2.312,-2.3678,-2.3145,-2.3145,-2.3678,-2.3678,-2.3929,-2.4349,-2.4349,-2.413,-2.3678,-2.3393,0.0,-2.0893,-2.0893,0.0,0.0,0.0,0.0,0.0,0.0,0.0,0.0,0.0,0.0,0.0,0.0,0.0,0.0,0.0,0.0,0.0,0.0,0.0,0.0,0.0,0.0,-1.8725,-1.8762,-1.8218,-1.7644,0.0,-1.6375,-1.5323,-1.5245,-1.5016,0.0,0.0,0.0,0.0,0.0,0.0,0.0,-1.3999,-1.3238,-1.2784,-1.3031,-1.2054,-1.153,-1.1819,-1.157,-1.1375,-1.1335,-1.1233,-1.0729,-0.9687,-0.9431,0.0,0.0,0.0,0.0,0.0,0.0,0.0,0.0,0.0,0.0,0.0,0.0,0.0,0.0,0.0,0.0,0.0,0.0,0.0,0.0,0.0,0.0,0.0,0.0,0.0,0.0,0.0,0.0,0.0,-2.4876,-2.5066,-2.5415,-2.5175,-2.496,0.0,0.0,0.0,0.0,0.0,0.0,0.0,0.0,0.0,-2.5871,-2.5605,-2.5765,-2.6413,-2.6146,-2.6363,-2.6979,-2.6979,-2.7113,-2.7322,-2.7322,-2.6903,-2.6187,-2.5875,-2.4992,-2.3703,-2.2472,-2.1945,-2.1892,0.0,0.0,0.0,0.0,-1.9607,-1.9274,-1.9274,-1.9274,-1.9274,-1.9274,0.0,0.0,0.0,0.0,0.0,0.0,0.0,0.0,0.0,0.0,-1.9313,-1.9313,-1.8624,-1.7985,-1.7985,-1.7022,-1.6122,0.0,-1.603,-1.5895,-1.5895,0.0,0.0,0.0,0.0,-1.5214,-1.5214,-1.4595,-1.4239,-1.4363,-1.3359,-1.2742,-1.2885,-1.2271,-1.185,-1.169,-1.1677,-1.137,-1.0662,-1.0174,-0.9434,0.0,0.0,0.0,0.0,0.0,0.0,0.0,0.0,0.0,0.0,0.0,0.0,0.0,0.0,0.0,0.0,0.0,0.0,0.0,0.0,0.0,0.0,0.0,0.0,0.0,0.0,0.0,0.0,-2.6528,-2.6798,-2.7244,-2.6882,-2.6632,0.0,0.0,0.0,0.0,0.0,0.0,-2.7817,-2.7807,-2.7885,-2.7994,-2.7994,-2.833,-2.8972,-2.8972,-2.9254,-2.9728,-2.9728,-2.9728,-2.9728,-2.9728,-2.9375,-2.8663,-2.8266,-2.7525,-2.6408,-2.3946,-2.292,-2.2924,-2.2498,-2.2246,-2.2121,-2.2121,-2.2046,-2.192,-2.192,-2.192,-2.192,-2.192,-2.192,-2.192,-2.192,0.0,0.0,0.0,0.0,-2.1217,-2.0798,-2.0724,-2.0724,-2.0724,-2.0028,-1.9344,-1.9061,-1.8349,-1.7538,0.0,-1.6785,-1.6863,-1.6863,0.0,0.0,0.0,0.0,-1.6428,-1.6428,-1.593,-1.5544,-1.5544,-1.4458,-1.3702,-1.3702,-1.2842,-1.2211,-1.2033,-1.202,-1.185,-1.1557,-1.0906,-1.0319,-0.9817,0.0,0.0,0.0,0.0,0.0,0.0,0.0,0.0,0.0,0.0,0.0,0.0,0.0,0.0,0.0,0.0,0.0,0.0,0.0,0.0,0.0,0.0,0.0,0.0,0.0,0.0,0.0,0.0,0.0,-2.7299,-2.7272,0.0,0.0,0.0,0.0,-2.8281,-2.8944,-2.929,-2.929,-2.9235,-2.9422,-2.9942,-2.9942,-3.0248,-3.086,-3.086,-3.0887,-3.0915,-3.0915,-3.0915,-3.0915,-3.0915,-3.0882,-3.0849,-3.0821,-3.0222,-2.9057,-2.595,-2.465,-2.465,-2.4625,-2.433,-2.3879,-2.3879,-2.3496,-2.302,-2.302,-2.302,-2.302,-2.302,-2.302,-2.302,-2.302,-2.302,0.0,0.0,-2.3785,-2.3917,-2.4379,-2.4528,-2.4528,-2.4528,-2.3863,-2.2958,-2.1992,-2.1155,-1.9837,0.0,-1.707,-1.7344,-1.7344,0.0,-1.7949,-1.7949,-1.7901,-1.7901,-1.7901,-1.7095,-1.6523,-1.6523,-1.4835,-1.3702,-1.3702,-1.2842,-1.2291,-1.2278,-1.2278,-1.2144,-1.1899,-1.185,-1.1282,-1.0089,-1.0042,0.0,0.0,0.0,0.0,0.0,0.0,0.0,0.0,0.0,0.0,0.0,0.0,0.0,0.0,0.0,0.0,0.0,0.0,0.0,0.0,0.0,0.0,0.0,0.0,0.0,0.0,0.0,0.0,-3.0513,-3.028,0.0,-3.0601,-3.1279,-3.1516,-3.1072,-3.1664,-3.2048,-3.2048,-3.2012,-3.2094,-3.2265,-3.2265,-3.2587,-3.3261,-3.3261,-3.3495,-3.3904,-3.3904,-3.3904,-3.3904,-3.3904,-3.3545,-3.2919,-3.2587,-3.1853,-3.0883,-2.9423,-2.7859,-2.6364,-2.6013,-2.5536,-2.5034,-2.5034,-2.4682,-2.4199,-2.4199,-2.4199,-2.4199,-2.4199,-2.4199,-2.4199,-2.4199,-2.4199,-2.4224,-2.4449,-2.4531,-2.4582,-2.475,-2.48,-2.48,-2.48,-2.4132,-2.3413,-2.3055,-2.2287,-2.1401,-2.042,-1.9356,-1.8613,-1.8613,-1.873,-1.8828,-1.8828,-1.8828,-1.8828,-1.8828,-1.8524,-1.8345,-1.8345,-1.6902,-1.5952,-1.5952,-1.4258,-1.3208,-1.3208,-1.2622,-1.2251,-1.2144,-1.2144,-1.1867,-1.1246,-1.1246,-1.0686,0.0,0.0,0.0,0.0,0.0,0.0,0.0,0.0,0.0,0.0,0.0,0.0,0.0,0.0,0.0,0.0,0.0,0.0,0.0,0.0,0.0,0.0,0.0,0.0,0.0,0.0,-3.1599,-3.2706,-3.2437,-3.2348,-3.2796,-3.3245,-3.3305,-3.2886,-3.3455,-3.3814,-3.3814,-3.4053,-3.4173,-3.4173,-3.4173,-3.4382,-3.4831,-3.4863,-3.504,-3.5519,-3.5519,-3.5519,-3.5519,-3.5519,-3.5133,-3.448,-3.4138,-3.3408,-3.2505,-3.2151,-3.0877,-2.9012,-2.8291,-2.7777,-2.7404,-2.7035,-2.6696,-2.6322,-2.6013,-2.5904,-2.5904,-2.5904,-2.5904,-2.5904,-2.5904,-2.5904,-2.5904,-2.5904,-2.5904,-2.5904,-2.5904,-2.5904,-2.5904,-2.5904,-2.5447,-2.4943,-2.4632,-2.4085,-2.3568,-2.327,-2.1632,-2.0196,-1.9837,-1.9821,-1.9677,-1.937,-1.9297,-1.9297,-1.9297,-1.9297,-1.9297,-1.9297,-1.8172,-1.7424,-1.7424,-1.5703,-1.4558,-1.4413,-1.3535,-1.2954,-1.2783,-1.2489,-1.2211,-1.206,-1.1953,-1.1523,-1.0686,0.0,0.0,0.0,0.0,0.0,0.0,0.0,0.0,0.0,0.0,0.0,0.0,0.0,0.0,0.0,0.0,0.0,0.0,0.0,0.0,0.0,0.0,0.0,-3.2527,-3.2527,-3.2796,-3.3455,-3.3514,-3.3544,-3.3544,-3.3544,-3.3544,-3.3544,-3.4174,-3.4533,-3.4533,-3.513,-3.5519,-3.5519,-3.5519,-3.5519,-3.5519,-3.5519,-3.5519,-3.5519,-3.5519,-3.5519,-3.5519,-3.5519,-3.5519,-3.5519,-3.5519,-3.4938,-3.4075,-3.4075,-3.3533,-3.2589,-3.1493,-3.1054,-3.0893,-2.9931,-2.9548,-2.9346,-2.8435,-2.8097,-2.8097,-2.8097,-2.8097,-2.8097,-2.8097,-2.8097,-2.8097,-2.8097,-2.8097,-2.8097,-2.8097,-2.8097,-2.8097,-2.8097,-2.8097,-2.7815,-2.6876,-2.6627,-2.6363,-2.547,-2.3713,-2.2033,-2.1041,-2.0828,-2.0472,-1.9499,-1.9336,0.0,-1.9336,-1.9336,-1.9336,-1.9336,-1.8526,-1.7952,-1.7952,-1.7038,-1.6267,-1.588,-1.4977,-1.426,-1.3783,-1.2856,-1.2342,-1.2305,-1.2024,-1.1913,-1.1913,0.0,0.0,0.0,0.0,0.0,0.0,0.0,0.0,0.0,0.0,0.0,0.0,0.0,0.0,0.0,0.0,0.0,0.0,0.0,0.0,0.0,-3.3215,-3.3215,-3.3215,-3.3215,-3.3455,-3.4174,-3.4234,-3.4412,-3.4891,-3.4951,-3.4951,-3.4951,-3.513,-3.522,-3.522,-3.54,-3.5519,-3.5519,-3.5519,-3.5519,-3.5519,-3.5519,-3.5519,-3.5519,-3.5519,-3.5519,-3.5519,-3.5519,-3.5519,-3.5519,-3.5519,-3.5359,-3.51,-3.51,-3.4935,-3.4514,-3.2854,-3.1917,-3.1563,-3.1289,-3.0462,-2.9451,-2.9196,-2.8687,-2.8097,-2.8097,-2.8097,-2.8097,-2.8097,-2.8097,-2.8097,-2.8097,-2.8097,-2.8097,-2.8097,-2.8097,-2.8097,-2.8097,-2.8097,-2.8024,-2.7742,-2.7705,-2.7631,-2.7335,-2.6846,-2.5599,-2.2794,-2.1632,-2.0876,-2.035,-2.0253,0.0,-2.0253,-2.0253,-2.0253,-2.0253,-1.9696,-1.9353,-1.9353,-1.8191,-1.7452,-1.7308,-1.6396,-1.5767,-1.5669,-1.4478,-1.3326,-1.2305,-1.2225,-1.2184,0.0,0.0,0.0,0.0,0.0,0.0,0.0,0.0,0.0,0.0,0.0,0.0,0.0,0.0,0.0,0.0,0.0,0.0,0.0,0.0,0.0,0.0,-3.3903,-3.3993,-3.4292,-3.4083,-3.4174,-3.4831,-3.516,-3.5489,-3.5878,-3.6148,-3.6297,-3.6297,-3.6297,-3.6297,-3.6297,-3.6297,-3.6297,-3.6297,-3.6297,-3.6297,-3.6297,-3.6297,-3.6297,-3.6297,-3.6297,-3.6297,-3.6297,-3.6297,-3.6178,-3.5908,-3.5908,-3.5759,-3.5519,-3.5519,-3.5519,0.0,0.0,0.0,0.0,0.0,-3.1917,-3.0734,-3.0343,-2.9865,-2.9306,-2.8949,-2.8825,-2.8825,-2.8825,-2.8825,-2.8825,-2.8825,-2.8825,-2.8825,-2.8825,-2.8825,-2.8825,-2.8825,-2.8825,-2.8825,-2.8825,-2.8825,-2.8825,-2.8825,-2.8437,0.0,-2.5192,-2.3702,-2.2408,-2.1312,-2.0957,-2.084,-2.084,-2.0684,-2.0605,-2.0605,-2.037,-2.0195,-2.0195,-1.9488,0.0,0.0,0.0,-1.7004,-1.6417,-1.5654,0.0,0.0,0.0,-1.2963,-1.2529,0.0,0.0,0.0,-1.1797,-1.1797,0.0,0.0,0.0,0.0,0.0,0.0,0.0,0.0,0.0,0.0,0.0,0.0,0.0,0.0,0.0,0.0,-3.4683,-3.4921,-3.5519,-3.516,-3.5011,-3.5549,-3.6178,-3.6596,-3.6596,-3.7075,-3.7404,-3.7404,-3.7404,-3.7404,-3.7404,0.0,0.0,0.0,0.0,-3.7404,-3.7404,-3.7404,-3.7404,-3.7404,-3.7404,-3.7404,-3.7404,-3.7404,-3.7105,-3.6596,-3.6596,-3.6267,-3.5729,-3.5729,-3.5669,-3.5609,-3.5519,-3.5519,-3.5392,-3.4509,-3.3567,-3.2629,-3.1829,0.0,0.0,-3.0254,-2.9895,-2.9804,-2.9804,-2.9804,-2.9804,-2.9804,-2.9804,-2.9804,-2.9804,-2.9804,-2.9804,-2.9804,-2.9804,-2.9804,-2.9804,-2.9804,-2.9804,-2.9804,-2.8988,-2.8163,-2.7645,-2.6076,-2.4284,-2.2369,-2.1624,-2.1268,-2.1268,-2.0957,-2.0742,-2.0683,0.0,0.0,-2.0605,-2.0605,-2.0429,-2.0019,-1.9202,-1.8121,-1.6674,-1.6636,-1.6109,-1.498,-1.4729,-1.4178,-1.3206,-1.2893,-1.2681,-1.2584,-1.2405,-1.2305,0.0,0.0,0.0,0.0,0.0,0.0,0.0,0.0,0.0,0.0,0.0,0.0,0.0,0.0,0.0,-3.519,-3.5759,-3.6148,-3.6267,-3.6596,-3.6716,-3.6327,-3.6836,-3.7225,-3.7225,-3.7345,-3.7404,-3.7404,-3.7404,-3.7404,-3.7404,-3.7404,-3.7404,-3.7404,-3.7404,-3.7404,-3.7404,-3.7404,-3.7404,-3.7404,0.0,0.0,-3.7404,-3.7404,-3.7345,-3.7225,-3.7225,-3.7165,-3.7045,-3.7045,-3.6746,-3.6237,-3.5699,-3.5519,-3.5457,-3.5294,-3.4576,-3.3705,-3.3533,-3.2451,-3.1167,-3.097,-3.0419,-2.9804,-2.9804,-2.9804,0.0,-2.9804,-2.9804,-2.9804,-2.9804,-2.9804,-2.9804,-2.9804,-2.9804,-2.9804,-2.9804,-2.9804,-2.9804,-2.9804,-2.9624,-2.916,-2.8163,-2.5981,-2.4087,-2.3325,-2.2392,-2.1758,-2.1758,-2.168,-2.1504,-2.1093,-2.1073,-2.0957,-2.0644,-2.0605,-2.0566,-2.0488,-2.0275,-1.9562,-1.8139,-1.8082,-1.7464,-1.6114,-1.6048,-1.5902,-1.5697,-1.5632,-1.5162,-1.4285,-1.293,-1.2305,0.0,0.0,0.0,0.0,0.0,0.0,0.0,0.0,0.0,0.0,0.0,-3.4592,-3.4921,0.0,-3.522,-3.5878,-3.6267,-3.6596,-3.6896,-3.7494,-3.7674,-3.7015,-3.7494,-3.7913,-3.7913,-3.8212,-3.8422,-3.8422,-3.8422,-3.8422,-3.8422,-3.8422,-3.8422,-3.8422,-3.8422,-3.8422,-3.8422,-3.8422,-3.8422,-3.8422,-3.8422,-3.8422,-3.8422,-3.8422,-3.8242,-3.7913,-3.7913,-3.7704,-3.7404,-3.7404,-3.7225,-3.6926,-3.6596,-3.6058,-3.5519,-3.5519,-3.5166,-3.4677,-3.4177,-3.3394,-3.2451,-3.1499,-3.0857,-3.0419,-2.9934,-2.9804,-2.9804,-2.9804,-2.9804,-2.9804,-2.9804,-2.9804,-2.9804,-2.9804,-2.9804,-2.9804,-2.9804,-2.9804,-2.9804,-2.9804,-2.9804,-2.9624,-2.9067,-2.7392,-2.5869,-2.512,-2.3886,-2.3021,-2.3021,-2.2365,-2.1797,-2.1582,-2.1327,-2.1112,-2.0918,-2.0742,-2.0605,-2.0605,-2.0605,-2.0275,-1.9581,-1.9562,-1.8948,-1.7726,-1.7534,-1.72,-1.6646,-1.6463,-1.6114,-1.558,-1.4743,-1.378,0.0,0.0,0.0,0.0,0.0,0.0,0.0,0.0,-3.4863,-3.54,-3.5519,-3.5549,-3.5669,-3.5699,-3.5908,-3.6567,-3.6776,-3.7015,-3.7524,-3.8182,-3.8392,-3.7853,-3.8272,-3.8571,-3.8571,-3.908,-3.9373,-3.9373,-3.9373,-3.9373,-3.9373,-3.9373,-3.9373,-3.9373,-3.9373,-3.9373,-3.9373,-3.9373,-3.9373,-3.9373,-3.9373,-3.9373,-3.9373,-3.9373,-3.911,-3.8571,-3.8571,-3.8302,-3.7793,-3.7644,-3.7584,-3.7584,-3.7464,-3.6776,-3.5848,-3.5729,-3.5699,-3.5571,-3.4635,-3.4177,-3.3705,-3.2019,-3.1352,-3.1007,-3.0062,-2.9804,-2.9804,-2.9804,-2.9804,-2.9804,-2.9804,-2.9804,-2.9804,-2.9804,-2.9804,-2.9804,-2.9804,-2.9804,-2.9804,-2.9804,-2.9804,-2.9804,-2.9804,-2.9028,-2.8068,-2.6953,-2.5387,-2.4324,-2.4324,-2.3059,-2.209,-2.2012,-2.1699,-2.1405,-2.1327,-2.0957,-2.0742,-2.0742,-2.0644,-2.0605,-2.0605,-2.0605,-2.0196,-1.9313,-1.904,-1.847,-1.7618,-1.7346,-1.7132,-1.6903,-1.6903,-1.58,-3.528,-3.528,-3.528,-3.528,-3.528,-3.531,0.0,0.0,-3.54,-3.5489,-3.5519,-3.5699,-3.6267,-3.6387,-3.6596,-3.7195,-3.7793,-3.8212,-3.8272,-3.8871,-3.9254,-3.92,-3.926,-3.932,-3.932,-3.9379,-3.9373,-3.9373,-3.9373,-3.9373,-3.9373,-3.9373,-3.9373,-3.9373,-3.9373,-3.9373,-3.9373,-3.9373,-3.9373,-3.9373,-3.9373,-3.9373,-3.9373,-3.9373,-3.9379,-3.932,-3.932,-3.926,-3.914,-3.8542,-3.8272,-3.8212,-3.7644,-3.7315,-3.7135,-3.6596,-3.6387,-3.6297,-3.5568,-3.4773,-3.3842,-3.277,-3.1901,-3.1007,-3.0062,-2.9804,-2.9804,-2.9804,-2.9804,-2.9804,-2.9804,-2.9804,-2.9804,-2.9804,-2.9804,-2.9804,-2.9804,-2.9804,-2.9804,-2.9804,-2.9804,-2.9804,-2.9804,-2.9702,-2.9248,-2.8108,-2.6105,-2.4703,-2.4703,-2.368,-2.2808,-2.248,-2.2402,-2.2227,-2.1836,-2.1406,-2.1112,-2.1112,-2.0781,-2.0605,-2.0605,-2.0605,-2.0527,-2.0411,-2.0391,-2.0333,-2.0197,-2.0159,-1.9654,-1.8694,-1.8694,-1.7757,-3.5519,-3.5519,-3.5519,-3.5519,-3.5519,-3.5519,-3.5519,-3.5519,-3.5519,-3.5519,-3.5818,-3.6148,-3.6447,-3.6776,-3.7225,0.0,-3.8212,-3.8542,-3.8931,-3.923,-3.9373,-3.9373,-3.9373,-3.9373,-3.9373,-3.9373,-3.9373,-3.9373,-3.9373,-3.9373,-3.9373,-3.9373,-3.9373,-3.9373,-3.9373,-3.9373,-3.9373,-3.9373,-3.9373,-3.9373,-3.9373,-3.9373,-3.9373,-3.9373,-3.9373,-3.9373,-3.9373,-3.9373,-3.9409,-3.911,-3.899,-3.896,-3.8691,-3.8571,-3.8452,-3.7404,-3.7015,-3.6985,-3.6716,-3.6093,-3.5297,-3.4317,-3.3112,-3.1829,-3.0895,-3.0254,-2.9804,-2.9804,-2.9804,-2.9804,-2.9804,-2.9804,-2.9804,-2.9804,-2.9804,-2.9804,-2.9804,-2.9804,-2.9804,-2.9804,-2.9804,-2.9804,-2.9804,-2.9804,-2.9624,-2.9145,-2.7723,-2.6479,-2.588,-2.4808,-2.3682,-2.2601,-2.2519,-2.2344,-2.1914,-2.1719,-2.1621,-2.1621,-2.1445,-2.123,-2.0977,-2.0957,-2.084,-2.0605,-2.0605,-2.0605,-2.0605,-2.0605,-2.0372,-1.9923,-1.9923,-1.952,-3.5519,-3.5519,-3.5519,-3.5519,-3.5519,-3.5519,-3.5519,-3.5519,-3.5519,-3.5519,-3.6028,-3.6537,-3.6716,-3.7255,-3.7913,-3.8571,-3.8691,-3.8841,-3.9313,-3.9373,-3.9373,-3.9373,-3.9373,-3.9373,-3.9373,-3.9373,-3.9373,-3.9373,-3.9373,-3.9373,-3.9373,-3.9373,-3.9373,-3.9373,-3.9373,-3.9373,-3.9373,-3.9373,-3.9373,-3.9373,-3.9373,-3.9373,-3.9373,-3.9373,-3.9373,-3.9373,-3.9373,-3.9373,-3.9373,-3.9373,-3.9373,-3.9373,-3.9373,-3.9373,-3.9254,-3.8332,-3.7823,-3.7644,-3.7464,-3.7105,-3.6548,-3.5257,-3.3951,-3.2626,-3.1431,-3.0471,-2.9804,-2.9804,-2.9804,-2.9804,-2.9804,-2.9804,-2.9804,-2.9804,-2.9804,-2.9804,-2.9804,-2.9804,-2.9804,-2.9804,-2.9804,-2.9804,-2.9804,-2.9804,-2.9804,-2.9804,-2.9106,-2.8187,-2.7075,-2.5714,-2.4258,-2.2843,-2.2676,-2.2559,-2.2266,-2.2129,-2.2051,-2.2051,-2.1953,-2.1738,-2.1385,-2.1366,-2.1269,-2.0977,-2.084,-2.0742,-2.0742,-2.0664,-2.0605,-2.0605,-2.0605,-2.0605,-3.5519,-3.5519,-3.5519,-3.5519,-3.5519,-3.5519,-3.5519,-3.5519,-3.5519,-3.5519,-3.6028,-3.6656,-3.7255,-3.7913,-3.8571,-3.926,-3.9379,-3.9409,-3.9373,-3.9373,-3.9373,-3.9373,-3.9373,-3.9373,0.0,-3.9373,-3.9373,-3.9373,-3.9373,-3.9373,-3.9373,-3.9373,-3.9373,-3.9373,-3.9373,-3.9373,-3.9373,-3.9373,-3.9373,-3.9373,-3.9373,-3.9373,-3.9373,-3.9373,-3.9373,-3.9373,-3.9373,-3.9373,-3.9373,-3.9373,-3.9373,-3.9373,-3.9373,-3.9373,-3.9373,-3.9343,-3.8931,-3.8272,-3.7644,-3.7404,-3.7035,-3.5057,-3.4048,-3.3184,-3.1202,-3.0245,-2.9804,-2.9804,-2.9804,-2.9804,-2.9804,-2.9804,-2.9804,-2.9804,-2.9804,-2.9804,-2.9804,-2.9804,-2.9804,-2.9804,-2.9804,-2.9804,-2.9804,-2.9804,-2.9804,-2.9804,-2.974,-2.9326,-2.8227,-2.6149,-2.4382,-2.3193,-2.3081,-2.3081,-2.3062,-2.2734,-2.25,-2.25,-2.2109,-2.1875,-2.1875,-2.1875,-2.1855,-2.1855,-2.1385,-2.1171,-2.1171,-2.0781,-2.0605,-2.0605,-2.0605,-2.0605,-3.5519,-3.5519,-3.5519,-3.5519,-3.5519,-3.5519,-3.5519,-3.5519,-3.5519,-3.5519,-3.6357,-3.7165,-3.7375,-3.8332,-3.914,-3.9343,-3.9373,-3.9373,-3.9373,-3.9373,-3.9373,-3.9373,-3.9373,0.0,0.0,0.0,0.0,-3.9373,-3.9373,-3.9373,-3.9373,-3.9373,-3.9373,-3.9373,-3.9373,-3.9373,-3.9373,-3.9373,-3.9373,-3.9373,-3.9373,-3.9373,-3.9373,-3.9373,-3.9373,-3.9373,-3.9373,-3.9373,-3.9373,-3.9373,-3.9373,-3.9373,-3.9373,-3.9373,-3.9373,-3.9373,-3.926,-3.905,-3.8811,-3.8452,-3.7823,-3.6445,-3.5143,-3.3888,-3.2463,-3.1249,-3.0331,-3.0331,-3.008,-2.9804,-2.9804,-2.9804,-2.9804,-2.9804,-2.9804,-2.9804,-2.9804,-2.9804,-2.9804,-2.9804,-2.9804,-2.9804,-2.9804,-2.9804,-2.9804,-2.9804,-2.9145,-2.8505,-2.8124,-2.6149,-2.466,-2.4253,-2.3541,-2.3101,-2.3101,-2.2964,-2.2886,-2.2886,-2.275,-2.2598,-2.2305,-2.2305,-2.2168,-2.1894,-2.1738,-2.166,-2.166,-2.1523,-2.1445,-2.1445,-2.1445,-2.1445,-3.5519,-3.5669,-3.5848,-3.5848,-3.5848,-3.5848,-3.5848,-3.5669,-3.5519,-3.5519,-3.6357,-3.7135,-3.7375,-3.8302,-3.914,-3.9379,-3.9373,-3.9373,-3.9373,-3.9373,-3.9373,-3.9373,-3.9373,-3.9373,0.0,0.0,0.0,-3.9373,-3.9373,-3.9529,-3.9768,-3.9768,-3.9888,-4.0127,-4.0127,-4.0127,-4.0127,-4.0127,-4.0008,-3.9768,-3.9493,-3.9373,-3.9373,-3.9373,-3.9373,-3.9373,-3.9373,-3.9373,-3.9373,-3.9373,-3.9373,-3.9373,-3.9373,-3.9373,-3.9373,-3.9373,-3.9373,-3.9373,-3.9373,-3.914,-3.8573,-3.7506,-3.608,-3.4558,-3.3475,-3.2106,-3.0884,-3.0884,-3.0507,-3.008,-3.008,-2.993,-2.9804,-2.9804,-2.9804,-2.9804,-2.9804,-2.9804,-2.9804,-2.9804,-2.9804,-2.9804,-2.9804,-2.9804,-2.9804,-2.9804,-2.9184,-2.8545,-2.8124,-2.6849,-2.5692,-2.4872,-2.4125,-2.356,-2.3144,-2.3101,-2.3101,-2.3101,-2.3101,-2.2984,-2.2754,-2.2691,-2.2617,-2.2344,-2.2187,-2.2109,-2.2109,-2.1953,-2.1894,-2.1894,-2.1894,-2.1894,-3.5549,-3.5998,-3.6507,-3.6537,-3.6507,-3.6477,-3.6477,-3.5968,-3.5519,-3.5519,-3.6028,-3.6656,0.0,0.0,-3.8601,-3.926,-3.9409,-3.9373,-3.9373,-3.9373,-3.9373,0.0,0.0,0.0,0.0,0.0,0.0,-3.9433,0.0,-3.9768,-4.0427,-4.0457,-4.0726,-4.1392,-4.1422,-4.1422,-4.1422,-4.1422,-4.1055,-4.0427,-3.9828,-3.9529,-3.9529,-3.9499,-3.9433,-3.9433,-3.9403,-3.9373,-3.9373,-3.9373,-3.9373,-3.9373,-3.9373,-3.9373,-3.9373,-3.9373,-3.9373,-3.9373,-3.9373,-3.9373,-3.9228,-3.8144,-3.6731,-3.5228,-3.4166,-3.2713,-3.1436,-3.1436,-3.106,-3.0658,-3.0633,-3.0231,-2.9829,-2.9804,-2.9804,-2.9804,-2.9804,-2.9804,-2.9804,-2.9804,-2.9804,-2.9804,-2.9804,-2.9804,-2.9804,-2.9804,-2.9804,-2.9404,-2.8347,-2.8124,-2.7256,-2.5126,-2.483,-2.4339,-2.3212,-2.3101,-2.3101,-2.3101,-2.3101,-2.3101,-2.3101,-2.3101,-2.3101,-2.3101,-2.2754,-2.2539,-2.2539,-2.2148,-2.1953,-2.1953,-2.1953,-2.1953,-3.6118,-3.6357,-3.6596,-3.7075,-3.6836,-3.6477,-3.6477,-3.5968,-3.5519,-3.5519,-3.6028,-3.6537,0.0,0.0,0.0,-3.8631,-3.908,0.0,-3.9373,-3.9373,0.0,-3.9373,0.0,-3.9373,-3.9373,-3.9858,0.0,0.0,-4.0157,-4.0427,-4.1085,-4.1145,-4.1205,-4.1384,-4.1422,-4.1422,-4.1422,-4.1422,-4.1294,-4.1115,-4.0965,-4.0876,-4.0876,-4.0367,-4.0157,-4.0127,-3.9619,-3.9373,-3.9373,-3.9373,-3.9373,-3.9373,-3.9373,-3.9373,-3.9373,-3.9373,-3.9373,-3.9373,-3.9373,-3.9373,-3.9228,-3.8144,-3.6985,-3.5794,-3.478,-3.3307,-3.2014,-3.2014,-3.1612,-3.111,-3.0708,-3.0507,-3.0306,-2.9905,-2.9804,-2.9804,-2.9804,-2.9804,-2.9804,-2.9804,-2.9804,-2.9804,-2.9804,-2.9804,-2.9804,-2.9804,-2.9804,-2.9702,-2.9404,-2.8648,-2.7562,-2.6213,-2.5294,-2.4339,-2.3212,-2.3101,-2.3101,-2.3101,-2.3101,-2.3101,-2.3101,-2.3101,-2.3101,-2.3101,-2.2984,-2.2945,-2.2945,-2.2828,-2.2769,-2.2769,-2.2769,-2.2769,-3.6387,-3.6896,-3.7404,-3.7764,-3.7375,-3.6896,-3.6896,-3.6178,-3.5519,-3.5519,-3.5789,-3.6148,-3.6447,-3.7285,-3.8063,0.0,0.0,0.0,-3.9373,-3.9373,-3.9373,0.0,-3.9679,0.0,-3.9858,-4.0457,-4.0935,0.0,-4.0995,-4.1115,-4.1811,-4.1841,-4.1953,-4.2222,-4.2252,-4.2252,-4.2252,-4.1953,-4.1841,-4.1841,-4.1542,-4.1422,-4.1422,-4.0995,-4.0816,-4.0786,0.0,-3.9858,-3.9828,-3.9493,-3.9373,-3.9373,-3.9373,-3.9373,-3.9373,-3.9373,-3.9373,-3.9373,-3.9373,-3.9373,-3.9228,-3.8144,-3.706,-3.6013,-3.502,-3.372,-3.2591,-3.2591,-3.219,-3.1687,-3.1386,-3.1135,-3.0809,-3.0281,-3.0156,-3.008,-2.9854,-2.9804,-2.9804,-2.9804,-2.9804,-2.9804,-2.9804,-2.9804,-2.9804,-2.9804,-2.9804,-2.9804,-2.9804,-2.8806,-2.7683,-2.6607,-2.5462,-2.4339,-2.3212,-2.3101,-2.3101,-2.3101,-2.3101,-2.3101,-2.3101,-2.3101,-2.3101,-2.3101,-2.3101,-2.3101,-2.3101,-2.3101,-2.3101,-2.3101,-2.3101,-2.3101,-3.6596,-3.7494,-3.8392,-3.8392,-3.7913,-3.7375,-3.7315,-3.6357,-3.5519,-3.5519,-3.5519,-3.5669,-3.6237,-3.6866,-3.7494,-3.8153,0.0,-3.932,-3.9373,-3.9373,-3.9403,-3.9493,-4.0068,-4.0427,-4.0516,-4.1115,-4.1782,-4.2351,-4.1961,-4.1893,-4.25,-4.253,-4.2761,-4.326,-4.329,-4.329,-4.329,-4.2761,-4.253,-4.253,-4.1923,-4.1654,-4.1624,-4.1602,-4.1504,-4.1512,-4.0816,-4.0487,-4.0337,-3.9798,-3.9499,-3.9373,-3.9373,-3.9373,-3.9373,-3.9373,-3.9373,-3.9373,-3.9373,-3.9373,-3.9228,-3.8144,-3.706,-3.6013,-3.502,-3.3953,-3.3111,-3.3111,-3.2717,-3.2315,-3.224,-3.1863,-3.1361,-3.0834,-3.0658,-3.0482,-3.0005,-2.9854,-2.9804,-2.9804,-2.9804,-2.9804,-2.9804,-2.9804,-2.9804,-2.9804,-2.9804,-2.9804,-2.9804,-2.8806,-2.7683,-2.6607,-2.5462,-2.4339,-2.3212,-2.3101,-2.3101,-2.3101,-2.3101,-2.3101,-2.3101,-2.3101,-2.3101,-2.3101,-2.3101,-2.3101,-2.3101,-2.3101,-2.3101,-2.3101,-2.3101,-2.3101,-3.7105,-3.7793,-3.8392,-3.8392,-3.7913,-3.7285,-3.6776,-3.6058,0.0,-3.5519,-3.5519,-3.5549,-3.5639,-3.6207,-3.6836,-3.7464,-3.8153,-3.8781,-3.9313,-3.9373,-3.9619,0.0,-4.0337,-4.0606,-4.1145,-4.1841,0.0,0.0,0.0,-4.3021,-4.311,-4.311,-4.317,-4.329,-4.329,-4.329,-4.329,-4.32,-4.311,-4.311,-4.3021,-4.2961,-4.2931,-4.2432,-4.2231,-4.2201,-4.1542,0.0,-4.0397,-4.0277,-3.9918,-3.9373,-3.9373,-3.9373,-3.9373,-3.9373,-3.9373,-3.9373,-3.9373,-3.9373,-3.9228,-3.8144,-3.706,-3.6013,-3.502,-3.3953,-3.3111,-3.3111,-3.2993,-3.2817,-3.234,-3.2139,-3.1938,-3.1386,-3.0934,-3.0583,-3.0482,-3.0105,-2.9804,-2.9804,-2.9804,-2.9804,-2.9804,-2.9804,-2.9804,-2.9804,-2.9804,-2.9804,-2.9804,-2.8806,-2.7683,-2.6607,-2.5462,-2.4339,-2.3212,-2.3101,-2.3101,-2.3101,-2.3101,-2.3101,-2.3101,-2.3101,-2.3101,-2.3101,-2.3101,-2.3101,-2.3101,-2.3101,-2.3101,-2.3101,-2.3101,-2.3101,-3.7255,-3.7644,-3.7973,-3.8302,-3.7644,-3.6866,-3.6567,0.0,0.0,-3.5519,-3.5519,-3.5519,-3.5519,-3.6058,-3.6686,-3.7315,-3.7973,-3.8631,-3.932,-3.9373,-3.9679,-4.0337,-4.0696,-4.1175,-4.1871,-4.2491,-4.288,-4.288,0.0,-4.329,-4.329,-4.329,-4.329,-4.329,-4.329,-4.329,-4.329,-4.329,-4.329,-4.329,-4.329,-4.329,-4.329,-4.3,-4.288,-4.2821,-4.2201,-4.1752,-4.1422,-4.0696,-4.0217,-3.9888,-3.9559,-3.9373,-3.9373,-3.9373,-3.9373,-3.9373,-3.9373,-3.9373,-3.9228,-3.8144,-3.706,-3.6013,-3.502,-3.3953,-3.3111,-3.3111,-3.3111,-3.3018,-3.2742,-3.2667,-3.2516,-3.1964,-3.121,-3.0608,-3.0608,-3.0181,-2.9804,-2.9804,-2.9804,-2.9804,-2.9804,-2.9804,-2.9804,-2.9804,-2.9804,-2.9804,-2.9804,-2.8806,-2.7683,-2.6607,-2.5462,-2.4339,-2.3212,-2.3101,-2.3101,-2.3101,-2.3101,-2.3101,-2.3101,-2.3101,-2.3101,-2.3101,-2.3101,-2.3101,-2.3101,-2.3101,-2.3101,-2.3101,-2.3101,-2.3101,-3.7075,-3.7315,-3.7494,-3.7883,-3.7225,-3.6447,-3.6297,-3.5878,-3.5519,-3.5519,-3.5519,-3.5519,-3.5519,-3.5938,-3.6537,0.0,-3.7853,-3.8482,-3.932,-3.9373,-3.9709,0.0,-4.1055,0.0,-4.253,-4.303,0.0,-4.329,0.0,0.0,-4.329,-4.329,-4.329,-4.329,-4.329,-4.329,-4.329,-4.329,-4.329,-4.329,-4.329,-4.329,-4.329,-4.329,-4.329,-4.326,-4.2791,-4.253,-4.2321,-4.1085,-4.0516,-4.0337,-3.9679,-3.9373,-3.9373,-3.9373,-3.9373,-3.9373,-3.9373,-3.9373,-3.9265,-3.8435,-3.7434,-3.629,-3.5061,-3.4121,-3.3386,-3.3154,-3.3111,-3.3111,-3.3111,-3.3111,-3.2943,-3.234,-3.1562,-3.0884,-3.0658,-3.0281,-2.993,-2.9804,-2.9804,-2.9804,-2.9804,-2.9804,-2.9804,-2.9804,-2.9804,-2.9804,-2.9804,-2.9028,-2.8068,-2.6976,-2.563,-2.4425,-2.356,-2.3256,-2.3101,-2.3101,-2.3101,-2.3101,-2.3101,-2.3101,-2.3101,-2.3101,-2.3101,-2.3101,-2.3101,-2.3101,-2.3101,-2.3101,-2.3101,-2.3101,-3.6567,-3.6985,-3.7285,-3.6776,-3.6567,-3.6327,-3.5729,-3.5549,-3.5519,-3.5519,-3.5519,-3.5519,-3.5519,-3.5549,-3.5998,-3.7195,0.0,-3.7943,-3.9194,-3.9373,-3.9888,-4.1145,0.0,0.0,-4.308,-4.326,0.0,-4.329,0.0,0.0,-4.329,-4.329,-4.329,-4.329,-4.329,-4.329,-4.329,-4.329,-4.329,-4.329,-4.329,-4.329,-4.329,-4.329,-4.329,-4.329,-4.323,0.0,0.0,-4.1632,-4.0935,-4.0337,-3.9679,-3.9373,-3.9373,-3.9373,-3.9373,-3.9373,-3.9373,-3.9373,-3.9373,-3.9265,-3.8546,-3.7281,-3.5305,-3.4635,-3.4345,-3.3368,-3.3111,-3.3111,-3.3111,-3.3111,-3.2943,-3.234,-3.2139,-3.1813,-3.0834,-3.0583,-3.0382,-2.988,-2.9804,-2.9804,-2.9804,-2.9804,-2.9804,-2.9804,-2.9804,-2.9804,-2.9804,-2.9702,-2.9209,-2.8044,-2.6066,-2.4745,-2.466,-2.3714,-2.3101,-2.3101,-2.3101,-2.3101,-2.3101,-2.3101,-2.3101,-2.3101,-2.3101,-2.3101,-2.3101,-2.3101,-2.3101,-2.3101,-2.3101,-2.3101,-3.6387,-3.6387,-3.6297,-3.6447,-3.6178,-3.5818,-3.5579,-3.5519,-3.5519,-3.5519,-3.5519,-3.5519,-3.5519,-3.5519,-3.5818,-3.6716,0.0,0.0,-3.8661,-3.917,-3.9918,-4.1235,-4.1422,0.0,0.0,0.0,-4.329,-4.329,0.0,0.0,-4.329,-4.329,-4.329,-4.329,-4.329,-4.329,-4.329,-4.329,-4.329,-4.329,-4.329,-4.329,-4.329,-4.329,-4.329,-4.329,-4.329,0.0,0.0,-4.1803,-4.1235,-4.0876,-3.9828,-3.9373,-3.9373,-3.9373,-3.9373,-3.9373,-3.9373,-3.9373,-3.9373,-3.9373,-3.8657,-3.751,-3.6081,-3.4733,-3.3641,-3.324,-3.3111,-3.3111,-3.3111,-3.3111,-3.3061,-3.2792,-3.2466,-3.2089,-3.1662,-3.1311,-3.0934,-3.0382,-3.0281,-3.0181,-2.9854,-2.9804,-2.9804,-2.9804,-2.9804,-2.9804,-2.9804,-2.9804,-2.9624,-2.9145,-2.7723,-2.6232,-2.4914,-2.4382,-2.3844,-2.3144,-2.3101,-2.3101,-2.3101,-2.3101,-2.3101,-2.3101,-2.3101,-2.3101,-2.3101,-2.3101,-2.3101,-2.3101,-2.3101,-2.3101,-3.6058,-3.5848,-3.5609,-3.6088,-3.5848,-3.5519,-3.5519,-3.5519,-3.5519,-3.5519,-3.5519,-3.5519,-3.5519,-3.5519,-3.5729,0.0,0.0,-3.7644,-3.8302,-3.899,-3.9828,-4.0965,0.0,-4.1833,0.0,-4.32,-4.329,0.0,0.0,0.0,-4.329,-4.329,-4.329,-4.329,-4.329,-4.329,-4.329,-4.329,-4.329,-4.329,-4.329,-4.329,-4.329,-4.329,-4.329,-4.329,-4.329,0.0,0.0,-4.2132,-4.1602,-4.1265,-4.0157,-3.9553,-3.9373,-3.9373,-3.9373,-3.9373,-3.9373,-3.9373,-3.9373,-3.9373,-3.8472,-3.7175,-3.6448,-3.4952,-3.3513,-3.3197,-3.3111,-3.3111,-3.3111,-3.3111,-3.3111,-3.3111,-3.2767,-3.2416,-3.224,-3.1913,-3.1486,-3.0959,-3.0708,-3.0482,-3.0105,-2.9905,-2.9804,-2.9804,-2.9804,-2.9804,-2.9804,-2.9804,-2.9804,-2.9804,-2.9067,-2.7844,-2.5942,-2.5168,-2.4467,-2.3627,-2.3299,-2.3101,-2.3101,-2.3101,-2.3101,-2.3101,-2.3101,-2.3101,-2.3101,-2.3101,-2.3101,-2.3101,-2.3101,-2.3101,-3.5519,-3.5519,-3.5519,-3.5519,-3.5519,-3.5519,-3.5519,-3.5519,-3.5519,-3.5519,-3.5519,-3.5519,-3.5519,-3.5519,-3.5729,-3.6387,-3.7015,0.0,-3.8302,-3.899,-3.9679,0.0,0.0,-4.1692,-4.2351,-4.294,-4.329,0.0,0.0,0.0,-4.329,-4.329,-4.329,-4.329,-4.329,-4.329,-4.329,-4.329,-4.329,-4.329,-4.329,-4.329,-4.329,-4.329,-4.329,-4.329,0.0,0.0,0.0,-4.2611,-4.2021,-4.1324,-4.0636,-3.9978,-3.9373,-3.9373,-3.9373,-3.9373,-3.9373,-3.9373,-3.9373,-3.9373,-3.7965,-3.6212,-3.6212,-3.548,-3.447,-3.3386,-3.3111,-3.3111,-3.3111,-3.3111,-3.3111,-3.3111,-3.3111,-3.2918,-3.234,-3.2215,-3.2039,-3.1486,-3.0959,-3.0608,-3.0608,-3.0156,-2.9804,-2.9804,-2.9804,-2.9804,-2.9804,-2.9804,-2.9804,-2.9804,-2.9804,-2.9326,-2.8164,-2.6066,-2.4787,-2.4787,-2.3714,-2.3101,-2.3101,-2.3101,-2.3101,-2.3101,-2.3101,-2.3101,-2.3101,-2.3101,-2.3101,-2.3101,-2.3101,-2.3101,-3.5519,-3.5519,-3.5519,-3.5519,-3.5519,-3.5519,-3.5519,-3.5519,-3.5519,-3.5519,-3.5519,-3.5519,-3.5519,-3.5519,-3.5579,-3.5789,-3.6716,0.0,0.0,0.0,0.0,-4.0337,-4.1422,-4.2312,0.0,0.0,-4.329,0.0,0.0,0.0,-4.329,-4.329,-4.329,-4.329,-4.329,-4.329,-4.329,-4.329,-4.329,-4.329,-4.329,-4.329,-4.329,-4.329,-4.329,0.0,0.0,0.0,-4.323,-4.2641,-4.2021,-4.1324,-4.0666,-4.0008,-3.9373,-3.9373,-3.9373,-3.9373,-3.9373,-3.9373,-3.9265,-3.8546,-3.7329,-3.6093,-3.54,-3.447,-3.3556,-3.3197,-3.3111,-3.3111,-3.3111,-3.3111,-3.3111,-3.3111,-3.3111,-3.3061,-3.2842,-3.2792,-3.2641,-3.2064,-3.1813,-3.1587,-3.121,-3.0708,-3.0357,-3.0357,-3.003,-2.9804,-2.9804,-2.9804,-2.9804,-2.9804,-2.9804,-2.9326,-2.8227,-2.6789,-2.563,-2.483,-2.3714,-2.3101,-2.3101,-2.3101,-2.3101,-2.3101,-2.3101,-2.3101,-2.3101,-2.3101,-2.3101,-2.3101,-2.3101,-2.3101,-3.5519,-3.5519,-3.5519,-3.5519,-3.5519,-3.5519,-3.5519,-3.5519,-3.5519,-3.5519,-3.5519,-3.5519,-3.5519,-3.5519,-3.5519,-3.5519,-3.6567,-3.7404,0.0,0.0,0.0,-4.0666,0.0,0.0,0.0,-4.329,-4.329,0.0,0.0,0.0,-4.329,-4.329,-4.329,-4.329,-4.329,-4.329,-4.329,-4.329,-4.329,-4.329,-4.329,-4.329,-4.329,-4.329,-4.329,0.0,0.0,-4.329,0.0,-4.2641,-4.2021,-4.1324,-4.0666,-4.0008,-3.9373,-3.9373,-3.9373,-3.9373,-3.9373,-3.9156,-3.8694,-3.8032,-3.6827,-3.544,-3.4428,-3.3641,-3.3111,-3.3111,-3.3111,-3.3111,-3.3111,-3.3111,-3.3111,-3.3111,-3.3111,-3.3111,-3.3111,-3.3111,-3.2968,-3.2616,-3.2365,-3.2114,-3.1763,-3.126,-3.0834,-3.0633,-3.0331,-3.003,-2.9829,-2.9804,-2.9804,-2.9804,-2.9804,-2.9507,-2.8806,-2.7747,-2.6625,-2.5504,-2.4382,-2.3541,-2.3144,-2.3101,-2.3101,-2.3101,-2.3101,-2.3101,-2.3101,-2.3101,-2.3101,-2.3101,-2.3101,-2.3101,0.0,-3.5519,-3.5519,-3.5519,-3.5519,-3.5519,-3.5519,-3.5519,0.0,-3.5519,-3.5519,-3.5519,-3.5519,-3.5519,-3.5519,-3.5579,-3.6596,-3.7434,0.0,-3.8631,0.0,0.0,-4.1991,0.0,-4.323,-4.329,-4.329,0.0,0.0,0.0,-4.329,-4.329,-4.329,-4.329,-4.329,-4.329,-4.329,-4.329,-4.329,-4.329,-4.329,-4.329,-4.329,-4.329,-4.329,0.0,-4.329,-4.329,-4.323,-4.2641,-4.2021,-4.1324,-4.0666,-4.0008,-3.9373,-3.9373,-3.9373,-3.9373,-3.9301,-3.862,-3.7805,-3.7625,-3.62,-3.4387,-3.3386,-3.3111,-3.3111,-3.3111,-3.3111,-3.3111,-3.3111,-3.3111,-3.3111,-3.3111,-3.3111,-3.3111,-3.3111,-3.3111,-3.3111,-3.3111,-3.2641,-3.2265,-3.2265,-3.1813,-3.1286,-3.0809,-3.0683,-3.0482,-2.998,-2.988,-2.9854,-2.9854,-2.9804,-2.9804,-2.9804,-2.8767,-2.7643,-2.6565,-2.542,-2.4296,-2.3144,-2.3101,-2.3101,-2.3101,-2.3101,-2.3101,-2.3101,-2.3101,-2.3101,-2.3101,-2.3101,-2.3101,-3.5519,0.0,-3.5519,-3.5519,-3.5519,-3.5519,0.0,-3.5519,-3.5519,-3.5519,-3.5519,-3.5519,-3.5519,-3.5519,-3.5669,-3.6178,-3.6896,-3.7584,-3.8093,0.0,0.0,-4.1294,-4.1991,-4.2611,-4.323,-4.329,-4.329,0.0,0.0,-4.329,-4.329,-4.329,-4.329,-4.329,-4.329,-4.329,-4.329,-4.329,-4.329,-4.329,-4.329,-4.329,-4.329,-4.329,-4.329,-4.329,-4.329,-4.329,-4.323,-4.2641,-4.2021,-4.1324,-4.0666,-4.0008,-3.9373,-3.9373,-3.9373,-3.9265,-3.8472,-3.7994,-3.7548,-3.5922,-3.4553,-3.3428,-3.3197,-3.3111,-3.3111,-3.3111,-3.3111,-3.3111,-3.3111,-3.3111,-3.3111,-3.3111,-3.3111,-3.3111,-3.3111,-3.3111,-3.3111,-3.3111,-3.3011,-3.2867,-3.2867,-3.239,-3.1989,-3.1863,-3.1486,-3.116,-3.1035,-3.0658,-3.0407,-3.0407,-3.0055,-2.9804,-2.9804,-2.8767,-2.7643,-2.6565,-2.542,-2.4296,-2.3144,-2.3101,-2.3101,-2.3101,-2.3101,-2.3101,-2.3101,-2.3101,-2.3101,-2.3101,-2.3101,-2.3101,-3.5519,-3.5519,-3.5519,-3.5519,-3.5519,-3.5519,-3.5519,-3.5519,-3.5519,-3.5519,-3.5519,-3.5519,-3.5519,-3.5759,-3.6058,-3.6417,-3.7255,0.0,0.0,0.0,-4.1085,-4.1782,-4.2402,-4.294,0.0,0.0,-4.329,0.0,0.0,-4.329,-4.329,-4.329,-4.329,-4.329,-4.329,-4.329,-4.329,-4.329,-4.329,-4.329,-4.329,-4.329,-4.329,-4.329,-4.329,-4.329,-4.329,-4.329,-4.323,-4.2312,-4.1752,-4.1294,-4.0337,-3.9738,-3.9373,-3.9373,-3.9373,-3.9265,-3.8182,-3.7204,-3.6081,-3.4511,-3.3556,-3.3111,-3.3111,-3.3111,-3.3111,-3.3111,-3.3111,-3.3111,-3.3111,-3.3111,-3.3111,-3.3111,-3.3111,-3.3111,-3.3111,-3.3111,-3.3111,-3.3111,-3.3111,-3.3111,-3.3111,-3.2817,-3.2516,-3.2265,-3.1964,-3.1687,-3.1411,-3.1135,-3.0959,-3.0959,-3.0482,-3.0181,-3.0181,-2.9372,-2.841,-2.7279,-2.6213,-2.5083,-2.393,-2.3387,-2.3101,-2.3101,-2.3101,-2.3101,-2.3101,-2.3101,-2.3101,-2.3101,-2.3101,-2.3101,-3.5519,-3.5519,-3.5519,-3.5519,-3.5519,-3.5519,-3.5519,-3.5519,-3.5519,-3.5519,-3.5519,-3.5549,-3.5639,-3.6118,-3.6537,0.0,0.0,0.0,-4.0217,-4.0965,-4.1662,-4.2321,-4.294,0.0,-4.329,-4.329,-4.329,0.0,0.0,-4.329,-4.329,-4.329,-4.329,-4.329,-4.329,-4.329,-4.329,-4.329,-4.329,-4.329,-4.329,-4.329,-4.329,-4.329,-4.329,-4.329,0.0,0.0,-4.309,-4.1893,-4.1324,-4.1115,-3.9888,-3.9373,-3.9373,-3.9373,-3.9373,-3.9228,-3.7994,-3.6279,-3.4511,-3.3428,-3.3111,-3.3111,-3.3111,-3.3111,-3.3111,-3.3111,-3.3111,-3.3111,-3.3111,-3.3111,-3.3111,-3.3111,-3.3111,-3.3111,-3.3111,-3.3111,-3.3111,-3.3111,-3.3111,-3.3111,-3.3111,-3.3111,-3.2918,-3.2416,-3.234,-3.2164,-3.1712,-3.1562,-3.1512,-3.1512,-3.1035,-3.0733,-3.0733,-3.0231,-2.9489,-2.8546,-2.7366,-2.6171,-2.4872,-2.3714,-2.3101,-2.3101,-2.3101,-2.3101,-2.3101,-2.3101,-2.3101,-2.3101,-2.3101,-2.3101,-3.5519,-3.5519,-3.5519,-3.5519,-3.5519,-3.5519,-3.5519,-3.5519,-3.5519,-3.5519,-3.5519,-3.5669,-3.6237,-3.6417,-3.6836,0.0,0.0,-3.9529,0.0,0.0,-4.1662,-4.2321,0.0,-4.329,-4.329,-4.329,-4.329,-4.329,0.0,-4.329,-4.329,-4.329,-4.329,-4.329,-4.329,-4.329,-4.329,-4.329,-4.329,-4.329,-4.329,-4.329,-4.329,-4.329,-4.329,-4.329,0.0,-4.303,-4.25,-4.1722,-4.1055,-4.0487,-3.9709,-3.9373,-3.9373,-3.9373,-3.9373,-3.909,-3.7137,-3.5682,-3.4511,-3.3428,-3.3111,-3.3111,-3.3111,-3.3111,-3.3111,-3.3111,-3.3111,-3.3111,-3.3111,-3.3111,-3.3111,-3.3111,-3.3111,-3.3111,-3.3111,-3.3111,-3.3111,-3.3111,-3.3111,-3.3111,-3.3111,-3.3111,-3.3043,-3.3011,-3.2943,-3.2918,-3.2842,-3.239,-3.2089,-3.2089,-3.1612,-3.126,-3.126,-3.0783,-3.0403,-3.0219,-2.8731,-2.693,-2.4872,-2.3714,-2.3101,-2.3101,-2.3101,-2.3101,-2.3101,-2.3101,-2.3101,-2.3101,-2.3101,-2.3101,-3.5519,-3.5519,-3.5519,-3.5519,-3.5519,-3.5519,-3.5519,-3.5519,-3.5519,-3.5519,-3.5789,-3.6118,0.0,0.0,-3.7823,-3.8781,0.0,-3.9768,-4.0786,-4.1242,-4.1743,0.0,0.0,-4.329,-4.329,-4.329,-4.329,-4.329,-4.329,0.0,-4.329,-4.329,-4.329,-4.329,-4.329,-4.329,-4.329,-4.329,-4.329,-4.329,-4.329,-4.329,-4.329,-4.329,-4.329,-4.326,0.0,-4.2641,-4.2321,-4.1265,-4.0666,-4.0337,-3.9679,-3.9373,-3.9373,-3.9373,-3.9017,-3.8397,-3.7434,-3.6041,-3.4635,-3.4121,-3.3556,-3.3111,-3.3111,-3.3111,-3.3111,-3.3111,-3.3111,-3.3111,-3.3111,-3.3111,-3.3111,-3.3111,-3.3111,-3.3111,-3.3111,-3.3111,-3.3111,-3.3111,-3.3111,-3.3111,-3.3111,-3.3111,-3.3111,-3.3111,-3.3111,-3.3111,-3.3111,-3.2842,-3.2692,-3.2692,-3.2164,-3.1838,-3.1838,-3.1336,-3.0518,-2.934,-2.8531,-2.7093,-2.4872,-2.4296,-2.3714,-2.3101,-2.3101,-2.3101,-2.3101,-2.3101,-2.3101,-2.3101,-2.3101,-2.3101,-3.5519,-3.5519,-3.5519,-3.5519,-3.5519,-3.5519,-3.5519,-3.5639,-3.5729,-3.5729,-3.6237,-3.6746,0.0,-3.7853,0.0,-3.932,-3.9373,-3.9888,-4.1205,-4.1422,-4.1863,-4.314,-4.329,-4.329,-4.329,-4.329,-4.329,-4.329,-4.329,-4.329,-4.329,-4.329,-4.329,-4.329,-4.329,-4.329,-4.329,-4.329,-4.329,-4.329,-4.329,-4.329,-4.329,-4.329,-4.329,-4.326,-4.2641,-4.2321,-4.2081,-4.0876,-4.0307,-4.0127,-3.9619,-3.9373,-3.9373,-3.9373,-3.887,-3.8144,-3.7881,-3.6593,-3.502,-3.4774,-3.3953,-3.3111,-3.3111,-3.3111,-3.3111,-3.3111,-3.3111,-3.3111,-3.3111,-3.3111,-3.3111,-3.3111,-3.3111,-3.3111,-3.3111,-3.3111,-3.3111,-3.3111,-3.3111,-3.3111,-3.3111,-3.3111,-3.3111,-3.3111,-3.3111,-3.3111,-3.3111,-3.3111,-3.3111,-3.3111,-3.2692,-3.2365,-3.2215,-3.1813,-3.0687,-2.8593,-2.8226,-2.7215,-2.5294,-2.4957,-2.4253,-2.3144,-2.3101,-2.3101,-2.3101,-2.3101,-2.3101,-2.3101,-2.3198,-2.3257,-3.5519,-3.5519,-3.5519,-3.5519,-3.5519,-3.5519,-3.5519,-3.5968,-3.6417,-3.6417,-3.6896,-3.7524,-3.8153,-3.8841,-3.9313,-3.9373,-3.9373,-3.9888,-4.1205,0.0,-4.1863,-4.314,-4.329,-4.329,-4.329,-4.329,-4.329,-4.329,-4.329,-4.329,-4.329,-4.329,-4.329,-4.329,-4.329,-4.329,-4.329,-4.329,-4.329,-4.329,-4.329,-4.329,-4.329,-4.329,-4.329,-4.326,-4.2641,-4.2051,-4.1422,-4.0696,-4.0038,-3.9499,-3.9403,-3.9373,-3.9373,-3.9373,-3.9337,-3.9156,-3.8144,-3.706,-3.5934,-3.502,-3.3953,-3.3111,-3.3111,-3.3111,-3.3111,-3.3111,-3.3111,-3.3111,-3.3111,-3.3111,-3.3111,-3.3111,-3.3111,-3.3111,-3.3111,-3.3111,-3.3111,-3.3111,-3.3111,-3.3111,-3.3111,-3.3111,-3.3111,-3.3111,-3.3111,-3.3111,-3.3111,-3.3111,-3.3111,-3.3111,-3.3043,-3.2792,-3.2265,-3.2164,-3.1363,-2.9582,-2.8631,-2.7562,-2.6442,-2.5378,-2.4253,-2.3144,-2.3101,-2.3101,-2.3101,-2.3101,-2.3101,-2.3101,-2.3555,-2.375,-3.5519,-3.5519,-3.5519,-3.5519,-3.5818,-3.6118,-3.6118,-3.6297,-3.6596,-3.6985,-3.7554,-3.8212,-3.8901,0.0,-3.9373,-3.9373,-3.9768,-4.0337,-4.1265,-4.1782,-4.2312,-4.32,-4.329,-4.329,-4.329,-4.329,-4.329,-4.329,-4.329,-4.329,-4.329,-4.329,-4.329,-4.329,-4.329,-4.329,-4.329,-4.329,-4.329,-4.329,-4.329,-4.329,-4.329,-4.329,-4.329,-4.323,-4.2222,-4.1662,-4.1332,-4.0217,-3.9649,-3.9373,-3.9373,-3.9373,-3.9373,-3.9373,-3.9373,-3.9337,-3.8943,-3.7663,-3.6132,-3.5734,-3.4485,-3.3111,-3.3111,-3.3111,-3.3111,-3.3111,-3.3111,-3.3111,-3.3111,-3.3111,-3.3111,-3.3111,-3.3111,-3.3111,-3.3111,-3.3111,-3.3111,-3.3111,-3.3111,-3.3111,-3.3111,-3.3111,-3.3111,-3.3111,-3.3111,-3.3111,-3.3111,-3.3111,-3.3111,-3.3111,-3.3111,-3.271,-3.1661,-3.1258,-3.0496,-2.907,-2.8738,-2.7741,-2.5872,-2.5168,-2.4253,-2.3144,-2.3101,-2.3237,-2.3535,-2.3535,-2.3672,-2.3881,-2.4102,-2.418,-3.5519,-3.5519,-3.5549,-3.5759,-3.6148,-3.6596,-3.6985,-3.7075,-3.7195,-3.7644,-3.8242,-3.8871,-3.932,0.0,0.0,0.0,-3.9978,-4.0636,-4.1332,-4.1991,-4.265,-4.323,-4.329,-4.329,-4.329,-4.329,-4.329,-4.329,-4.329,-4.329,-4.329,-4.329,-4.329,-4.329,-4.329,-4.329,-4.329,-4.329,-4.329,-4.329,-4.329,-4.329,-4.329,-4.329,-4.329,-4.323,-4.1953,-4.1422,-4.1294,-3.9948,-3.9373,-3.9373,-3.9373,-3.9373,-3.9373,-3.9373,-3.9192,-3.8907,-3.8907,-3.751,-3.5734,-3.5734,-3.4526,-3.3111,-3.3111,-3.3111,-3.3111,-3.3111,-3.3111,-3.3111,-3.3111,-3.3111,-3.3111,-3.3111,-3.3111,-3.3111,-3.3111,-3.3111,-3.3111,-3.3111,-3.3111,-3.3111,-3.3111,-3.3111,-3.3111,-3.3111,-3.3111,-3.3111,-3.3111,-3.3111,-3.3111,-3.3111,-3.3111,-3.2742,-3.1865,-3.1065,-3.015,-2.8948,-2.8512,-2.7452,-2.5687,-2.5373,-2.4684,-2.3535,-2.3491,-2.3691,-2.3984,-2.3984,-2.4141,-2.4414,-2.4551,-2.4629,-3.5519,-3.5519,-3.5669,-3.6327,-3.6477,-3.6836,-3.8093,-3.8392,-3.8392,-3.8392,-3.8931,-3.9373,-3.9373,-3.9373,0.0,-3.9373,-3.9978,-4.0636,-4.1332,-4.1991,-4.265,-4.323,-4.329,-4.329,-4.329,-4.329,-4.329,-4.329,-4.329,-4.329,-4.329,-4.329,-4.329,-4.329,-4.329,-4.329,-4.329,-4.329,-4.329,-4.329,-4.329,-4.329,-4.329,-4.329,-4.329,-4.32,-4.1953,-4.1422,-4.1265,-3.9948,-3.9373,-3.9373,-3.9403,-3.9403,-3.9403,-3.9439,-3.8723,-3.7805,-3.7805,-3.6464,-3.4718,-3.4718,-3.3995,-3.3111,-3.3111,-3.3111,-3.3111,-3.3111,-3.3111,-3.3111,-3.3111,-3.3111,-3.3111,-3.3111,-3.3111,-3.3111,-3.3111,-3.3111,-3.3111,-3.3111,-3.3111,-3.3111,-3.3111,-3.3111,-3.3111,-3.3111,-3.3111,-3.3111,-3.3111,-3.3111,-3.3111,-3.3111,-3.3111,-3.3111,-3.3068,-3.1909,-3.0687,-2.9487,-2.7831,-2.6651,-2.61,-2.6079,-2.5538,-2.4414,-2.4414,-2.4414,-2.4414,-2.4414,-2.4414,-2.4434,-2.4863,-2.5125,-3.5519,-3.5519,-3.5669,-3.6327,-3.6806,-3.7345,-3.8212,-3.8392,-3.8512,-3.902,-3.9254,-3.9373,-3.9373,-3.9373,0.0,-3.9373,-3.9978,-4.0636,-4.1332,-4.1991,-4.265,-4.323,-4.329,-4.329,-4.329,-4.329,-4.329,-4.329,-4.329,-4.329,-4.329,-4.329,-4.329,-4.329,-4.329,-4.329,-4.329,-4.329,-4.329,-4.329,-4.329,-4.329,-4.329,-4.329,-4.309,-4.2611,-4.1782,-4.1115,-4.0636,-3.9768,-3.9373,-3.9433,-3.9918,-4.0098,-4.0157,-4.0636,-4.0047,-3.9089,-3.9089,-3.7396,-3.5257,-3.5257,-3.4288,-3.3111,-3.3111,-3.3111,-3.3111,-3.3111,-3.3111,-3.3111,-3.3111,-3.3111,-3.3111,-3.3111,-3.3111,-3.3111,-3.3111,-3.3111,-3.3111,-3.3111,-3.3111,-3.3111,-3.3111,-3.3111,-3.3111,-3.3111,-3.3111,-3.3111,-3.3111,-3.3111,-3.3111,-3.3111,-3.3111,-3.2742,-3.1821,-3.14,-3.0687,-2.9487,-2.8132,-2.6806,-2.5445,-2.5079,-2.4736,-2.4414,-2.4414,-2.457,-2.4863,-2.4863,-2.5039,-2.5304,-2.5469,-2.5527,-3.5519,-3.5699,-3.6058,-3.6686,-3.7315,-3.7973,-3.8631,-3.8811,-3.8901,-3.9313,-3.9373,-3.9373,-3.9373,-3.9373,0.0,-3.9373,-3.9978,-4.0546,-4.0935,-4.1602,-4.2171,-4.2521,-4.2551,-4.2551,-4.2551,-4.2551,-4.2671,-4.294,-4.294,-4.306,-4.329,-4.329,-4.329,-4.329,-4.329,-4.329,-4.329,-4.329,-4.329,-4.329,-4.329,-4.329,-4.329,-4.306,-4.2731,-4.2351,-4.1384,-4.0606,-3.9978,-3.9589,-3.9373,-3.9499,-4.0157,-4.0397,-4.0487,-4.1145,-4.0373,-3.9005,-3.9033,-3.7343,-3.5132,-3.4943,-3.4211,-3.337,-3.3144,-3.3111,-3.3111,-3.3111,-3.3111,-3.3111,-3.3111,-3.3111,-3.3111,-3.3111,-3.3111,-3.3111,-3.3111,-3.3111,-3.3111,-3.3111,-3.3111,-3.3111,-3.3111,-3.3111,-3.3111,-3.3111,-3.3111,-3.3111,-3.3111,-3.3111,-3.3111,-3.3111,-3.3111,-3.2785,-3.1996,-3.1488,-3.0911,-3.0169,-2.8541,-2.7143,-2.6121,-2.5362,-2.4941,-2.4941,-2.4941,-2.5078,-2.5332,-2.5332,-2.5469,-2.5693,-2.5693,-2.5693,-3.5519,-3.5998,-3.6626,-3.7255,-3.7943,-3.8661,-3.926,-3.9373,-3.9373,-3.9373,0.0,-3.9373,-3.9373,-3.9373,-3.9373,-3.9373,-3.9918,-4.0337,-4.0397,-4.0905,-4.1324,-4.1422,-4.1422,-4.1422,-4.1422,-4.1422,-4.1662,-4.2261,-4.2321,-4.2521,-4.308,-4.317,-4.32,-4.32,-4.326,-4.329,-4.329,-4.329,-4.329,-4.329,-4.329,-4.329,-4.326,-4.2671,-4.2321,-4.2141,-4.0846,-3.9978,-3.9373,-3.9373,-3.9373,-3.9463,-4.0217,-4.0487,-4.0576,-4.1294,-4.0205,-3.8394,-3.8297,-3.6784,-3.4836,-3.4243,-3.3972,-3.3796,-3.3294,-3.3162,-3.3111,-3.3111,-3.3111,-3.3111,-3.3111,-3.3111,-3.3111,-3.3111,-3.3111,-3.3111,-3.3111,-3.3111,-3.3111,-3.3111,-3.3111,-3.3111,-3.3111,-3.3111,-3.3111,-3.3111,-3.3111,-3.3111,-3.3111,-3.3111,-3.3111,-3.3111,-3.3111,-3.3111,-3.3111,-3.2064,-3.1356,-3.1356,-2.9096,-2.7767,-2.7767,-2.6428,-2.5693,-2.5693,-2.5693,-2.5693,-2.5693,-2.5693,-2.5693,-2.5693,-2.5693,-2.5693,-3.5519,-3.5998,-3.6626,-3.7255,-3.8302,-3.923,-3.9379,-3.9373,-3.9373,-3.9373,-3.9373,-3.9373,-3.9373,-3.9373,-3.9373,-3.9373,-3.9493,-3.9798,-4.0337,-4.0516,-4.0816,-4.1324,-4.1422,-4.1422,-4.1422,-4.1422,-4.1482,-4.1602,-4.1632,-4.1654,-4.1803,-4.2321,-4.262,-4.262,-4.306,-4.329,-4.329,-4.329,-4.329,-4.329,-4.329,-4.329,-4.326,-4.2671,-4.1841,-4.0786,-3.9978,-3.9523,-3.9373,-3.9373,-3.9373,-3.9493,-4.0696,-4.1175,-4.1294,-4.2491,-4.2016,-4.0728,-3.9799,-3.8287,-3.659,-3.5476,-3.46,-3.3872,-3.3746,-3.342,-3.3111,-3.3111,-3.3111,-3.3111,-3.3111,-3.3111,-3.3111,-3.3111,-3.3111,-3.3111,-3.3111,-3.3111,-3.3111,-3.3111,-3.3111,-3.3111,-3.3111,-3.3111,-3.3111,-3.3111,-3.3111,-3.3111,-3.3111,-3.3111,-3.3111,-3.3111,-3.3111,-3.3111,-3.3111,-3.2853,-3.2698,-3.2698,-3.0373,-2.9004,-2.9004,-2.6887,-2.5693,-2.5693,-2.5693,-2.5693,-2.5693,-2.5693,-2.5693,-2.5693,-2.5693,-2.5693,-3.5519,-3.6207,-3.7165,-3.8123,-3.8901,-3.9373,-3.9373,-3.9373,-3.9373,-3.9373,-3.9373,-3.9373,-3.9373,-3.9373,-3.9373,-3.9373,-3.9373,-3.9493,-3.9888,-3.9918,-4.0068,-4.0397,-4.0427,-4.0427,-4.0427,-4.0427,-4.0576,-4.0876,-4.0905,-4.1055,-4.1354,-4.1752,-4.1931,-4.1931,-4.2521,-4.288,-4.288,-4.314,-4.329,-4.329,-4.329,-4.2961,-4.2402,-4.2043,-4.1175,-3.9918,-3.9559,-3.9373,-3.9373,-3.9373,-3.9373,-3.9529,-4.0516,-4.1115,-4.1542,-4.2491,-4.2324,-4.142,-4.0275,-3.8949,-3.7453,-3.5973,-3.5107,-3.46,-3.4048,-3.3696,-3.342,-3.3144,-3.3111,-3.3111,-3.3111,-3.3111,-3.3111,-3.3111,-3.3111,-3.3111,-3.3111,-3.3111,-3.3111,-3.3111,-3.3111,-3.3111,-3.3111,-3.3111,-3.3111,-3.3111,-3.3111,-3.3111,-3.3111,-3.3111,-3.3111,-3.3111,-3.3111,-3.3111,-3.3111,-3.3111,-3.3111,-3.3111,-3.1311,-2.9988,-2.9396,-2.7626,-2.6332,-2.5693,-2.5693,-2.5693,-2.5693,-2.5693,-2.5693,-2.5693,-2.5693,-2.5693,-3.5519,-3.6447,-3.7734,-3.9044,-3.9373,-3.9373,-3.9373,-3.9373,-3.9373,-3.9373,-3.9373,-3.9373,-3.9373,-3.9373,-3.9373,-3.9373,-3.9373,-3.9373,-3.9373,-3.9373,-3.9373,-3.9373,-3.9373,-3.9373,-3.9373,-3.9373,-3.9649,-4.0187,-4.0217,-4.0457,-4.1025,-4.1145,-4.1205,-4.1205,-4.1991,-4.241,-4.241,-4.3,-4.329,-4.329,-4.329,-4.2641,-4.1422,-4.1422,-4.0666,-3.9373,-3.9373,-3.9373,-3.9373,-3.9373,-3.9373,-3.9499,-4.0157,-4.0816,-4.1482,-4.2141,-4.2178,-4.174,-4.0575,-3.9404,-3.8119,-3.6473,-3.5743,-3.5332,-3.4449,-3.4048,-3.3796,-3.3345,-3.3144,-3.3111,-3.3111,-3.3111,-3.3111,-3.3111,-3.3111,-3.3111,-3.3111,-3.3111,-3.3111,-3.3111,-3.3111,-3.3111,-3.3111,-3.3111,-3.3111,-3.3111,-3.3111,-3.3111,-3.3111,-3.3111,-3.3111,-3.3111,-3.3111,-3.3111,-3.3111,-3.3111,-3.3111,-3.3111,-3.1909,-3.0754,-2.9761,-2.8541,-2.7315,-2.6062,-2.582,-2.5693,-2.5693,-2.5693,-2.5693,-2.5693,-2.5693,-2.5693,-3.5519,-3.6447,-3.7734,-3.9044,-3.9373,-3.9373,-3.9373,-3.9373,-3.9373,0.0,-3.9373,-3.9373,-3.9373,-3.9373,-3.9373,-3.9373,-3.9373,-3.9373,-3.9373,-3.9373,-3.9373,-3.9373,-3.9373,-3.9373,-3.9373,-3.9373,-3.9469,-3.9559,-3.9523,-3.9553,-3.9679,-4.0217,-4.0516,-4.0516,-4.1752,-4.241,-4.241,-4.3,-4.329,-4.329,-4.329,-4.2641,-4.1422,-4.1422,-4.0666,-3.9373,-3.9373,-3.9373,-3.9373,-3.9373,-3.9373,-3.9499,-4.0157,-4.0816,-4.1482,-4.2141,-4.2682,-4.29,-4.1782,-4.0618,-3.9448,-3.8164,-3.6759,-3.5483,-3.5332,-3.465,-3.3897,-3.3796,-3.3445,-3.3111,-3.3111,-3.3111,-3.3111,-3.3111,-3.3111,-3.3111,-3.3111,-3.3111,-3.3111,-3.3111,-3.3111,-3.3111,-3.3111,-3.3111,-3.3111,-3.3111,-3.3111,-3.3111,-3.3111,-3.3111,-3.3111,-3.3111,-3.3111,-3.3111,-3.3111,-3.3111,-3.3111,-3.3111,-3.1909,-3.1134,-3.0956,-2.9806,-2.8588,-2.7363,-2.6255,-2.5693,-2.5693,-2.5693,-2.5693,-2.5693,-2.5693,-2.5693,-3.5968,-3.6716,-3.7644,-3.8601,-3.914,-3.9373,-3.9373,-3.9373,-3.9373,-3.9373,-3.9373,-3.9373,-3.9373,-3.9373,-3.9373,-3.9373,-3.9373,-3.9373,-3.9373,-3.9373,-3.9373,-3.9373,-3.9373,-3.9373,-3.9373,-3.9373,-3.9373,-3.9373,-3.9373,-3.9373,-3.9373,-3.9679,-3.9858,-3.9858,-4.0756,-4.1482,-4.1841,-4.2462,-4.297,-4.329,-4.329,-4.2851,-4.1961,-4.1602,-4.0666,-3.9373,-3.9373,-3.9373,-3.9373,-3.9373,-3.9373,-3.9439,-3.9738,-4.0487,-4.1452,-4.1752,-4.2462,-4.317,-4.1988,-4.1253,-4.0575,-3.8693,-3.7586,-3.6759,-3.5814,-3.5157,-3.4705,-3.4449,-3.3972,-3.3545,-3.3545,-3.3319,-3.3111,-3.3111,-3.3111,-3.3111,-3.3111,-3.3111,-3.3111,-3.3111,-3.3111,-3.3111,-3.3111,-3.3111,-3.3111,-3.3111,-3.3111,-3.3111,-3.3111,-3.3111,-3.3111,-3.3111,-3.3111,-3.3111,-3.3111,-3.3111,-3.3111,-3.3111,-3.2568,-3.1952,-3.1223,-3.0687,-2.9533,-2.7626,-2.703,-2.6428,-2.5693,-2.5693,-2.5693,-2.5693,-2.5693,-2.5693,-3.6297,-3.6926,-3.7554,-3.8212,-3.8901,-3.9373,0.0,0.0,-3.9373,0.0,-3.9373,-3.9373,-3.9373,-3.9373,-3.9373,-3.9373,-3.9373,-3.9373,-3.9373,-3.9373,-3.9373,-3.9373,-3.9373,-3.9373,-3.9373,-3.9373,-3.9373,-3.9373,-3.9373,-3.9373,-3.9373,-3.9373,-3.9373,-3.9373,-4.0068,-4.0726,-4.1422,-4.2231,-4.2851,-4.329,-4.329,-4.3,-4.2381,-4.1901,-4.0905,-3.9612,-3.9463,-3.9373,-3.9373,-3.9373,-3.9373,-3.9373,-3.9373,-4.0127,-4.1145,-4.1324,-4.2102,-4.2932,-4.193,-4.142,-4.0831,-3.8756,-3.788,-3.7416,-3.6134,-3.5608,-3.5408,-3.5006,-3.4525,-3.4098,-3.4098,-3.3796,-3.3495,-3.3495,-3.3495,-3.342,-3.3187,-3.3111,-3.3111,-3.3111,-3.3111,-3.3111,-3.3111,-3.3111,-3.3111,-3.3111,-3.3111,-3.3111,-3.3111,-3.3111,-3.3111,-3.3111,-3.3111,-3.3111,-3.3111,-3.3111,-3.3111,-3.3111,-3.3111,-3.2655,-3.1733,-3.1689,-3.0687,-2.8541,-2.8236,-2.7268,-2.5693,-2.5693,-2.5693,-2.5693,-2.5693,-2.5693,-3.6297,-3.6926,-3.7554,-3.8212,-3.8901,-3.9373,0.0,0.0,-3.9373,-3.9373,-3.9373,-3.9373,-3.9373,-3.9373,-3.9373,-3.9373,-3.9373,-3.9373,0.0,0.0,0.0,-3.9373,-3.9373,-3.9373,-3.9373,-3.9373,-3.9373,-3.9373,-3.9373,-3.9373,-3.9373,-3.9373,-3.9373,-3.9373,-4.0068,-4.0726,-4.1422,-4.2641,-4.326,-4.329,-4.329,-4.3,-4.241,-4.2351,-4.1632,-4.0307,-3.9679,-3.9373,-3.9373,-3.9373,-3.9373,-3.9373,-3.9373,-3.9828,-4.0516,-4.1145,-4.1841,-4.2375,-4.1826,-4.0873,-3.9754,-3.8514,-3.7381,-3.6499,-3.638,-3.5956,-3.5483,-3.5458,-3.5056,-3.4675,-3.4675,-3.465,-3.465,-3.465,-3.465,-3.4349,-3.3294,-3.3111,-3.3111,-3.3111,-3.3111,-3.3111,-3.3111,-3.3111,-3.3111,-3.3111,-3.3111,-3.3111,-3.3111,-3.3111,-3.3111,-3.3111,-3.3111,-3.3111,-3.3111,-3.3111,-3.3111,-3.3111,-3.3111,-3.3068,-3.2982,-3.2982,-3.237,-3.1045,-2.9897,-2.8121,-2.5693,-2.5693,-2.5693,-2.5693,-2.5693,-2.5693,-3.5789,-3.6626,-3.7464,-3.7704,-3.8601,-3.9373,-3.9373,-3.9373,-3.9373,-3.9373,-3.9373,-3.9373,-3.9373,-3.9373,-3.9373,-3.9373,0.0,0.0,0.0,0.0,0.0,-3.9373,-3.9373,-3.9373,-3.9373,-3.9373,-3.9373,-3.9373,-3.9373,-3.9373,-3.9373,-3.9373,-3.9373,-3.9373,-3.9649,-4.0277,-4.1422,-4.2671,-4.329,-4.329,-4.329,-4.317,-4.297,-4.259,-4.1901,-4.0995,-4.0337,-3.9798,-3.9373,-3.9373,-3.9373,-3.9373,-3.9373,-3.9828,-4.0487,-4.1145,-4.1841,-4.2315,-4.1797,-4.1337,-4.0703,-3.8711,-3.7815,-3.7381,-3.6615,-3.6279,-3.6081,-3.6081,-3.568,-3.5207,-3.5207,-3.4931,-3.468,-3.468,-3.468,-3.458,-3.4223,-3.4123,-3.4022,-3.3671,-3.3596,-3.3495,-3.3187,-3.3111,-3.3111,-3.3111,-3.3111,-3.3111,-3.3111,-3.3111,-3.3111,-3.3111,-3.3111,-3.3111,-3.3111,-3.3111,-3.3111,-3.3111,-3.3111,-3.3111,-3.3111,-3.3111,-3.2525,-3.1223,-2.9988,-2.8588,-2.6887,-2.611,-2.5693,-2.5693,-2.5693,-2.5693,-3.5759,-3.6596,-3.7464,-3.7674,-3.8571,-3.9373,-3.9373,0.0,-3.9373,-3.9373,-3.9373,-3.9373,-3.9373,-3.9373,0.0,0.0,0.0,0.0,0.0,0.0,0.0,0.0,-3.9373,-3.9373,-3.9373,-3.9373,-3.9373,-3.9373,-3.9373,0.0,-3.9373,-3.9373,-3.9373,-3.9373,-3.9858,-4.0487,-4.1422,-4.2671,-4.329,-4.329,-4.329,-4.329,-4.329,-4.288,-4.2342,-4.1722,-4.1235,-4.0427,-3.9373,-3.9373,-3.9373,-3.9373,-3.9373,-3.9679,-4.0187,-4.1055,-4.1692,-4.2016,-4.1738,-4.1337,-4.0703,-3.8711,-3.7861,-3.7356,-3.6615,-3.6405,-3.6405,-3.6405,-3.6107,-3.5805,-3.5805,-3.5554,-3.5278,-3.5278,-3.5278,-3.5278,-3.5278,-3.4977,-3.458,-3.4248,-3.4173,-3.3997,-3.3445,-3.3345,-3.3294,-3.3136,-3.3111,-3.3111,-3.3111,-3.3111,-3.3111,-3.3111,-3.3111,-3.3111,-3.3111,-3.3111,-3.3111,-3.3111,-3.3111,-3.3111,-3.3111,-3.3111,-3.2525,-3.1223,-2.9988,-2.8819,-2.76,-2.6332,-2.5693,-2.5693,-2.5693,-2.5693,0.0,0.0,0.0,-3.8242,-3.8901,-3.9373,-3.9373,0.0,-3.9373,-3.9373,-3.9373,-3.9373,-3.9373,0.0,0.0,0.0,0.0,0.0,0.0,0.0,0.0,0.0,-3.9373,-3.9373,-3.9373,-3.9373,-3.9373,-3.9373,-3.9373,-3.9373,-3.9373,-3.9373,-3.9373,-3.9373,-4.0696,-4.1422,-4.1422,-4.2671,-4.329,-4.329,-4.329,-4.329,-4.329,-4.329,-4.297,-4.241,-4.241,-4.1265,-3.9433,-3.9469,-3.9439,-3.9373,-3.9373,-3.9373,-3.9589,-4.0905,-4.1422,-4.1411,-4.1552,-4.0873,-3.9711,-3.8514,-3.7335,-3.6405,-3.6405,-3.6405,-3.6405,-3.6405,-3.6405,-3.6405,-3.6405,-3.6405,-3.6405,-3.6405,-3.6405,-3.6405,-3.6405,-3.5529,-3.4731,-3.4751,-3.4705,-3.4575,-3.4022,-3.3897,-3.3721,-3.3194,-3.3136,-3.3111,-3.3111,-3.3111,-3.3111,-3.3111,-3.3111,-3.3111,-3.3111,-3.3111,-3.3111,-3.3111,-3.3111,-3.3111,-3.3111,-3.3068,-3.2481,-3.1223,-2.9988,-2.8773,-2.76,-2.6332,-2.5693,-2.5693,-2.5693,-2.5693,-3.7105,0.0,0.0,0.0,0.0,0.0,-3.9373,-3.9373,-3.9373,-3.9373,-3.9373,-3.9373,0.0,0.0,0.0,0.0,0.0,0.0,0.0,0.0,0.0,0.0,-3.9373,-3.9373,-3.9373,-3.9373,-3.9373,0.0,-3.9373,-3.9373,-3.9373,-3.9373,-3.9373,-3.9373,-4.0696,-4.1422,-4.1422,-4.2671,-4.329,-4.329,-4.329,-4.329,-4.329,-4.329,-4.297,-4.241,-4.241,-4.1811,-4.0816,-4.0337,-3.9858,-3.9373,-3.9373,-3.9373,-3.9589,-4.0905,-4.1422,-4.1411,-4.1552,-4.0873,-3.9711,-3.8514,-3.7335,-3.6405,-3.6405,-3.6405,-3.6405,-3.6405,-3.6405,-3.6405,-3.6405,-3.6405,-3.6405,-3.6405,-3.6405,-3.6405,-3.6405,-3.6179,-3.5805,-3.5357,-3.5282,-3.5107,-3.46,-3.4173,-3.3847,-3.3696,-3.3345,-3.3111,-3.3111,-3.3111,-3.3111,-3.3111,-3.3111,-3.3111,-3.3111,-3.3111,-3.3111,-3.3111,-3.3111,-3.3111,-3.3111,-3.2239,-3.1533,-3.1223,-2.9189,-2.7908,-2.76,-2.6332,-2.5693,-2.5693,-2.5693,-2.5849,0.0,0.0,0.0,-3.8751,0.0,0.0,-3.9373,-3.9373,-3.9373,0.0,-3.9373,-3.9373,0.0,0.0,0.0,0.0,0.0,0.0,0.0,0.0,0.0,0.0,-3.9373,-3.9373,-3.9373,-3.9373,-3.9373,-3.9373,-3.9373,-3.9373,-3.9373,-3.9373,-3.9373,-3.9373,-4.0696,-4.1422,-4.1422,-4.2671,-4.329,-4.329,-4.329,-4.329,-4.329,-4.329,-4.312,-4.2761,-4.2761,-4.2402,-4.1811,-4.1422,-4.0666,-3.9798,-3.9493,-3.9373,-3.9589,-4.0905,-4.1422,-4.1488,-4.2107,-4.1545,-4.0404,-3.9227,-3.8088,-3.701,-3.6546,-3.6405,-3.6405,-3.6405,-3.6405,-3.6405,-3.6405,-3.6405,-3.6405,-3.6405,-3.6405,-3.6405,-3.6405,-3.6405,-3.6329,-3.5956,-3.5881,-3.5705,-3.5107,-3.4756,-3.45,-3.4274,-3.3771,-3.342,-3.342,-3.3262,-3.3111,-3.3111,-3.3111,-3.3111,-3.3111,-3.3111,-3.3111,-3.3111,-3.3111,-3.3111,-3.3111,-3.237,-3.1512,-3.044,-2.9096,-2.7861,-2.6812,-2.6062,-2.5791,-2.6016,-2.6016,-2.623,0.0,0.0,0.0,0.0,-3.9373,0.0,-3.9373,-3.9373,-3.9373,-3.9373,-3.9373,0.0,0.0,0.0,0.0,0.0,0.0,0.0,0.0,0.0,0.0,0.0,-3.9373,-3.9373,-3.9373,-3.9373,-3.9373,-3.9373,-3.9373,-3.9373,-3.9373,-3.9373,-3.9373,-3.9373,-4.0696,-4.1422,-4.1422,-4.2671,-4.329,-4.329,-4.329,-4.329,-4.329,-4.329,-4.329,-4.329,-4.329,-4.3,-4.25,-4.244,-4.1662,-4.0457,-3.9798,-3.9493,-3.9679,-4.0935,-4.1422,-4.1564,-4.288,-4.2548,-4.142,-4.0275,-3.9094,-3.788,-3.6756,-3.6405,-3.6405,-3.6405,-3.6405,-3.6405,-3.6405,-3.6405,-3.6405,-3.6405,-3.6405,-3.6405,-3.6405,-3.6405,-3.6405,-3.6405,-3.6405,-3.6207,-3.5683,-3.5533,-3.5332,-3.4831,-3.4349,-3.3997,-3.3997,-3.3571,-3.3269,-3.3269,-3.3269,-3.3269,-3.3269,-3.3269,-3.3269,-3.3269,-3.3269,-3.3269,-3.3269,-3.3028,-3.1837,-2.9621,-2.9298,-2.8057,-2.583,-2.5791,-2.6016,-2.6387,-2.6445,-2.668,0.0,0.0,0.0,0.0,-3.9373,0.0,-3.9373,-3.9373,-3.9373,0.0,-3.9373,0.0,0.0,0.0,0.0,0.0,0.0,0.0,0.0,0.0,0.0,0.0,-3.9373,-3.9373,-3.9373,-3.9373,-3.9373,-3.9373,-3.9373,-3.9373,-3.9373,-3.9373,-3.9373,-3.9373,-4.0696,-4.1422,-4.1422,-4.2671,-4.329,-4.329,-4.329,-4.329,-4.329,-4.329,-4.329,-4.329,-4.329,-4.323,-4.312,-4.262,-4.1931,-4.1115,-4.0457,-4.0217,-4.0307,-4.1085,-4.1422,-4.1564,-4.288,-4.2548,-4.142,-4.0275,-3.9094,-3.788,-3.6756,-3.6405,-3.6405,-3.6405,-3.6405,-3.6405,-3.6405,-3.6405,-3.6405,-3.6405,-3.6405,-3.6405,-3.6405,-3.6405,-3.6405,-3.6405,-3.6405,-3.638,-3.6254,-3.583,-3.5458,-3.5357,-3.4881,-3.455,-3.455,-3.4474,-3.4399,-3.4399,-3.4399,-3.4399,-3.4399,-3.4399,-3.4399,-3.4399,-3.4399,-3.4399,-3.4399,-3.2414,-3.1128,-3.0606,-2.8543,-2.7242,-2.6758,-2.6426,-2.6309,-2.6387,-2.6738,-2.7129,0.0,0.0,0.0,-3.9373,-3.9373,0.0,0.0,-3.9373,-3.9373,-3.9373,-3.9373,-3.9373,-3.9373,0.0,0.0,0.0,0.0,0.0,0.0,0.0,0.0,0.0,-3.9373,-3.9373,-3.9373,-3.9373,-3.9373,-3.9373,-3.9373,-3.9373,-3.9373,-3.9373,-3.9559,-3.9888,-4.0876,-4.1572,-4.1901,-4.2851,-4.329,-4.329,-4.329,-4.329,-4.329,-4.329,-4.329,-4.329,-4.329,-4.329,-4.326,-4.297,-4.2641,-4.2252,-4.1265,-4.0876,-4.0965,-4.1662,-4.1901,-4.2051,-4.2961,-4.2941,-4.2263,-4.1127,-3.9972,-3.8783,-3.7586,-3.6849,-3.6405,-3.6405,-3.6405,-3.6405,-3.6405,-3.6405,-3.6405,-3.6405,-3.6405,-3.6405,-3.6405,-3.6405,-3.6405,-3.6405,-3.6405,-3.6405,-3.6405,-3.6132,-3.5956,-3.5956,-3.5433,-3.5082,-3.5082,-3.4856,-3.468,-3.468,-3.468,-3.468,-3.468,-3.468,-3.468,-3.468,-3.468,-3.468,-3.468,-3.3465,-3.2183,-3.0923,-2.8992,-2.7683,-2.7012,-2.7031,-2.7031,-2.7031,-2.7246,-2.7559,0.0,0.0,0.0,0.0,0.0,-3.9373,0.0,0.0,0.0,-3.9373,-3.9373,0.0,0.0,0.0,0.0,0.0,0.0,0.0,0.0,0.0,0.0,-3.9373,-3.9373,-3.9373,-3.9373,-3.9373,-3.9373,-3.9373,-3.9373,-3.9373,-3.9373,-3.9373,-3.9738,-4.0367,-4.1025,-4.1722,-4.2381,-4.3,-4.329,-4.329,-4.329,-4.329,-4.329,-4.329,-4.329,-4.329,-4.329,-4.329,-4.329,-4.329,-4.329,-4.317,-4.2043,-4.1602,-4.1662,-4.2201,-4.241,-4.25,-4.312,-4.329,-4.313,-4.1988,-4.0703,-3.936,-3.8379,-3.7289,-3.6405,-3.6405,-3.6405,-3.6405,-3.6405,-3.6405,-3.6405,-3.6405,-3.6405,-3.6405,-3.6405,-3.6405,-3.6405,-3.6405,-3.6405,-3.6405,-3.6405,-3.6405,-3.6405,-3.6405,-3.5981,-3.5658,-3.5658,-3.5303,-3.5052,-3.5052,-3.5052,-3.5052,-3.5052,-3.5052,-3.5052,-3.5052,-3.5052,-3.5052,-3.5052,-3.4499,-3.3148,-3.0825,-2.9494,-2.833,-2.7266,-2.7617,-2.7806,-2.7728,-2.7806,-2.7969,0.0,0.0,0.0,0.0,-3.9858,-3.9373,-3.9373,0.0,-3.9373,-3.9373,0.0,0.0,0.0,0.0,0.0,0.0,0.0,0.0,-3.8601,-3.902,-3.9373,-3.9373,-3.9373,-3.9373,-3.9373,-3.9373,-3.9373,-3.9373,-3.9373,-3.9373,-3.9373,-3.9373,-3.9738,-4.0367,-4.1025,-4.1722,-4.2381,-4.3,-4.329,-4.329,-4.329,-4.329,-4.329,-4.329,-4.329,-4.329,-4.329,-4.329,-4.329,-4.329,-4.329,-4.323,-4.2521,-4.2291,-4.2291,-4.2381,-4.241,-4.25,-4.312,-4.329,-4.313,-4.1988,-4.0118,-3.8289,-3.8153,-3.7289,-3.6405,-3.6405,-3.6405,-3.6405,-3.6405,-3.6405,-3.6405,-3.6405,-3.6405,-3.6405,-3.6405,-3.6405,-3.6405,-3.6405,-3.6405,-3.6405,-3.6405,-3.6405,-3.6405,-3.6405,-3.6355,-3.6329,-3.6329,-3.6254,-3.6229,-3.6229,-3.6229,-3.6229,-3.6229,-3.6229,-3.6229,-3.6229,-3.6229,-3.6229,-3.6229,-3.3879,-3.1873,-3.0418,-2.9056,-2.8304,-2.8144,-2.8203,-2.8027,-2.7728,-2.8047,-2.8242,0.0,0.0,0.0,0.0,0.0,0.0,-4.0546,0.0,-3.9978,0.0,0.0,0.0,0.0,0.0,0.0,0.0,-3.923,0.0,0.0,0.0,-3.9373,0.0,0.0,0.0,-3.9373,-3.9373,-3.9373,-3.9373,-3.9373,-3.9373,-3.9373,-3.9373,-3.9888,-4.0935,-4.1235,-4.1893,-4.291,-4.314,-4.329,-4.329,-4.329,-4.329,-4.329,-4.329,-4.329,-4.329,-4.329,-4.329,-4.329,-4.329,-4.329,-4.326,-4.303,-4.291,-4.291,-4.291,-4.291,-4.297,-4.32,-4.329,-4.313,-4.1988,-4.0462,-3.9006,-3.8289,-3.7769,-3.7243,-3.6593,-3.6405,-3.6405,-3.6405,-3.6405,-3.6405,-3.6405,-3.6405,-3.6405,-3.6405,-3.6405,-3.6405,-3.6405,-3.6405,-3.6405,-3.6405,-3.6405,-3.6405,-3.6405,-3.6405,-3.6405,-3.6405,-3.6405,-3.6405,-3.6405,-3.6405,-3.6405,-3.6405,-3.6405,-3.6405,-3.6405,-3.6405,-3.6048,-3.5283,-3.4117,-3.2504,-3.0307,-2.9755,-2.9059,-2.8301,-2.8301,-2.8203,-2.8027,-2.8203,-2.8301,-4.1923,0.0,0.0,0.0,0.0,0.0,0.0,0.0,0.0,0.0,0.0,0.0,0.0,0.0,0.0,0.0,0.0,-3.9349,0.0,0.0,0.0,0.0,0.0,0.0,0.0,-3.9373,-3.9373,-3.9373,-3.9373,-3.9373,-3.9373,-3.9373,-4.0008,-4.1354,-4.1422,-4.2013,-4.329,-4.329,-4.329,-4.329,-4.329,-4.329,-4.329,-4.329,-4.329,-4.329,-4.329,-4.329,-4.329,-4.329,-4.329,-4.329,-4.329,-4.329,-4.329,-4.329,-4.329,-4.329,-4.329,-4.313,-4.267,-4.1864,-4.0618,-3.9227,-3.8379,-3.788,-3.7448,-3.6615,-3.6405,-3.6405,-3.6405,-3.6405,-3.6405,-3.6405,-3.6405,-3.6405,-3.6405,-3.6405,-3.6405,-3.6405,-3.6405,-3.6405,-3.6405,-3.6405,-3.6405,-3.6405,-3.6405,-3.6405,-3.6405,-3.6405,-3.6405,-3.6405,-3.6405,-3.6405,-3.6405,-3.6405,-3.6405,-3.6405,-3.6405,-3.5953,-3.4969,-3.4581,-3.3476,-3.144,-3.0669,-2.9807,-2.8847,-2.8495,-2.8301,-2.8301,-2.8301,-2.8301,0.0,0.0,0.0,-4.2381,0.0,0.0,0.0,0.0,-4.1392,0.0,0.0,0.0,0.0,0.0,0.0,0.0,0.0,0.0,0.0,0.0,0.0,0.0,0.0,0.0,0.0,-3.9373,-3.9373,-3.9373,-3.9373,-3.9373,-3.9373,-3.9373,-4.0008,-4.1354,-4.1422,-4.2013,-4.329,-4.329,-4.329,-4.329,-4.329,-4.329,-4.329,-4.329,-4.329,-4.329,-4.329,-4.329,-4.329,-4.329,-4.329,-4.329,-4.329,-4.329,-4.329,-4.329,-4.329,-4.329,-4.329,-4.2589,-4.1629,-4.1587,-4.0031,-3.8153,-3.8107,-3.7335,-3.6452,-3.6405,-3.6405,-3.6405,-3.6405,-3.6405,-3.6405,-3.6405,-3.6405,-3.6405,-3.6405,-3.6405,-3.6405,-3.6405,-3.6405,-3.6405,-3.6405,-3.6405,-3.6405,-3.6405,-3.6405,-3.6405,-3.6405,-3.6405,-3.6405,-3.6405,-3.6405,-3.6405,-3.6405,-3.6405,-3.6405,-3.6405,-3.6405,-3.6358,-3.6358,-3.5066,-3.4337,-3.4288,-3.1644,-3.0255,-3.0224,-2.8953,-2.8301,-2.8301,-2.8301,-2.8301,0.0,0.0,-4.3,-4.3,0.0,0.0,0.0,0.0,0.0,0.0,0.0,0.0,0.0,0.0,0.0,0.0,0.0,0.0,0.0,0.0,0.0,0.0,0.0,0.0,0.0,0.0,0.0,-3.9373,-3.9373,-3.9373,-3.9373,-3.9373,-4.0008,-4.1354,-4.1422,-4.2013,-4.329,-4.329,-4.329,-4.329,-4.329,-4.329,-4.329,-4.329,-4.329,-4.329,-4.329,-4.329,-4.329,-4.329,-4.329,-4.329,-4.329,-4.329,-4.329,-4.329,-4.329,-4.329,-4.329,-4.2548,-4.1587,-4.1587,-4.0547,-3.9139,-3.8334,-3.7861,-3.7381,-3.6615,-3.6405,-3.6405,-3.6405,-3.6405,-3.6405,-3.6405,-3.6405,-3.6405,-3.6405,-3.6405,-3.6405,-3.6405,-3.6405,-3.6405,-3.6405,-3.6405,-3.6405,-3.6405,-3.6405,-3.6405,-3.6405,-3.6405,-3.6405,-3.6405,-3.6405,-3.6405,-3.6405,-3.6405,-3.6405,-3.6405,-3.6405,-3.6001,-3.5114,-3.4629,-3.397,-3.3055,-3.2079,-3.1184,-3.0307,-2.9859,-2.9144,-2.8301,-2.8301,-2.8301,-4.329,-4.329,0.0,-4.329,-4.329,0.0,-4.329,0.0,-4.2701,0.0,0.0,0.0,0.0,0.0,0.0,0.0,0.0,0.0,0.0,-3.9373,0.0,0.0,0.0,0.0,0.0,-3.9373,-3.9373,-3.9373,-3.9373,-3.9373,-3.9373,-3.9649,-4.0277,-4.1392,-4.1662,-4.2252,-4.329,-4.329,-4.329,-4.329,-4.329,-4.329,-4.329,-4.329,-4.329,-4.329,-4.329,-4.329,-4.329,-4.329,-4.329,-4.329,-4.329,-4.329,-4.329,-4.329,-4.329,-4.329,-4.329,-4.2548,-4.1587,-4.1587,-4.0547,-3.9094,-3.8334,-3.7815,-3.7284,-3.6341,-3.6207,-3.6355,-3.6132,-3.6254,-3.6405,-3.6405,-3.6405,-3.6405,-3.6405,-3.6405,-3.6405,-3.6405,-3.6405,-3.6405,-3.6405,-3.6405,-3.6405,-3.6405,-3.6405,-3.6405,-3.6405,-3.6405,-3.6405,-3.6405,-3.6405,-3.6405,-3.6405,-3.6405,-3.6405,-3.6405,-3.6405,-3.6001,-3.5138,-3.5114,-3.4582,-3.3469,-3.2692,-3.1788,-3.0721,-2.9933,-2.9144,-2.8301,-2.8301,-2.8301]},{"header":{"parameterUnit":"m.s-1","parameterCategory":1,"la1":30.6,"la2":29.2853,"lo1":-89.7004,"lo2":-87.6739,"dy":0.0162,"dx":0.0183,"nx":112,"ny":82,"refTime":"2024-04-03T18:00:00:Z","depth":0,"parameterNumber":3,"parameterNumberName":"V-component_of_WINDS"},"data":[0.0,0.0,0.0,0.0,0.0,0.0,0.0,0.0,0.0,0.0,0.0,0.0,0.0,0.0,0.0,0.0,0.0,0.0,0.0,0.0,0.0,0.0,0.0,0.0,0.0,0.0,0.0,0.0,0.0,0.0,0.0,0.0,0.0,0.0,0.0,0.0,0.0,0.0,0.0,0.0,0.0,0.0,0.0,0.0,0.0,0.0,0.0,0.0,0.0,0.0,0.0,0.0,0.0,0.0,0.0,0.0,0.0,0.0,0.0,0.0,0.0,0.0,0.0,0.0,0.0,0.0,0.0,0.0,0.0,0.0,0.0,0.0,0.0,0.0,0.0,0.0,0.0,0.0,0.0,0.0,0.0,0.0,0.0,0.0,0.0,0.0,0.0,0.0,0.0,0.0,2.4604,2.4933,2.6046,2.705,2.7786,2.7072,2.6621,2.6621,0.0,0.0,0.0,0.0,0.0,0.0,0.0,0.0,0.0,0.0,0.0,0.0,0.0,0.0,0.0,0.0,0.0,0.0,0.0,0.0,0.0,0.0,0.0,0.0,0.0,0.0,0.0,0.0,0.0,0.0,0.0,0.0,0.0,0.0,0.0,0.0,0.0,0.0,0.0,0.0,0.0,0.0,0.0,0.0,0.0,0.0,0.0,0.0,0.0,0.0,0.0,0.0,0.0,0.0,0.0,0.0,0.0,0.0,0.0,0.0,0.0,0.0,0.0,0.0,0.0,0.0,0.0,0.0,0.0,0.0,0.0,0.0,0.0,0.0,0.0,0.0,0.0,0.0,0.0,0.0,0.0,0.0,0.0,0.0,0.0,0.0,0.0,0.0,0.0,0.0,0.0,0.0,0.0,0.0,0.0,0.0,0.0,0.0,0.0,0.0,0.0,0.0,0.0,0.0,2.4837,2.5725,2.6788,2.7517,2.7631,2.7017,2.6621,2.6621,0.0,0.0,0.0,0.0,0.0,0.0,0.0,0.0,0.0,0.0,0.0,0.0,0.0,0.0,0.0,0.0,0.0,0.0,0.0,0.0,0.0,0.0,0.0,0.0,0.0,0.0,0.0,0.0,0.0,0.0,0.0,0.0,0.0,0.0,0.0,0.0,0.0,0.0,0.0,0.0,0.0,0.0,0.0,0.0,0.0,0.0,0.0,0.0,0.0,0.0,0.0,0.0,0.0,0.0,0.0,0.0,0.0,0.0,0.0,0.0,0.0,0.0,0.0,0.0,0.0,0.0,0.0,0.0,0.0,0.0,0.0,0.0,0.0,0.0,0.0,0.0,0.0,0.0,0.0,0.0,0.0,0.0,0.0,0.0,0.0,0.0,0.0,0.0,0.0,0.0,0.0,0.0,0.0,0.0,0.0,0.0,0.0,0.0,0.0,0.0,0.0,0.0,0.0,2.5539,2.6151,2.7059,2.7828,2.8419,2.8876,2.8304,2.7967,2.7967,2.6736,0.0,0.0,0.0,0.0,0.0,0.0,0.0,0.0,0.0,0.0,0.0,0.0,0.0,0.0,0.0,0.0,0.0,0.0,0.0,0.0,0.0,0.0,0.0,0.0,0.0,0.0,0.0,0.0,0.0,0.0,0.0,0.0,0.0,0.0,0.0,0.0,0.0,0.0,0.0,0.0,0.0,0.0,0.0,0.0,0.0,0.0,0.0,0.0,0.0,0.0,0.0,0.0,0.0,0.0,0.0,0.0,0.0,0.0,0.0,0.0,0.0,0.0,0.0,0.0,0.0,0.0,0.0,0.0,0.0,0.0,0.0,0.0,0.0,0.0,0.0,0.0,0.0,0.0,0.0,0.0,0.0,0.0,0.0,0.0,0.0,0.0,0.0,0.0,0.0,0.0,0.0,0.0,0.0,0.0,0.0,0.0,0.0,0.0,0.0,0.0,0.0,0.0,2.6684,2.7429,2.8101,2.8688,2.9269,2.9923,2.9411,2.9048,2.9088,2.7736,0.0,0.0,0.0,0.0,0.0,0.0,0.0,0.0,0.0,0.0,0.0,0.0,0.0,0.0,0.0,0.0,0.0,0.0,0.0,0.0,0.0,0.0,0.0,0.0,0.0,0.0,0.0,0.0,0.0,0.0,0.0,0.0,0.0,0.0,0.0,0.0,0.0,0.0,0.0,0.0,0.0,0.0,0.0,0.0,0.0,0.0,0.0,0.0,0.0,0.0,0.0,0.0,0.0,0.0,0.0,0.0,0.0,0.0,0.0,0.0,0.0,0.0,0.0,0.0,0.0,0.0,0.0,0.0,0.0,0.0,0.0,0.0,0.0,0.0,0.0,0.0,0.0,0.0,0.0,0.0,0.0,0.0,0.0,0.0,0.0,0.0,0.0,0.0,0.0,0.0,0.0,0.0,0.0,0.0,0.0,0.0,0.0,0.0,0.0,0.0,0.0,0.0,2.7522,2.811,2.8344,2.912,2.9758,2.9984,2.9296,2.8881,2.9077,2.828,0.0,0.0,0.0,0.0,0.0,0.0,0.0,0.0,0.0,0.0,0.0,0.0,0.0,0.0,0.0,0.0,0.0,0.0,0.0,0.0,0.0,0.0,0.0,0.0,0.0,0.0,0.0,0.0,0.0,0.0,0.0,0.0,0.0,0.0,0.0,0.0,0.0,0.0,0.0,0.0,0.0,0.0,0.0,0.0,0.0,0.0,0.0,0.0,0.0,0.0,0.0,0.0,0.0,0.0,0.0,0.0,0.0,0.0,0.0,0.0,0.0,0.0,0.0,0.0,0.0,0.0,0.0,0.0,0.0,0.0,0.0,0.0,0.0,0.0,0.0,0.0,0.0,0.0,0.0,0.0,0.0,0.0,0.0,0.0,0.0,0.0,0.0,0.0,0.0,0.0,0.0,0.0,0.0,0.0,0.0,0.0,0.0,0.0,0.0,0.0,0.0,0.0,2.816,2.8682,0.0,2.921,2.9598,2.9796,2.9665,2.967,2.9917,0.0,0.0,0.0,0.0,0.0,0.0,0.0,0.0,0.0,0.0,0.0,0.0,0.0,0.0,0.0,0.0,0.0,0.0,0.0,0.0,0.0,0.0,0.0,0.0,0.0,0.0,0.0,0.0,0.0,0.0,0.0,0.0,0.0,0.0,0.0,0.0,0.0,0.0,0.0,0.0,0.0,0.0,0.0,0.0,0.0,0.0,0.0,0.0,0.0,0.0,0.0,0.0,0.0,0.0,0.0,0.0,0.0,0.0,0.0,0.0,0.0,0.0,0.0,0.0,0.0,0.0,0.0,0.0,0.0,0.0,0.0,0.0,0.0,0.0,0.0,0.0,0.0,0.0,0.0,0.0,0.0,0.0,0.0,0.0,0.0,0.0,0.0,0.0,0.0,0.0,0.0,0.0,0.0,0.0,0.0,0.0,0.0,0.0,0.0,0.0,0.0,0.0,2.8154,2.8656,2.8987,0.0,2.9167,2.9363,2.9589,2.9788,2.9991,3.0254,0.0,0.0,0.0,0.0,0.0,0.0,0.0,0.0,0.0,0.0,0.0,0.0,0.0,0.0,0.0,0.0,0.0,0.0,0.0,0.0,0.0,0.0,0.0,0.0,0.0,0.0,0.0,0.0,0.0,0.0,0.0,0.0,0.0,0.0,0.0,0.0,0.0,0.0,0.0,0.0,0.0,0.0,0.0,0.0,0.0,0.0,0.0,0.0,0.0,0.0,0.0,0.0,0.0,0.0,0.0,0.0,0.0,0.0,0.0,0.0,0.0,0.0,0.0,0.0,0.0,0.0,0.0,0.0,0.0,0.0,0.0,0.0,0.0,0.0,0.0,0.0,0.0,0.0,0.0,0.0,0.0,0.0,0.0,0.0,0.0,0.0,0.0,0.0,0.0,0.0,0.0,0.0,0.0,0.0,0.0,0.0,0.0,0.0,0.0,0.0,0.0,0.0,2.8913,2.8987,2.8987,2.8987,2.8987,2.9112,2.9363,2.9579,2.978,0.0,0.0,0.0,0.0,0.0,0.0,0.0,0.0,0.0,0.0,0.0,0.0,0.0,0.0,0.0,0.0,0.0,0.0,0.0,0.0,0.0,0.0,0.0,0.0,0.0,0.0,0.0,0.0,0.0,0.0,0.0,0.0,0.0,0.0,0.0,0.0,0.0,0.0,0.0,0.0,0.0,0.0,0.0,0.0,0.0,0.0,0.0,0.0,0.0,0.0,0.0,0.0,0.0,0.0,0.0,0.0,0.0,0.0,0.0,0.0,0.0,0.0,0.0,0.0,0.0,0.0,0.0,0.0,0.0,0.0,0.0,0.0,0.0,0.0,0.0,0.0,0.0,0.0,0.0,0.0,0.0,0.0,0.0,0.0,0.0,0.0,0.0,0.0,0.0,0.0,0.0,0.0,0.0,0.0,0.0,0.0,0.0,0.0,0.0,0.0,0.0,0.0,0.0,2.8987,2.8987,2.8987,2.8987,2.8987,2.9112,2.9363,2.9454,2.9644,2.9984,0.0,0.0,0.0,0.0,0.0,0.0,0.0,0.0,0.0,0.0,0.0,0.0,0.0,0.0,0.0,0.0,0.0,0.0,0.0,0.0,0.0,0.0,0.0,0.0,0.0,0.0,0.0,0.0,0.0,0.0,0.0,0.0,0.0,0.0,0.0,0.0,0.0,0.0,0.0,0.0,0.0,0.0,0.0,0.0,0.0,0.0,0.0,0.0,0.0,0.0,0.0,0.0,0.0,0.0,0.0,0.0,0.0,0.0,0.0,0.0,0.0,0.0,0.0,0.0,0.0,0.0,0.0,0.0,0.0,0.0,0.0,0.0,0.0,0.0,0.0,0.0,0.0,0.0,0.0,0.0,0.0,0.0,0.0,0.0,0.0,0.0,0.0,0.0,0.0,0.0,0.0,0.0,0.0,0.0,0.0,0.0,0.0,0.0,0.0,0.0,0.0,0.0,2.8987,2.8987,2.8987,2.8987,2.8987,2.9055,2.9243,2.9322,2.9485,2.9738,0.0,0.0,0.0,0.0,0.0,0.0,0.0,0.0,0.0,0.0,0.0,0.0,0.0,0.0,0.0,0.0,0.0,0.0,0.0,0.0,0.0,0.0,0.0,0.0,0.0,0.0,0.0,0.0,0.0,0.0,0.0,0.0,0.0,0.0,0.0,0.0,0.0,0.0,0.0,0.0,0.0,0.0,0.0,0.0,0.0,0.0,0.0,0.0,0.0,0.0,0.0,0.0,0.0,0.0,0.0,0.0,0.0,0.0,0.0,0.0,0.0,0.0,0.0,0.0,0.0,0.0,0.0,0.0,0.0,0.0,0.0,0.0,0.0,0.0,0.0,0.0,0.0,0.0,0.0,0.0,0.0,0.0,0.0,0.0,0.0,0.0,0.0,0.0,0.0,0.0,0.0,0.0,0.0,0.0,0.0,0.0,0.0,0.0,0.0,0.0,0.0,0.0,2.8987,2.8987,2.9023,2.9097,2.9023,2.9023,2.9097,2.9269,2.9353,2.9384,0.0,0.0,0.0,0.0,0.0,0.0,0.0,0.0,0.0,0.0,0.0,0.0,0.0,0.0,0.0,0.0,0.0,0.0,0.0,0.0,0.0,0.0,0.0,0.0,0.0,0.0,0.0,0.0,0.0,0.0,0.0,0.0,0.0,0.0,0.0,0.0,0.0,0.0,0.0,0.0,0.0,0.0,0.0,0.0,0.0,0.0,0.0,0.0,0.0,0.0,0.0,0.0,0.0,0.0,0.0,0.0,0.0,0.0,0.0,0.0,2.382,0.0,0.0,0.0,0.0,0.0,0.0,0.0,0.0,0.0,0.0,0.0,0.0,0.0,0.0,0.0,0.0,0.0,0.0,0.0,0.0,0.0,0.0,0.0,0.0,0.0,0.0,0.0,0.0,0.0,0.0,0.0,0.0,0.0,0.0,0.0,0.0,0.0,0.0,0.0,0.0,0.0,2.8987,2.8987,2.9244,2.9879,2.939,2.9244,2.9867,2.9412,2.9178,2.9373,2.9493,0.0,0.0,0.0,0.0,0.0,0.0,0.0,0.0,0.0,0.0,0.0,0.0,0.0,0.0,0.0,0.0,0.0,0.0,0.0,0.0,0.0,0.0,0.0,0.0,0.0,0.0,0.0,0.0,0.0,0.0,0.0,0.0,0.0,0.0,0.0,0.0,0.0,0.0,0.0,0.0,0.0,0.0,0.0,0.0,0.0,0.0,0.0,0.0,0.0,0.0,0.0,0.0,0.0,0.0,0.0,0.0,0.0,0.0,0.0,0.0,2.4143,0.0,0.0,0.0,0.0,0.0,0.0,0.0,0.0,0.0,0.0,0.0,0.0,0.0,0.0,0.0,0.0,0.0,0.0,0.0,0.0,0.0,0.0,0.0,0.0,0.0,0.0,0.0,0.0,0.0,0.0,0.0,0.0,0.0,0.0,0.0,0.0,0.0,0.0,0.0,0.0,2.9283,2.9783,3.032,3.0723,3.0393,3.032,3.0723,3.0393,3.0048,2.9802,2.9906,0.0,0.0,0.0,0.0,0.0,0.0,0.0,0.0,0.0,0.0,0.0,0.0,0.0,0.0,0.0,0.0,0.0,0.0,0.0,0.0,0.0,0.0,0.0,0.0,0.0,0.0,0.0,0.0,0.0,0.0,0.0,0.0,0.0,0.0,0.0,0.0,0.0,0.0,0.0,0.0,0.0,0.0,0.0,0.0,0.0,0.0,0.0,0.0,0.0,0.0,0.0,0.0,0.0,2.6123,2.6183,2.6303,2.6303,2.6243,2.6141,2.647,2.5778,2.4358,2.4358,0.0,0.0,0.0,0.0,0.0,0.0,0.0,0.0,0.0,0.0,0.0,0.0,0.0,0.0,0.0,0.0,0.0,0.0,0.0,0.0,0.0,0.0,0.0,0.0,2.6874,2.6758,2.6185,0.0,0.0,0.0,0.0,0.0,0.0,0.0,0.0,0.0,0.0,0.0,2.9678,3.0651,3.1333,3.1479,3.1433,3.147,3.1617,3.147,3.1127,3.0467,3.0627,3.0411,0.0,0.0,0.0,0.0,0.0,0.0,0.0,0.0,0.0,0.0,0.0,0.0,0.0,0.0,0.0,0.0,0.0,0.0,0.0,0.0,0.0,0.0,0.0,0.0,0.0,0.0,0.0,0.0,0.0,0.0,0.0,0.0,2.7585,2.7585,0.0,0.0,0.0,0.0,0.0,0.0,0.0,0.0,0.0,0.0,0.0,0.0,0.0,2.7615,2.8218,2.7645,2.7645,2.8218,2.8218,2.8517,2.9082,2.9082,2.8757,2.8218,2.8252,0.0,2.5402,2.5402,0.0,0.0,0.0,0.0,0.0,0.0,0.0,0.0,0.0,0.0,0.0,0.0,0.0,0.0,0.0,0.0,0.0,0.0,0.0,0.0,0.0,0.0,2.6992,2.7109,2.7525,2.7896,0.0,2.7119,2.6606,2.6741,2.7584,0.0,0.0,0.0,0.0,0.0,0.0,0.0,3.0021,3.0535,3.1151,3.1852,3.1608,3.1678,3.2362,3.1788,3.136,3.125,3.1287,3.105,3.049,3.0489,0.0,0.0,0.0,0.0,0.0,0.0,0.0,0.0,0.0,0.0,0.0,0.0,0.0,0.0,0.0,0.0,0.0,0.0,0.0,0.0,0.0,0.0,0.0,0.0,0.0,0.0,0.0,0.0,0.0,2.7326,2.6939,2.7254,2.6997,2.6824,0.0,0.0,0.0,0.0,0.0,0.0,0.0,0.0,0.0,2.7683,2.7398,2.7569,2.8139,2.7855,2.8025,2.868,2.868,2.8822,2.9108,2.9108,2.9231,2.9405,2.9054,2.8687,2.8248,2.6782,2.6153,2.6147,0.0,0.0,0.0,0.0,2.4983,2.4449,2.4449,2.4449,2.4449,2.4449,0.0,0.0,0.0,0.0,0.0,0.0,0.0,0.0,0.0,0.0,2.7201,2.7201,2.7676,2.8096,2.8096,2.8052,2.7994,0.0,2.8406,2.875,2.875,0.0,0.0,0.0,0.0,3.0432,3.0432,3.1209,3.1887,3.2259,3.235,3.2556,3.292,3.282,3.2559,3.2118,3.2082,3.1777,3.1073,3.1195,3.0978,0.0,0.0,0.0,0.0,0.0,0.0,0.0,0.0,0.0,0.0,0.0,0.0,0.0,0.0,0.0,0.0,0.0,0.0,0.0,0.0,0.0,0.0,0.0,0.0,0.0,0.0,0.0,0.0,2.7054,2.6565,2.6948,2.6648,2.64,0.0,0.0,0.0,0.0,0.0,0.0,2.6921,2.7267,2.7522,2.769,2.769,2.7961,2.8533,2.8533,2.8748,2.9214,2.9214,2.9214,2.9214,2.9214,2.9568,3.0205,2.9721,3.0038,3.0716,2.8349,2.7375,2.732,2.6811,2.6512,2.6363,2.6363,2.6273,2.6123,2.6123,2.6123,2.6123,2.6123,2.6123,2.6123,2.6123,0.0,0.0,0.0,0.0,2.7095,2.7663,2.7816,2.7816,2.7816,2.8273,2.8746,2.8934,2.9437,2.97,0.0,2.9145,2.9281,2.9281,0.0,0.0,0.0,0.0,3.0816,3.0816,3.169,3.2315,3.2315,3.2858,3.3181,3.3181,3.3564,3.355,3.2949,3.2913,3.2559,3.1751,3.1898,3.1641,3.09,0.0,0.0,0.0,0.0,0.0,0.0,0.0,0.0,0.0,0.0,0.0,0.0,0.0,0.0,0.0,0.0,0.0,0.0,0.0,0.0,0.0,0.0,0.0,0.0,0.0,0.0,0.0,0.0,0.0,2.7003,2.6976,0.0,0.0,0.0,0.0,2.5915,2.6406,2.6722,2.6722,2.7926,2.8912,2.9553,2.9553,2.9855,3.0458,3.0458,3.0486,3.0513,3.0513,3.0513,3.0513,3.0513,3.0547,3.0581,3.0553,3.1091,3.1919,3.0183,2.9442,2.9442,2.9412,2.8996,2.8457,2.8457,2.8064,2.7495,2.7495,2.7495,2.7495,2.7495,2.7495,2.7495,2.7495,2.7495,0.0,0.0,2.8535,2.8629,2.9312,2.9492,2.9492,2.9492,2.9933,3.0535,3.119,3.1811,3.1593,0.0,2.9567,3.004,3.004,0.0,3.1089,3.1089,3.1162,3.1162,3.1162,3.1567,3.1826,3.1826,3.2647,3.3181,3.3181,3.3564,3.377,3.3733,3.3733,3.3366,3.2583,3.2559,3.2305,3.1756,3.173,0.0,0.0,0.0,0.0,0.0,0.0,0.0,0.0,0.0,0.0,0.0,0.0,0.0,0.0,0.0,0.0,0.0,0.0,0.0,0.0,0.0,0.0,0.0,0.0,0.0,0.0,0.0,0.0,2.7115,2.6907,0.0,2.7133,2.725,2.7156,2.6833,2.7283,2.7615,2.7615,2.8074,2.8394,2.8672,2.8672,2.8957,2.9492,2.9492,2.9699,3.0062,3.0062,3.0062,3.0062,3.0062,3.0404,3.0967,3.0521,3.0895,3.1702,3.0668,3.0738,3.142,3.1001,3.0432,2.9834,2.9834,2.9415,2.8903,2.8903,2.8903,2.8903,2.8903,2.8903,2.8903,2.8903,2.8903,2.8933,2.9202,2.9235,2.9295,2.9562,2.9621,2.9621,2.9621,3.0068,3.0582,3.0804,3.1317,3.1505,3.0705,3.1432,3.2239,3.2239,3.2442,3.2611,3.2611,3.2611,3.2611,3.2611,3.274,3.2841,3.2841,3.2993,3.3072,3.3072,3.3286,3.3422,3.3422,3.3648,3.366,3.3366,3.3366,3.3051,3.2318,3.2318,3.2055,0.0,0.0,0.0,0.0,0.0,0.0,0.0,0.0,0.0,0.0,0.0,0.0,0.0,0.0,0.0,0.0,0.0,0.0,0.0,0.0,0.0,0.0,0.0,0.0,0.0,0.0,2.6515,2.7444,2.7278,2.7203,2.7519,2.7896,2.7946,2.7595,2.8072,2.8373,2.8373,2.8574,2.8674,2.8674,2.8674,2.885,2.9227,2.9189,2.9402,2.9804,2.9804,2.9804,2.9804,2.9804,3.0139,3.0707,3.0269,3.0613,3.1458,3.098,3.1489,3.2433,3.1558,3.0917,3.0569,3.0896,3.0778,3.0481,3.0796,3.0939,3.0939,3.0939,3.0939,3.0939,3.0939,3.0939,3.0939,3.0939,3.0939,3.0939,3.0939,3.0939,3.0939,3.0939,3.1215,3.1569,3.1813,3.218,3.2513,3.2774,3.276,3.2796,3.3014,3.3069,3.3156,3.3381,3.3423,3.3423,3.3423,3.3423,3.3423,3.3423,3.3382,3.3382,3.3382,3.358,3.3582,3.3347,3.3712,3.3856,3.3629,3.3739,3.355,3.3023,3.2729,3.2427,3.2055,0.0,0.0,0.0,0.0,0.0,0.0,0.0,0.0,0.0,0.0,0.0,0.0,0.0,0.0,0.0,0.0,0.0,0.0,0.0,0.0,0.0,0.0,0.0,2.7293,2.7293,2.7519,2.8072,2.8122,2.8147,2.8147,2.8147,2.8147,2.8147,2.8612,2.8913,2.8913,2.9478,2.9804,2.9804,2.9804,2.9804,2.9804,2.9804,2.9804,2.9804,2.9804,2.9804,2.9804,2.9804,2.9804,2.9804,2.9804,3.0305,3.1156,3.1156,3.1683,3.2376,3.1151,3.065,3.0758,3.1748,3.2105,3.2237,3.3146,3.3484,3.3484,3.3484,3.3484,3.3484,3.3484,3.3484,3.3484,3.3484,3.3484,3.3484,3.3484,3.3484,3.3484,3.3484,3.3484,3.3668,3.4323,3.4467,3.467,3.5379,3.3322,3.1686,3.24,3.2537,3.2762,3.3351,3.3491,0.0,3.3491,3.3491,3.3491,3.3491,3.3856,3.412,3.412,3.4455,3.4394,3.367,3.4038,3.4006,3.3274,3.3601,3.3793,3.3807,3.3036,3.2619,3.2619,0.0,0.0,0.0,0.0,0.0,0.0,0.0,0.0,0.0,0.0,0.0,0.0,0.0,0.0,0.0,0.0,0.0,0.0,0.0,0.0,0.0,2.7871,2.7871,2.7871,2.7871,2.8072,2.8612,2.8662,2.8875,2.9277,2.9327,2.9327,2.9327,2.9478,2.9553,2.9553,2.9704,2.9804,2.9804,2.9804,2.9804,2.9804,2.9804,2.9804,2.9804,2.9804,2.9804,2.9804,2.9804,2.9804,2.9804,2.9804,2.9934,3.0177,3.0177,3.0368,3.067,3.1658,3.1778,3.1358,3.1632,3.1891,3.2141,3.2425,3.2928,3.3484,3.3484,3.3484,3.3484,3.3484,3.3484,3.3484,3.3484,3.3484,3.3484,3.3484,3.3484,3.3484,3.3484,3.3484,3.3546,3.3728,3.3759,3.3819,3.4059,3.345,3.3287,3.452,3.5214,3.5441,3.507,3.4991,0.0,3.4991,3.4991,3.4991,3.4991,3.4635,3.438,3.438,3.4303,3.4159,3.397,3.4376,3.4497,3.4284,3.4211,3.4047,3.3807,3.3587,3.3476,0.0,0.0,0.0,0.0,0.0,0.0,0.0,0.0,0.0,0.0,0.0,0.0,0.0,0.0,0.0,0.0,0.0,0.0,0.0,0.0,0.0,0.0,2.8448,2.8524,2.8775,2.8599,2.8612,2.9227,2.9503,2.9779,3.0105,3.0331,3.0457,3.0457,3.0457,3.0457,3.0457,3.0457,3.0457,3.0457,3.0457,3.0457,3.0457,3.0457,3.0457,3.0457,3.0457,3.0457,3.0457,3.0457,3.0357,3.0131,3.0131,3.0005,2.9804,2.9804,2.9804,0.0,0.0,0.0,0.0,0.0,3.1778,3.2387,3.2753,3.3242,3.3787,3.4196,3.4352,3.4352,3.4352,3.4352,3.4352,3.4352,3.4352,3.4352,3.4352,3.4352,3.4352,3.4352,3.4352,3.4352,3.4352,3.4352,3.4352,3.4352,3.4573,0.0,3.5482,3.598,3.6388,3.6544,3.6299,3.6096,3.6096,3.5825,3.56,3.56,3.5194,3.4979,3.4979,3.4798,0.0,0.0,0.0,3.4863,3.4712,3.4549,0.0,0.0,0.0,3.4104,3.4307,0.0,0.0,0.0,3.2412,3.2412,0.0,0.0,0.0,0.0,0.0,0.0,0.0,0.0,0.0,0.0,0.0,0.0,0.0,0.0,0.0,0.0,2.9038,2.9302,2.9804,2.9503,2.9377,2.9829,3.0357,3.0708,3.0708,3.111,3.1386,3.1386,3.1386,3.1386,3.1386,0.0,0.0,0.0,0.0,3.1386,3.1386,3.1386,3.1386,3.1386,3.1386,3.1386,3.1386,3.1386,3.1135,3.0708,3.0708,3.0432,2.998,2.998,2.993,2.988,2.9804,2.9804,2.9895,3.0733,3.1646,3.2558,3.3394,0.0,0.0,3.5034,3.5392,3.5519,3.5519,3.5519,3.5519,3.5519,3.5519,3.5519,3.5519,3.5519,3.5519,3.5519,3.5519,3.5519,3.5519,3.5519,3.5519,3.5519,3.6038,3.6292,3.5704,3.5808,3.6344,3.7599,3.7266,3.6931,3.6931,3.6299,3.5836,3.5735,0.0,0.0,3.56,3.56,3.5295,3.4675,3.5,3.5089,3.4763,3.4781,3.4942,3.5398,3.4699,3.4548,3.4972,3.4256,3.3918,3.3996,3.3853,3.3807,0.0,0.0,0.0,0.0,0.0,0.0,0.0,0.0,0.0,0.0,0.0,0.0,0.0,0.0,0.0,2.9528,3.0005,3.0331,3.0432,3.0708,3.0809,3.0482,3.0909,3.1235,3.1235,3.1336,3.1386,3.1386,3.1386,3.1386,3.1386,3.1386,3.1386,3.1386,3.1386,3.1386,3.1386,3.1386,3.1386,3.1386,0.0,0.0,3.1386,3.1386,3.1336,3.1235,3.1235,3.1185,3.1085,3.1085,3.0834,3.0407,2.9955,2.9804,2.9818,3.0011,3.0658,3.1499,3.1683,3.2735,3.4013,3.4245,3.4839,3.5519,3.5519,3.5519,0.0,3.5519,3.5519,3.5519,3.5519,3.5519,3.5519,3.5519,3.5519,3.5519,3.5519,3.5519,3.5519,3.5519,3.5619,3.5849,3.6292,3.6933,3.7269,3.6967,3.7358,3.7686,3.7686,3.755,3.7246,3.6626,3.6592,3.6299,3.5667,3.56,3.5532,3.5397,3.5474,3.5382,3.5124,3.5109,3.5028,3.4854,3.4712,3.4693,3.4744,3.4601,3.4767,3.5137,3.4241,3.3807,0.0,0.0,0.0,0.0,0.0,0.0,0.0,0.0,0.0,0.0,0.0,2.9026,2.9302,0.0,2.9553,3.0105,3.0432,3.0708,3.0959,3.1461,3.1612,3.106,3.1461,3.1813,3.1813,3.2064,3.224,3.224,3.224,3.224,3.224,3.224,3.224,3.224,3.224,3.224,3.224,3.224,3.224,3.224,3.224,3.224,3.224,3.224,3.2089,3.1813,3.1813,3.1637,3.1386,3.1386,3.1235,3.0984,3.0708,3.0256,2.9804,2.9804,3.0101,3.0545,3.1044,3.1829,3.2735,3.3705,3.4346,3.4839,3.5359,3.5519,3.5519,3.5519,3.5519,3.5519,3.5519,3.5519,3.5519,3.5519,3.5519,3.5519,3.5519,3.5519,3.5519,3.5519,3.5519,3.5619,3.5975,3.6682,3.7203,3.7242,3.7583,3.7845,3.7845,3.7874,3.7753,3.7381,3.7032,3.666,3.6231,3.5836,3.56,3.56,3.56,3.5564,3.5416,3.5382,3.5449,3.5553,3.5168,3.5072,3.5295,3.4906,3.4854,3.5096,3.4523,3.454,0.0,0.0,0.0,0.0,0.0,0.0,0.0,0.0,2.9189,2.9704,2.9804,2.9829,2.993,2.9955,3.0131,3.0683,3.0859,3.106,3.1486,3.2039,3.2215,3.1763,3.2114,3.2365,3.2365,3.2792,3.3111,3.3111,3.3111,3.3111,3.3111,3.3111,3.3111,3.3111,3.3111,3.3111,3.3111,3.3111,3.3111,3.3111,3.3111,3.3111,3.3111,3.3111,3.2817,3.2365,3.2365,3.2139,3.1712,3.1587,3.1537,3.1537,3.1436,3.0859,3.008,2.998,2.9955,3.0046,3.071,3.1044,3.1499,3.3157,3.3842,3.4211,3.5198,3.5519,3.5519,3.5519,3.5519,3.5519,3.5519,3.5519,3.5519,3.5519,3.5519,3.5519,3.5519,3.5519,3.5519,3.5519,3.5519,3.5519,3.5519,3.6006,3.6661,3.744,3.7815,3.7998,3.7998,3.8187,3.8261,3.8125,3.7584,3.7168,3.7032,3.6299,3.5836,3.5836,3.5667,3.56,3.56,3.56,3.5788,3.6228,3.5621,3.548,3.5824,3.5174,3.4931,3.5043,3.5043,3.5383,2.9603,2.9603,2.9603,2.9603,2.9603,2.9628,0.0,0.0,2.9704,2.9779,2.9804,2.9955,3.0432,3.0532,3.0708,3.121,3.1712,3.2064,3.2114,3.2616,3.3011,3.2893,3.2943,3.2993,3.2993,3.3043,3.3111,3.3111,3.3111,3.3111,3.3111,3.3111,3.3111,3.3111,3.3111,3.3111,3.3111,3.3111,3.3111,3.3111,3.3111,3.3111,3.3111,3.3111,3.3043,3.2993,3.2993,3.2943,3.2842,3.234,3.2114,3.2064,3.1587,3.1311,3.116,3.0708,3.0532,3.0457,3.011,3.0495,3.1352,3.2415,3.3325,3.4211,3.5198,3.5519,3.5519,3.5519,3.5519,3.5519,3.5519,3.5519,3.5519,3.5519,3.5519,3.5519,3.5519,3.5519,3.5519,3.5519,3.5519,3.5519,3.5519,3.5554,3.5878,3.6631,3.7894,3.8776,3.8776,3.941,3.9605,3.8937,3.8802,3.8497,3.7821,3.7077,3.666,3.666,3.5994,3.56,3.56,3.56,3.5644,3.5711,3.5587,3.5576,3.5608,3.554,3.5733,3.62,3.62,3.5712,2.9804,2.9804,2.9804,2.9804,2.9804,2.9804,2.9804,2.9804,2.9804,2.9804,3.0055,3.0331,3.0583,3.0859,3.1235,0.0,3.2064,3.234,3.2667,3.2918,3.3111,3.3111,3.3111,3.3111,3.3111,3.3111,3.3111,3.3111,3.3111,3.3111,3.3111,3.3111,3.3111,3.3111,3.3111,3.3111,3.3111,3.3111,3.3111,3.3111,3.3111,3.3111,3.3111,3.3111,3.3111,3.3111,3.3111,3.3111,3.3068,3.2817,3.2717,3.2692,3.2466,3.2365,3.2265,3.1386,3.106,3.1035,3.0809,3.0759,3.1023,3.1931,3.2681,3.3394,3.4312,3.5034,3.5519,3.5519,3.5519,3.5519,3.5519,3.5519,3.5519,3.5519,3.5519,3.5519,3.5519,3.5519,3.5519,3.5519,3.5519,3.5519,3.5519,3.5519,3.5619,3.5911,3.6873,3.7729,3.8189,3.8941,3.9317,3.9048,3.9005,3.87,3.7956,3.7618,3.7449,3.7449,3.7144,3.6772,3.6332,3.6299,3.6096,3.56,3.56,3.56,3.56,3.56,3.5734,3.5941,3.5941,3.5673,2.9804,2.9804,2.9804,2.9804,2.9804,2.9804,2.9804,2.9804,2.9804,2.9804,3.0231,3.0658,3.0809,3.126,3.1813,3.2365,3.2466,3.2591,3.3061,3.3111,3.3111,3.3111,3.3111,3.3111,3.3111,3.3111,3.3111,3.3111,3.3111,3.3111,3.3111,3.3111,3.3111,3.3111,3.3111,3.3111,3.3111,3.3111,3.3111,3.3111,3.3111,3.3111,3.3111,3.3111,3.3111,3.3111,3.3111,3.3111,3.3111,3.3111,3.3111,3.3111,3.3111,3.3111,3.3011,3.2164,3.1738,3.1587,3.1436,3.1135,3.1008,3.2237,3.2715,3.3056,3.4301,3.5053,3.5519,3.5519,3.5519,3.5519,3.5519,3.5519,3.5519,3.5519,3.5519,3.5519,3.5519,3.5519,3.5519,3.5519,3.5519,3.5519,3.5519,3.5519,3.5519,3.5519,3.5943,3.6569,3.7352,3.8302,3.901,3.9269,3.9276,3.9073,3.8565,3.8328,3.8193,3.8193,3.8024,3.7652,3.7134,3.71,3.684,3.6242,3.6005,3.5926,3.5926,3.5701,3.56,3.56,3.56,3.56,2.9804,2.9804,2.9804,2.9804,2.9804,2.9804,2.9804,2.9804,2.9804,2.9804,3.0231,3.0758,3.126,3.1813,3.2365,3.2943,3.3043,3.3068,3.3111,3.3111,3.3111,3.3111,3.3111,3.3111,0.0,3.3111,3.3111,3.3111,3.3111,3.3111,3.3111,3.3111,3.3111,3.3111,3.3111,3.3111,3.3111,3.3111,3.3111,3.3111,3.3111,3.3111,3.3111,3.3111,3.3111,3.3111,3.3111,3.3111,3.3111,3.3111,3.3111,3.3111,3.3111,3.3111,3.3111,3.3086,3.2667,3.2114,3.1587,3.1386,3.1701,3.3707,3.39,3.3768,3.5815,3.5965,3.5519,3.5519,3.5519,3.5519,3.5519,3.5519,3.5519,3.5519,3.5519,3.5519,3.5519,3.5519,3.5519,3.5519,3.5519,3.5519,3.5519,3.5519,3.5519,3.5519,3.5522,3.5814,3.6538,3.7958,3.9209,3.9969,4.0079,4.0079,4.0045,3.9377,3.8971,3.8971,3.8294,3.7889,3.7889,3.7889,3.7855,3.7855,3.7134,3.6761,3.6761,3.5994,3.56,3.56,3.56,3.56,2.9804,2.9804,2.9804,2.9804,2.9804,2.9804,2.9804,2.9804,2.9804,2.9804,3.0507,3.1185,3.1361,3.2164,3.2842,3.3086,3.3111,3.3111,3.3111,3.3111,3.3111,3.3111,3.3111,0.0,0.0,0.0,0.0,3.3111,3.3111,3.3111,3.3111,3.3111,3.3111,3.3111,3.3111,3.3111,3.3111,3.3111,3.3111,3.3111,3.3111,3.3111,3.3111,3.3111,3.3111,3.3111,3.3111,3.3111,3.3111,3.3111,3.3111,3.3111,3.3111,3.3111,3.3111,3.3111,3.2943,3.2767,3.2566,3.2265,3.2162,3.3542,3.4011,3.4335,3.5739,3.6187,3.6148,3.6148,3.5848,3.5519,3.5519,3.5519,3.5519,3.5519,3.5519,3.5519,3.5519,3.5519,3.5519,3.5519,3.5519,3.5519,3.5519,3.5519,3.5519,3.5519,3.5911,3.6322,3.6569,3.7958,3.8989,3.9289,3.9765,4.0113,4.0113,3.9876,3.974,3.974,3.9503,3.914,3.8633,3.8633,3.8396,3.7922,3.7652,3.7516,3.7516,3.728,3.7144,3.7144,3.7144,3.7144,2.9804,2.993,3.008,3.008,3.008,3.008,3.008,2.993,2.9804,2.9804,3.0507,3.116,3.1361,3.2139,3.2842,3.3043,3.3111,3.3111,3.3111,3.3111,3.3111,3.3111,3.3111,3.3111,0.0,0.0,0.0,3.3111,3.3111,3.3169,3.337,3.337,3.347,3.3671,3.3671,3.3671,3.3671,3.3671,3.3571,3.337,3.3212,3.3111,3.3111,3.3111,3.3111,3.3111,3.3111,3.3111,3.3111,3.3111,3.3111,3.3111,3.3111,3.3111,3.3111,3.3111,3.3111,3.3111,3.3111,3.2842,3.2727,3.377,3.4389,3.4937,3.5976,3.6529,3.6806,3.6806,3.6357,3.5848,3.5848,3.5669,3.5519,3.5519,3.5519,3.5519,3.5519,3.5519,3.5519,3.5519,3.5519,3.5519,3.5519,3.5519,3.5519,3.5519,3.5879,3.6291,3.6569,3.7467,3.827,3.8854,3.9368,3.9799,4.0087,4.0113,4.0113,4.0113,4.0113,3.991,3.9411,3.9402,3.9174,3.87,3.843,3.8294,3.8294,3.8024,3.7922,3.7922,3.7922,3.7922,2.9829,3.0206,3.0633,3.0658,3.0633,3.0608,3.0608,3.0181,2.9804,2.9804,3.0231,3.0758,0.0,0.0,3.239,3.2943,3.3068,3.3111,3.3111,3.3111,3.3111,0.0,0.0,0.0,0.0,0.0,0.0,3.3162,0.0,3.337,3.3922,3.3947,3.4173,3.4655,3.468,3.468,3.468,3.468,3.4449,3.3922,3.342,3.3169,3.3169,3.3144,3.3162,3.3162,3.3136,3.3111,3.3111,3.3111,3.3111,3.3111,3.3111,3.3111,3.3111,3.3111,3.3111,3.3111,3.3111,3.3111,3.3283,3.4345,3.5009,3.5537,3.6559,3.7139,3.7464,3.7464,3.7015,3.6537,3.6507,3.6028,3.5549,3.5519,3.5519,3.5519,3.5519,3.5519,3.5519,3.5519,3.5519,3.5519,3.5519,3.5519,3.5519,3.5519,3.5519,3.575,3.6446,3.6569,3.7172,3.869,3.8881,3.9236,4.0003,4.0113,4.0113,4.0113,4.0113,4.0113,4.0113,4.0113,4.0113,4.0113,3.9411,3.9039,3.9039,3.8362,3.8024,3.8024,3.8024,3.8024,3.0306,3.0507,3.0708,3.111,3.0909,3.0608,3.0608,3.0181,2.9804,2.9804,3.0231,3.0658,0.0,0.0,0.0,3.2416,3.2792,0.0,3.3111,3.3111,0.0,3.3111,0.0,3.3111,3.3111,3.3445,0.0,0.0,3.3696,3.3922,3.4474,3.4525,3.4575,3.4726,3.468,3.468,3.468,3.468,3.465,3.45,3.4374,3.4299,3.4299,3.3872,3.3696,3.3671,3.3244,3.3111,3.3111,3.3111,3.3111,3.3111,3.3111,3.3111,3.3111,3.3111,3.3111,3.3111,3.3111,3.3111,3.3283,3.4345,3.5251,3.6186,3.7215,3.7813,3.8153,3.8153,3.7674,3.7075,3.6596,3.6357,3.6118,3.5639,3.5519,3.5519,3.5519,3.5519,3.5519,3.5519,3.5519,3.5519,3.5519,3.5519,3.5519,3.5519,3.5519,3.5554,3.575,3.6259,3.6994,3.7962,3.858,3.9236,4.0003,4.0113,4.0113,4.0113,4.0113,4.0113,4.0113,4.0113,4.0113,4.0113,3.991,3.9842,3.9842,3.9639,3.9537,3.9537,3.9537,3.9537,3.0532,3.0959,3.1386,3.1687,3.1361,3.0959,3.0959,3.0357,2.9804,2.9804,3.003,3.0331,3.0583,3.1286,3.1938,0.0,0.0,0.0,3.3111,3.3111,3.3111,0.0,3.3294,0.0,3.3445,3.3947,3.4349,0.0,3.4399,3.45,3.5006,3.5031,3.5203,3.5429,3.5454,3.5454,3.5454,3.5203,3.5031,3.5031,3.4781,3.468,3.468,3.4399,3.4248,3.4223,0.0,3.3445,3.342,3.3212,3.3111,3.3111,3.3111,3.3111,3.3111,3.3111,3.3111,3.3111,3.3111,3.3111,3.3283,3.4345,3.54,3.6408,3.7472,3.8282,3.8841,3.8841,3.8362,3.7764,3.7404,3.7105,3.6716,3.6088,3.5938,3.5848,3.5579,3.5519,3.5519,3.5519,3.5519,3.5519,3.5519,3.5519,3.5519,3.5519,3.5519,3.5519,3.5519,3.6134,3.6904,3.7735,3.8469,3.9236,4.0003,4.0113,4.0113,4.0113,4.0113,4.0113,4.0113,4.0113,4.0113,4.0113,4.0113,4.0113,4.0113,4.0113,4.0113,4.0113,4.0113,4.0113,3.0708,3.1461,3.2215,3.2215,3.1813,3.1361,3.1311,3.0507,2.9804,2.9804,2.9804,2.993,3.0407,3.0934,3.1461,3.2014,0.0,3.2993,3.3111,3.3111,3.3136,3.3212,3.3621,3.3922,3.3997,3.45,3.4981,3.5458,3.5132,3.5152,3.5583,3.5608,3.5881,3.638,3.6405,3.6405,3.6405,3.5881,3.5608,3.5608,3.5177,3.4951,3.4926,3.4831,3.4826,3.4756,3.4248,3.3972,3.3847,3.3395,3.3144,3.3111,3.3111,3.3111,3.3111,3.3111,3.3111,3.3111,3.3111,3.3111,3.3283,3.4345,3.54,3.6408,3.7472,3.8546,3.9373,3.9373,3.899,3.8512,3.8422,3.7973,3.7375,3.6746,3.6537,3.6327,3.5759,3.5579,3.5519,3.5519,3.5519,3.5519,3.5519,3.5519,3.5519,3.5519,3.5519,3.5519,3.5519,3.6134,3.6904,3.7735,3.8469,3.9236,4.0003,4.0113,4.0113,4.0113,4.0113,4.0113,4.0113,4.0113,4.0113,4.0113,4.0113,4.0113,4.0113,4.0113,4.0113,4.0113,4.0113,4.0113,3.1135,3.1712,3.2215,3.2215,3.1813,3.1286,3.0859,3.0256,0.0,2.9804,2.9804,2.9829,2.9905,3.0382,3.0909,3.1436,3.2014,3.2541,3.3061,3.3111,3.3244,0.0,3.3847,3.4073,3.4525,3.5031,0.0,0.0,0.0,3.6179,3.6254,3.6254,3.6304,3.6405,3.6405,3.6405,3.6405,3.6329,3.6254,3.6254,3.6179,3.6128,3.6103,3.5604,3.5357,3.5332,3.4781,0.0,3.3897,3.3796,3.3495,3.3111,3.3111,3.3111,3.3111,3.3111,3.3111,3.3111,3.3111,3.3111,3.3283,3.4345,3.54,3.6408,3.7472,3.8546,3.9373,3.9373,3.932,3.911,3.8542,3.8302,3.8063,3.7404,3.6866,3.6447,3.6327,3.5878,3.5519,3.5519,3.5519,3.5519,3.5519,3.5519,3.5519,3.5519,3.5519,3.5519,3.5519,3.6134,3.6904,3.7735,3.8469,3.9236,4.0003,4.0113,4.0113,4.0113,4.0113,4.0113,4.0113,4.0113,4.0113,4.0113,4.0113,4.0113,4.0113,4.0113,4.0113,4.0113,4.0113,4.0113,3.126,3.1587,3.1863,3.2139,3.1587,3.0934,3.0683,0.0,0.0,2.9804,2.9804,2.9804,2.9804,3.0256,3.0783,3.1311,3.1863,3.2416,3.2993,3.3111,3.3294,3.3847,3.4148,3.455,3.5056,3.5655,3.5981,3.5981,0.0,3.6405,3.6405,3.6405,3.6405,3.6405,3.6405,3.6405,3.6405,3.6405,3.6405,3.6405,3.6405,3.6405,3.6405,3.6081,3.5981,3.5931,3.5332,3.4956,3.468,3.4148,3.3746,3.347,3.3194,3.3111,3.3111,3.3111,3.3111,3.3111,3.3111,3.3111,3.3283,3.4345,3.54,3.6408,3.7472,3.8546,3.9373,3.9373,3.9373,3.9349,3.902,3.8931,3.8751,3.8093,3.7195,3.6477,3.6477,3.5968,3.5519,3.5519,3.5519,3.5519,3.5519,3.5519,3.5519,3.5519,3.5519,3.5519,3.5519,3.6134,3.6904,3.7735,3.8469,3.9236,4.0003,4.0113,4.0113,4.0113,4.0113,4.0113,4.0113,4.0113,4.0113,4.0113,4.0113,4.0113,4.0113,4.0113,4.0113,4.0113,4.0113,4.0113,3.111,3.1311,3.1461,3.1788,3.1235,3.0583,3.0457,3.0105,2.9804,2.9804,2.9804,2.9804,2.9804,3.0156,3.0658,0.0,3.1763,3.229,3.2993,3.3111,3.3319,0.0,3.4449,0.0,3.5608,3.6107,0.0,3.6405,0.0,0.0,3.6405,3.6405,3.6405,3.6405,3.6405,3.6405,3.6405,3.6405,3.6405,3.6405,3.6405,3.6405,3.6405,3.6405,3.6405,3.638,3.5906,3.5608,3.5433,3.4474,3.3997,3.3847,3.3294,3.3111,3.3111,3.3111,3.3111,3.3111,3.3111,3.3111,3.324,3.4079,3.5061,3.6132,3.7434,3.8397,3.909,3.9337,3.9373,3.9373,3.9373,3.9373,3.926,3.8542,3.7614,3.6806,3.6537,3.6088,3.5669,3.5519,3.5519,3.5519,3.5519,3.5519,3.5519,3.5519,3.5519,3.5519,3.5519,3.6006,3.6661,3.7472,3.8358,3.9183,3.9799,3.9978,4.0113,4.0113,4.0113,4.0113,4.0113,4.0113,4.0113,4.0113,4.0113,4.0113,4.0113,4.0113,4.0113,4.0113,4.0113,4.0113,3.0683,3.1035,3.1286,3.0859,3.0683,3.0482,2.998,2.9829,2.9804,2.9804,2.9804,2.9804,2.9804,2.9829,3.0206,3.121,0.0,3.1838,3.296,3.3111,3.347,3.4525,0.0,0.0,3.6229,3.638,0.0,3.6405,0.0,0.0,3.6405,3.6405,3.6405,3.6405,3.6405,3.6405,3.6405,3.6405,3.6405,3.6405,3.6405,3.6405,3.6405,3.6405,3.6405,3.6405,3.6355,0.0,0.0,3.4856,3.4349,3.3847,3.3294,3.3111,3.3111,3.3111,3.3111,3.3111,3.3111,3.3111,3.3111,3.324,3.3953,3.5224,3.7204,3.7881,3.8144,3.9156,3.9373,3.9373,3.9373,3.9373,3.926,3.8542,3.8302,3.7913,3.6746,3.6447,3.6207,3.5609,3.5519,3.5519,3.5519,3.5519,3.5519,3.5519,3.5519,3.5519,3.5519,3.5554,3.591,3.663,3.8015,3.8935,3.8989,3.9662,4.0113,4.0113,4.0113,4.0113,4.0113,4.0113,4.0113,4.0113,4.0113,4.0113,4.0113,4.0113,4.0113,4.0113,4.0113,4.0113,3.0532,3.0532,3.0457,3.0583,3.0357,3.0055,2.9854,2.9804,2.9804,2.9804,2.9804,2.9804,2.9804,2.9804,3.0055,3.0809,0.0,0.0,3.2441,3.2867,3.3495,3.46,3.468,0.0,0.0,0.0,3.6405,3.6405,0.0,0.0,3.6405,3.6405,3.6405,3.6405,3.6405,3.6405,3.6405,3.6405,3.6405,3.6405,3.6405,3.6405,3.6405,3.6405,3.6405,3.6405,3.6405,0.0,0.0,3.5077,3.46,3.4299,3.342,3.3111,3.3111,3.3111,3.3111,3.3111,3.3111,3.3111,3.3111,3.3111,3.3827,3.4979,3.6397,3.7738,3.887,3.9265,3.9373,3.9373,3.9373,3.9373,3.9313,3.908,3.8691,3.8242,3.7734,3.7315,3.6866,3.6207,3.6088,3.5968,3.5579,3.5519,3.5519,3.5519,3.5519,3.5519,3.5519,3.5519,3.5619,3.5911,3.6873,3.7901,3.8827,3.9209,3.9584,4.0087,4.0113,4.0113,4.0113,4.0113,4.0113,4.0113,4.0113,4.0113,4.0113,4.0113,4.0113,4.0113,4.0113,4.0113,3.0256,3.008,2.988,3.0281,3.008,2.9804,2.9804,2.9804,2.9804,2.9804,2.9804,2.9804,2.9804,2.9804,2.998,0.0,0.0,3.1587,3.2139,3.2717,3.342,3.4374,0.0,3.5102,0.0,3.6329,3.6405,0.0,0.0,0.0,3.6405,3.6405,3.6405,3.6405,3.6405,3.6405,3.6405,3.6405,3.6405,3.6405,3.6405,3.6405,3.6405,3.6405,3.6405,3.6405,3.6405,0.0,0.0,3.5353,3.4831,3.4625,3.3696,3.3262,3.3111,3.3111,3.3111,3.3111,3.3111,3.3111,3.3111,3.3111,3.4037,3.5278,3.5974,3.7482,3.898,3.9301,3.9373,3.9373,3.9373,3.9373,3.9373,3.9373,3.905,3.8631,3.8422,3.8033,3.7524,3.6896,3.6596,3.6327,3.5878,3.5639,3.5519,3.5519,3.5519,3.5519,3.5519,3.5519,3.5519,3.5519,3.5975,3.6783,3.8101,3.8663,3.9156,3.9714,3.9952,4.0113,4.0113,4.0113,4.0113,4.0113,4.0113,4.0113,4.0113,4.0113,4.0113,4.0113,4.0113,4.0113,2.9804,2.9804,2.9804,2.9804,2.9804,2.9804,2.9804,2.9804,2.9804,2.9804,2.9804,2.9804,2.9804,2.9804,2.998,3.0532,3.106,0.0,3.2139,3.2717,3.3294,0.0,0.0,3.4906,3.5458,3.6031,3.6405,0.0,0.0,0.0,3.6405,3.6405,3.6405,3.6405,3.6405,3.6405,3.6405,3.6405,3.6405,3.6405,3.6405,3.6405,3.6405,3.6405,3.6405,3.6405,0.0,0.0,0.0,3.5755,3.5182,3.4675,3.4098,3.3545,3.3111,3.3111,3.3111,3.3111,3.3111,3.3111,3.3111,3.3111,3.4485,3.6212,3.6212,3.6982,3.8032,3.909,3.9373,3.9373,3.9373,3.9373,3.9373,3.9373,3.9373,3.923,3.8542,3.8392,3.8182,3.7524,3.6896,3.6477,3.6477,3.5938,3.5519,3.5519,3.5519,3.5519,3.5519,3.5519,3.5519,3.5519,3.5519,3.5814,3.6538,3.8015,3.8908,3.8908,3.9662,4.0113,4.0113,4.0113,4.0113,4.0113,4.0113,4.0113,4.0113,4.0113,4.0113,4.0113,4.0113,4.0113,2.9804,2.9804,2.9804,2.9804,2.9804,2.9804,2.9804,2.9804,2.9804,2.9804,2.9804,2.9804,2.9804,2.9804,2.9854,3.003,3.0809,0.0,0.0,0.0,0.0,3.3847,3.468,3.5504,0.0,0.0,3.6405,0.0,0.0,0.0,3.6405,3.6405,3.6405,3.6405,3.6405,3.6405,3.6405,3.6405,3.6405,3.6405,3.6405,3.6405,3.6405,3.6405,3.6405,0.0,0.0,0.0,3.6355,3.578,3.5182,3.4675,3.4123,3.3571,3.3111,3.3111,3.3111,3.3111,3.3111,3.3111,3.324,3.3953,3.5116,3.633,3.706,3.8032,3.8943,3.9301,3.9373,3.9373,3.9373,3.9373,3.9373,3.9373,3.9373,3.9313,3.914,3.908,3.8901,3.8212,3.7913,3.7644,3.7195,3.6596,3.6178,3.6178,3.5789,3.5519,3.5519,3.5519,3.5519,3.5519,3.5519,3.5814,3.6538,3.7557,3.8358,3.8881,3.9662,4.0113,4.0113,4.0113,4.0113,4.0113,4.0113,4.0113,4.0113,4.0113,4.0113,4.0113,4.0113,4.0113,2.9804,2.9804,2.9804,2.9804,2.9804,2.9804,2.9804,2.9804,2.9804,2.9804,2.9804,2.9804,2.9804,2.9804,2.9804,2.9804,3.0683,3.1386,0.0,0.0,0.0,3.4123,0.0,0.0,0.0,3.6405,3.6405,0.0,0.0,0.0,3.6405,3.6405,3.6405,3.6405,3.6405,3.6405,3.6405,3.6405,3.6405,3.6405,3.6405,3.6405,3.6405,3.6405,3.6405,0.0,0.0,3.6405,0.0,3.578,3.5182,3.4675,3.4123,3.3571,3.3111,3.3111,3.3111,3.3111,3.3111,3.3368,3.3784,3.447,3.5641,3.7021,3.8069,3.887,3.9373,3.9373,3.9373,3.9373,3.9373,3.9373,3.9373,3.9373,3.9373,3.9373,3.9373,3.9373,3.929,3.8871,3.8571,3.8272,3.7853,3.7255,3.6746,3.6507,3.6148,3.5789,3.5549,3.5519,3.5519,3.5519,3.5519,3.5716,3.6134,3.6905,3.7674,3.8442,3.9209,3.9765,4.0087,4.0113,4.0113,4.0113,4.0113,4.0113,4.0113,4.0113,4.0113,4.0113,4.0113,4.0113,0.0,2.9804,2.9804,2.9804,2.9804,2.9804,2.9804,2.9804,0.0,2.9804,2.9804,2.9804,2.9804,2.9804,2.9804,2.9854,3.0708,3.1411,0.0,3.2416,0.0,0.0,3.5157,0.0,3.6355,3.6405,3.6405,0.0,0.0,0.0,3.6405,3.6405,3.6405,3.6405,3.6405,3.6405,3.6405,3.6405,3.6405,3.6405,3.6405,3.6405,3.6405,3.6405,3.6405,0.0,3.6405,3.6405,3.6355,3.578,3.5182,3.4675,3.4123,3.3571,3.3111,3.3111,3.3111,3.3111,3.3197,3.3869,3.4718,3.4856,3.6279,3.8107,3.909,3.9373,3.9373,3.9373,3.9373,3.9373,3.9373,3.9373,3.9373,3.9373,3.9373,3.9373,3.9373,3.9373,3.9373,3.9373,3.8901,3.8452,3.8452,3.7913,3.7285,3.6716,3.6567,3.6327,3.5729,3.5609,3.5579,3.5579,3.5519,3.5519,3.5519,3.6165,3.6934,3.7764,3.8497,3.9262,4.0087,4.0113,4.0113,4.0113,4.0113,4.0113,4.0113,4.0113,4.0113,4.0113,4.0113,4.0113,2.9804,0.0,2.9804,2.9804,2.9804,2.9804,0.0,2.9804,2.9804,2.9804,2.9804,2.9804,2.9804,2.9804,2.993,3.0357,3.0959,3.1537,3.1964,0.0,0.0,3.465,3.5157,3.5755,3.6355,3.6405,3.6405,0.0,0.0,3.6405,3.6405,3.6405,3.6405,3.6405,3.6405,3.6405,3.6405,3.6405,3.6405,3.6405,3.6405,3.6405,3.6405,3.6405,3.6405,3.6405,3.6405,3.6405,3.6355,3.578,3.5182,3.4675,3.4123,3.3571,3.3111,3.3111,3.3111,3.324,3.4037,3.4511,3.4938,3.6554,3.7956,3.9053,3.9301,3.9373,3.9373,3.9373,3.9373,3.9373,3.9373,3.9373,3.9373,3.9373,3.9373,3.9373,3.9373,3.9373,3.9373,3.9373,3.9254,3.917,3.917,3.8601,3.8123,3.7973,3.7524,3.7135,3.6985,3.6537,3.6237,3.6237,3.5818,3.5519,3.5519,3.6165,3.6934,3.7764,3.8497,3.9262,4.0087,4.0113,4.0113,4.0113,4.0113,4.0113,4.0113,4.0113,4.0113,4.0113,4.0113,4.0113,2.9804,2.9804,2.9804,2.9804,2.9804,2.9804,2.9804,2.9804,2.9804,2.9804,2.9804,2.9804,2.9804,3.0005,3.0256,3.0557,3.126,0.0,0.0,0.0,3.4474,3.4981,3.5579,3.6031,0.0,0.0,3.6405,0.0,0.0,3.6405,3.6405,3.6405,3.6405,3.6405,3.6405,3.6405,3.6405,3.6405,3.6405,3.6405,3.6405,3.6405,3.6405,3.6405,3.6405,3.6405,3.6405,3.6405,3.6355,3.5504,3.4956,3.465,3.3847,3.3345,3.3111,3.3111,3.3111,3.324,3.4304,3.5305,3.6397,3.7994,3.8943,3.9373,3.9373,3.9373,3.9373,3.9373,3.9373,3.9373,3.9373,3.9373,3.9373,3.9373,3.9373,3.9373,3.9373,3.9373,3.9373,3.9373,3.9373,3.9373,3.9373,3.911,3.8751,3.8452,3.8093,3.7764,3.7434,3.7105,3.6896,3.6896,3.6327,3.5968,3.5968,3.6029,3.6446,3.7203,3.7962,3.8718,3.9532,3.9901,4.0113,4.0113,4.0113,4.0113,4.0113,4.0113,4.0113,4.0113,4.0113,4.0113,2.9804,2.9804,2.9804,2.9804,2.9804,2.9804,2.9804,2.9804,2.9804,2.9804,2.9804,2.9829,2.9905,3.0306,3.0658,0.0,0.0,0.0,3.3746,3.4374,3.4881,3.5433,3.6031,0.0,3.6405,3.6405,3.6405,0.0,0.0,3.6405,3.6405,3.6405,3.6405,3.6405,3.6405,3.6405,3.6405,3.6405,3.6405,3.6405,3.6405,3.6405,3.6405,3.6405,3.6405,3.6405,0.0,0.0,3.6157,3.5152,3.4675,3.45,3.347,3.3111,3.3111,3.3111,3.3111,3.3283,3.4511,3.62,3.7994,3.9053,3.9373,3.9373,3.9373,3.9373,3.9373,3.9373,3.9373,3.9373,3.9373,3.9373,3.9373,3.9373,3.9373,3.9373,3.9373,3.9373,3.9373,3.9373,3.9373,3.9373,3.9373,3.9373,3.923,3.8631,3.8542,3.8332,3.7793,3.7614,3.7554,3.7554,3.6985,3.6626,3.6626,3.6028,3.5933,3.6538,3.7237,3.7991,3.8854,3.9662,4.0113,4.0113,4.0113,4.0113,4.0113,4.0113,4.0113,4.0113,4.0113,4.0113,2.9804,2.9804,2.9804,2.9804,2.9804,2.9804,2.9804,2.9804,2.9804,2.9804,2.9804,2.993,3.0407,3.0557,3.0909,0.0,0.0,3.3169,0.0,0.0,3.4881,3.5433,0.0,3.6405,3.6405,3.6405,3.6405,3.6405,0.0,3.6405,3.6405,3.6405,3.6405,3.6405,3.6405,3.6405,3.6405,3.6405,3.6405,3.6405,3.6405,3.6405,3.6405,3.6405,3.6405,3.6405,0.0,3.6107,3.5583,3.4931,3.4449,3.3972,3.3319,3.3111,3.3111,3.3111,3.3111,3.3386,3.5319,3.6788,3.7994,3.9053,3.9373,3.9373,3.9373,3.9373,3.9373,3.9373,3.9373,3.9373,3.9373,3.9373,3.9373,3.9373,3.9373,3.9373,3.9373,3.9373,3.9373,3.9373,3.9373,3.9373,3.9373,3.9373,3.9379,3.9254,3.926,3.923,3.914,3.8601,3.8242,3.8242,3.7674,3.7255,3.7255,3.6686,3.6394,3.6496,3.6691,3.7408,3.8854,3.9662,4.0113,4.0113,4.0113,4.0113,4.0113,4.0113,4.0113,4.0113,4.0113,4.0113,2.9804,2.9804,2.9804,2.9804,2.9804,2.9804,2.9804,2.9804,2.9804,2.9804,3.003,3.0306,0.0,0.0,3.1738,3.2541,0.0,3.337,3.4223,3.453,3.5027,0.0,0.0,3.6405,3.6405,3.6405,3.6405,3.6405,3.6405,0.0,3.6405,3.6405,3.6405,3.6405,3.6405,3.6405,3.6405,3.6405,3.6405,3.6405,3.6405,3.6405,3.6405,3.6405,3.6405,3.638,0.0,3.578,3.5433,3.4625,3.4123,3.3847,3.3294,3.3111,3.3111,3.3111,3.3471,3.4121,3.5061,3.6436,3.7881,3.8397,3.8943,3.9373,3.9373,3.9373,3.9373,3.9373,3.9373,3.9373,3.9373,3.9373,3.9373,3.9373,3.9373,3.9373,3.9373,3.9373,3.9373,3.9373,3.9373,3.9373,3.9373,3.9373,3.9373,3.9373,3.9373,3.9373,3.9373,3.914,3.896,3.896,3.8332,3.7943,3.7943,3.7345,3.6857,3.6557,3.66,3.7291,3.8854,3.9262,3.9662,4.0113,4.0113,4.0113,4.0113,4.0113,4.0113,4.0113,4.0113,4.0113,2.9804,2.9804,2.9804,2.9804,2.9804,2.9804,2.9804,2.9905,2.998,2.998,3.0407,3.0834,0.0,3.1763,0.0,3.2993,3.3111,3.347,3.4575,3.468,3.5127,3.6279,3.6405,3.6405,3.6405,3.6405,3.6405,3.6405,3.6405,3.6405,3.6405,3.6405,3.6405,3.6405,3.6405,3.6405,3.6405,3.6405,3.6405,3.6405,3.6405,3.6405,3.6405,3.6405,3.6405,3.638,3.578,3.5433,3.5232,3.4299,3.3822,3.3671,3.3244,3.3111,3.3111,3.3111,3.3641,3.4345,3.4635,3.5882,3.7472,3.7701,3.8546,3.9373,3.9373,3.9373,3.9373,3.9373,3.9373,3.9373,3.9373,3.9373,3.9373,3.9373,3.9373,3.9373,3.9373,3.9373,3.9373,3.9373,3.9373,3.9373,3.9373,3.9373,3.9373,3.9373,3.9373,3.9373,3.9373,3.9373,3.9373,3.9373,3.896,3.8571,3.8392,3.7913,3.7476,3.7095,3.6785,3.7202,3.858,3.8799,3.9289,4.0087,4.0113,4.0113,4.0113,4.0113,4.0113,4.0113,4.0282,4.0383,2.9804,2.9804,2.9804,2.9804,2.9804,2.9804,2.9804,3.0181,3.0557,3.0557,3.0959,3.1486,3.2014,3.2591,3.3061,3.3111,3.3111,3.347,3.4575,0.0,3.5127,3.6279,3.6405,3.6405,3.6405,3.6405,3.6405,3.6405,3.6405,3.6405,3.6405,3.6405,3.6405,3.6405,3.6405,3.6405,3.6405,3.6405,3.6405,3.6405,3.6405,3.6405,3.6405,3.6405,3.6405,3.638,3.578,3.5207,3.468,3.4148,3.3596,3.3144,3.3136,3.3111,3.3111,3.3111,3.3154,3.3368,3.4345,3.54,3.6487,3.7472,3.8546,3.9373,3.9373,3.9373,3.9373,3.9373,3.9373,3.9373,3.9373,3.9373,3.9373,3.9373,3.9373,3.9373,3.9373,3.9373,3.9373,3.9373,3.9373,3.9373,3.9373,3.9373,3.9373,3.9373,3.9373,3.9373,3.9373,3.9373,3.9373,3.9373,3.9379,3.908,3.8452,3.8332,3.8387,3.8552,3.7312,3.6994,3.7851,3.8525,3.9289,4.0087,4.0113,4.0113,4.0113,4.0113,4.0113,4.0113,4.0798,4.1136,2.9804,2.9804,2.9804,2.9804,3.0055,3.0306,3.0306,3.0457,3.0708,3.1035,3.1512,3.2064,3.2641,0.0,3.3111,3.3111,3.337,3.3847,3.4625,3.4981,3.5504,3.6329,3.6405,3.6405,3.6405,3.6405,3.6405,3.6405,3.6405,3.6405,3.6405,3.6405,3.6405,3.6405,3.6405,3.6405,3.6405,3.6405,3.6405,3.6405,3.6405,3.6405,3.6405,3.6405,3.6405,3.6355,3.5429,3.4881,3.4605,3.3746,3.3269,3.3111,3.3111,3.3111,3.3111,3.3111,3.3111,3.3154,3.3556,3.4815,3.629,3.6682,3.7965,3.9373,3.9373,3.9373,3.9373,3.9373,3.9373,3.9373,3.9373,3.9373,3.9373,3.9373,3.9373,3.9373,3.9373,3.9373,3.9373,3.9373,3.9373,3.9373,3.9373,3.9373,3.9373,3.9373,3.9373,3.9373,3.9373,3.9373,3.9373,3.9373,3.9373,3.9505,3.9803,3.9474,3.9475,4.0103,3.831,3.7834,3.9182,3.9035,3.9289,4.0087,4.0113,4.035,4.0764,4.0764,4.1001,4.1467,4.1745,4.188,2.9804,2.9804,2.9829,3.0005,3.0331,3.0708,3.1035,3.111,3.121,3.1587,3.2089,3.2616,3.2993,0.0,0.0,0.0,3.3545,3.4098,3.4605,3.5157,3.5708,3.6355,3.6405,3.6405,3.6405,3.6405,3.6405,3.6405,3.6405,3.6405,3.6405,3.6405,3.6405,3.6405,3.6405,3.6405,3.6405,3.6405,3.6405,3.6405,3.6405,3.6405,3.6405,3.6405,3.6405,3.6355,3.5203,3.468,3.465,3.352,3.3111,3.3111,3.3111,3.3111,3.3111,3.3111,3.3326,3.3598,3.3598,3.4979,3.6682,3.6682,3.7927,3.9373,3.9373,3.9373,3.9373,3.9373,3.9373,3.9373,3.9373,3.9373,3.9373,3.9373,3.9373,3.9373,3.9373,3.9373,3.9373,3.9373,3.9373,3.9373,3.9373,3.9373,3.9373,3.9373,3.9373,3.9373,3.9373,3.9373,3.9373,3.9373,3.9373,3.9631,4.0239,4.0121,4.0376,4.1246,3.988,3.948,4.0418,3.9924,3.9987,4.0764,4.079,4.1035,4.1542,4.1542,4.1813,4.2286,4.2523,4.2658,2.9804,2.9804,2.993,3.0482,3.0608,3.0909,3.1964,3.2215,3.2215,3.2215,3.2667,3.3111,3.3111,3.3111,0.0,3.3111,3.3545,3.4098,3.4605,3.5157,3.5708,3.6355,3.6405,3.6405,3.6405,3.6405,3.6405,3.6405,3.6405,3.6405,3.6405,3.6405,3.6405,3.6405,3.6405,3.6405,3.6405,3.6405,3.6405,3.6405,3.6405,3.6405,3.6405,3.6405,3.6405,3.6329,3.5203,3.468,3.4625,3.352,3.3111,3.3111,3.3136,3.3136,3.3136,3.3093,3.381,3.4718,3.4718,3.6068,3.7805,3.7805,3.8509,3.9373,3.9373,3.9373,3.9373,3.9373,3.9373,3.9373,3.9373,3.9373,3.9373,3.9373,3.9373,3.9373,3.9373,3.9373,3.9373,3.9373,3.9373,3.9373,3.9373,3.9373,3.9373,3.9373,3.9373,3.9373,3.9373,3.9373,3.9373,3.9373,3.9373,3.9373,3.9409,4.0205,4.1095,4.1917,4.2148,4.1935,4.1267,4.1234,4.1572,4.2286,4.2286,4.2286,4.2286,4.2286,4.2286,4.232,4.3064,4.3409,2.9804,2.9804,2.993,3.0482,3.0884,3.1336,3.2064,3.2215,3.2315,3.2742,3.3011,3.3111,3.3111,3.3111,0.0,3.3111,3.3545,3.4098,3.4605,3.5157,3.5708,3.6355,3.6405,3.6405,3.6405,3.6405,3.6405,3.6405,3.6405,3.6405,3.6405,3.6405,3.6405,3.6405,3.6405,3.6405,3.6405,3.6405,3.6405,3.6405,3.6405,3.6405,3.6405,3.6405,3.6157,3.5755,3.4981,3.45,3.4098,3.337,3.3111,3.3162,3.3495,3.3646,3.3696,3.4098,3.4966,3.5976,3.5976,3.7071,3.8477,3.8477,3.8927,3.9373,3.9373,3.9373,3.9373,3.9373,3.9373,3.9373,3.9373,3.9373,3.9373,3.9373,3.9373,3.9373,3.9373,3.9373,3.9373,3.9373,3.9373,3.9373,3.9373,3.9373,3.9373,3.9373,3.9373,3.9373,3.9373,3.9373,3.9373,3.9373,3.9373,3.9631,4.0274,4.0554,4.1095,4.1917,4.2604,4.2899,4.2769,4.2259,4.2099,4.2286,4.2286,4.2557,4.3064,4.3064,4.3369,4.3938,4.4113,4.4215,2.9804,2.9955,3.0256,3.0783,3.1311,3.1863,3.2416,3.2566,3.2641,3.3061,3.3111,3.3111,3.3111,3.3111,0.0,3.3111,3.3545,3.4022,3.4349,3.4831,3.5307,3.568,3.5705,3.5705,3.5705,3.5705,3.5805,3.6031,3.6031,3.6132,3.6405,3.6405,3.6405,3.6405,3.6405,3.6405,3.6405,3.6405,3.6405,3.6405,3.6405,3.6405,3.6405,3.6132,3.5855,3.5458,3.4726,3.4073,3.3545,3.3219,3.3111,3.3144,3.3696,3.3897,3.3972,3.4525,3.5719,3.7095,3.7122,3.8333,3.9797,3.9496,3.9616,3.9768,3.9499,3.9373,3.9373,3.9373,3.9373,3.9373,3.9373,3.9373,3.9373,3.9373,3.9373,3.9373,3.9373,3.9373,3.9373,3.9373,3.9373,3.9373,3.9373,3.9373,3.9373,3.9373,3.9373,3.9373,3.9373,3.9373,3.9373,3.9373,3.9373,3.9595,4.0135,4.0485,4.0927,4.1429,4.2614,4.3333,4.3366,4.3271,4.32,4.32,4.32,4.3436,4.3876,4.3876,4.4113,4.4615,4.4615,4.4615,2.9804,3.0206,3.0733,3.126,3.1838,3.2441,3.2943,3.3111,3.3111,3.3111,0.0,3.3111,3.3111,3.3111,3.3111,3.3111,3.3495,3.3847,3.3897,3.4324,3.4675,3.468,3.468,3.468,3.468,3.468,3.4881,3.5382,3.5433,3.568,3.6229,3.6304,3.6329,3.6329,3.638,3.6405,3.6405,3.6405,3.6405,3.6405,3.6405,3.6405,3.638,3.5805,3.5433,3.5282,3.4274,3.3545,3.3111,3.3111,3.3111,3.3187,3.3746,3.3972,3.4048,3.465,3.6201,3.8061,3.8214,3.9619,4.1241,4.0719,4.0487,4.0277,3.9679,3.9433,3.9373,3.9373,3.9373,3.9373,3.9373,3.9373,3.9373,3.9373,3.9373,3.9373,3.9373,3.9373,3.9373,3.9373,3.9373,3.9373,3.9373,3.9373,3.9373,3.9373,3.9373,3.9373,3.9373,3.9373,3.9373,3.9373,3.9373,3.9373,3.9373,4.013,4.0588,4.0588,4.2237,4.3169,4.3169,4.4093,4.4615,4.4615,4.4615,4.4615,4.4615,4.4615,4.4615,4.4615,4.4615,4.4615,2.9804,3.0206,3.0733,3.126,3.2139,3.2918,3.3043,3.3111,3.3111,3.3111,3.3111,3.3111,3.3111,3.3111,3.3111,3.3111,3.3212,3.3395,3.3847,3.3997,3.4248,3.4675,3.468,3.468,3.468,3.468,3.4731,3.4831,3.4856,3.4951,3.5077,3.5433,3.5683,3.5683,3.6132,3.6405,3.6405,3.6405,3.6405,3.6405,3.6405,3.6405,3.638,3.5805,3.5031,3.4223,3.3545,3.3237,3.3111,3.3111,3.3111,3.3212,3.4148,3.455,3.465,3.5655,3.6928,3.8229,3.9196,4.0082,4.0906,4.1722,4.1235,4.0367,4.0217,3.9828,3.9373,3.9373,3.9373,3.9373,3.9373,3.9373,3.9373,3.9373,3.9373,3.9373,3.9373,3.9373,3.9373,3.9373,3.9373,3.9373,3.9373,3.9373,3.9373,3.9373,3.9373,3.9373,3.9373,3.9373,3.9373,3.9373,3.9373,3.9373,3.9373,3.9589,3.9666,3.9666,4.1329,4.23,4.23,4.3768,4.4615,4.4615,4.4615,4.4615,4.4615,4.4615,4.4615,4.4615,4.4615,4.4615,2.9804,3.0382,3.1185,3.1989,3.2641,3.3111,3.3111,3.3111,3.3111,3.3111,3.3111,3.3111,3.3111,3.3111,3.3111,3.3111,3.3111,3.3212,3.347,3.3495,3.3621,3.3897,3.3922,3.3922,3.3922,3.3922,3.4048,3.4299,3.4324,3.4449,3.47,3.4956,3.5107,3.5107,3.568,3.5981,3.5981,3.6279,3.6405,3.6405,3.6405,3.6128,3.5579,3.5278,3.455,3.3495,3.3194,3.3111,3.3111,3.3111,3.3111,3.3169,3.3997,3.45,3.4781,3.5655,3.6873,3.8289,3.9492,4.0421,4.1232,4.2119,4.1931,4.1235,4.0576,4.0157,3.9828,3.9499,3.9373,3.9373,3.9373,3.9373,3.9373,3.9373,3.9373,3.9373,3.9373,3.9373,3.9373,3.9373,3.9373,3.9373,3.9373,3.9373,3.9373,3.9373,3.9373,3.9373,3.9373,3.9373,3.9373,3.9373,3.9373,3.9373,3.9373,3.9373,3.9373,3.9373,4.0622,4.156,4.1981,4.3259,4.415,4.4615,4.4615,4.4615,4.4615,4.4615,4.4615,4.4615,4.4615,4.4615,2.9804,3.0583,3.1662,3.2835,3.3111,3.3111,3.3111,3.3111,3.3111,3.3111,3.3111,3.3111,3.3111,3.3111,3.3111,3.3111,3.3111,3.3111,3.3111,3.3111,3.3111,3.3111,3.3111,3.3111,3.3111,3.3111,3.3269,3.3721,3.3746,3.3947,3.4424,3.4525,3.4575,3.4575,3.5157,3.5508,3.5508,3.6081,3.6405,3.6405,3.6405,3.578,3.468,3.468,3.4123,3.3111,3.3111,3.3111,3.3111,3.3111,3.3111,3.3144,3.3696,3.4248,3.4731,3.5282,3.6504,3.7997,3.9183,4.0361,4.1417,4.205,4.2315,4.2201,4.1055,4.0576,4.0277,3.9738,3.9499,3.9373,3.9373,3.9373,3.9373,3.9373,3.9373,3.9373,3.9373,3.9373,3.9373,3.9373,3.9373,3.9373,3.9373,3.9373,3.9373,3.9373,3.9373,3.9373,3.9373,3.9373,3.9373,3.9373,3.9373,3.9373,3.9373,3.9373,3.9373,3.9373,4.0205,4.0997,4.1723,4.2614,4.3502,4.4355,4.4497,4.4615,4.4615,4.4615,4.4615,4.4615,4.4615,4.4615,2.9804,3.0583,3.1662,3.2835,3.3111,3.3111,3.3111,3.3111,3.3111,0.0,3.3111,3.3111,3.3111,3.3111,3.3111,3.3111,3.3111,3.3111,3.3111,3.3111,3.3111,3.3111,3.3111,3.3111,3.3111,3.3111,3.3119,3.3194,3.3237,3.3262,3.3294,3.3746,3.3997,3.3997,3.4956,3.5508,3.5508,3.6081,3.6405,3.6405,3.6405,3.578,3.468,3.468,3.4123,3.3111,3.3111,3.3111,3.3111,3.3111,3.3111,3.3144,3.3696,3.4248,3.4731,3.5282,3.5974,3.6803,3.7952,3.9139,4.0318,4.1376,4.2008,4.2381,4.2201,4.1294,4.0397,4.0277,3.9858,3.9373,3.9373,3.9373,3.9373,3.9373,3.9373,3.9373,3.9373,3.9373,3.9373,3.9373,3.9373,3.9373,3.9373,3.9373,3.9373,3.9373,3.9373,3.9373,3.9373,3.9373,3.9373,3.9373,3.9373,3.9373,3.9373,3.9373,3.9373,3.9373,4.0205,4.0758,4.0894,4.1691,4.2583,4.3472,4.4241,4.4615,4.4615,4.4615,4.4615,4.4615,4.4615,4.4615,3.0181,3.0809,3.1587,3.239,3.2842,3.3111,3.3111,3.3111,3.3111,3.3111,3.3111,3.3111,3.3111,3.3111,3.3111,3.3111,3.3111,3.3111,3.3111,3.3111,3.3111,3.3111,3.3111,3.3111,3.3111,3.3111,3.3111,3.3111,3.3111,3.3111,3.3111,3.3294,3.3445,3.3445,3.4198,3.4731,3.5031,3.5629,3.6056,3.6405,3.6405,3.5956,3.5132,3.4831,3.4123,3.3111,3.3111,3.3111,3.3111,3.3111,3.3111,3.3093,3.3345,3.3972,3.4705,3.4956,3.5629,3.6546,3.7723,3.8469,3.9183,4.1042,4.1744,4.2008,4.2306,4.1991,4.1452,4.1055,4.0487,3.9978,3.9978,3.9709,3.9373,3.9373,3.9373,3.9373,3.9373,3.9373,3.9373,3.9373,3.9373,3.9373,3.9373,3.9373,3.9373,3.9373,3.9373,3.9373,3.9373,3.9373,3.9373,3.9373,3.9373,3.9373,3.9373,3.9373,3.9373,3.9373,3.9773,4.017,4.069,4.1095,4.1885,4.3259,4.368,4.4093,4.4615,4.4615,4.4615,4.4615,4.4615,4.4615,3.0457,3.0984,3.1512,3.2064,3.2641,3.3111,0.0,0.0,3.3111,0.0,3.3111,3.3111,3.3111,3.3111,3.3111,3.3111,3.3111,3.3111,3.3111,3.3111,3.3111,3.3111,3.3111,3.3111,3.3111,3.3111,3.3111,3.3111,3.3111,3.3111,3.3111,3.3111,3.3111,3.3111,3.3621,3.4173,3.468,3.5357,3.5956,3.6405,3.6405,3.6081,3.5483,3.5082,3.4324,3.3312,3.3187,3.3111,3.3111,3.3111,3.3111,3.3111,3.3111,3.3671,3.4525,3.4675,3.5328,3.6344,3.7671,3.8289,3.8917,4.093,4.1794,4.2106,4.2495,4.253,4.2291,4.1811,4.1145,4.0636,4.0636,4.0277,3.9918,3.9918,3.9918,3.9828,3.9463,3.9373,3.9373,3.9373,3.9373,3.9373,3.9373,3.9373,3.9373,3.9373,3.9373,3.9373,3.9373,3.9373,3.9373,3.9373,3.9373,3.9373,3.9373,3.9373,3.9373,3.9373,3.9373,3.9702,4.0343,4.0378,4.1095,4.2614,4.2863,4.3532,4.4615,4.4615,4.4615,4.4615,4.4615,4.4615,3.0457,3.0984,3.1512,3.2064,3.2641,3.3111,0.0,0.0,3.3111,3.3111,3.3111,3.3111,3.3111,3.3111,3.3111,3.3111,3.3111,3.3111,0.0,0.0,0.0,3.3111,3.3111,3.3111,3.3111,3.3111,3.3111,3.3111,3.3111,3.3111,3.3111,3.3111,3.3111,3.3111,3.3621,3.4173,3.468,3.578,3.638,3.6405,3.6405,3.6081,3.5508,3.5458,3.4856,3.3822,3.3294,3.3111,3.3111,3.3111,3.3111,3.3111,3.3111,3.342,3.3997,3.4525,3.5031,3.5793,3.7495,3.8872,4.0015,4.1211,4.2345,4.321,4.326,4.2851,4.2381,4.2351,4.1871,4.1324,4.1324,4.1294,4.1294,4.1294,4.1294,4.0935,3.9679,3.9373,3.9373,3.9373,3.9373,3.9373,3.9373,3.9373,3.9373,3.9373,3.9373,3.9373,3.9373,3.9373,3.9373,3.9373,3.9373,3.9373,3.9373,3.9373,3.9373,3.9373,3.9373,3.9409,3.9481,3.9481,3.9884,4.0826,4.1626,4.2892,4.4615,4.4615,4.4615,4.4615,4.4615,4.4615,3.003,3.0733,3.1436,3.1637,3.239,3.3111,3.3111,3.3111,3.3111,3.3111,3.3111,3.3111,3.3111,3.3111,3.3111,3.3111,0.0,0.0,0.0,0.0,0.0,3.3111,3.3111,3.3111,3.3111,3.3111,3.3111,3.3111,3.3111,3.3111,3.3111,3.3111,3.3111,3.3111,3.3269,3.3796,3.468,3.5805,3.6405,3.6405,3.6405,3.6304,3.6056,3.5658,3.5082,3.4399,3.3847,3.3395,3.3111,3.3111,3.3111,3.3111,3.3111,3.342,3.3972,3.4525,3.5031,3.5743,3.7469,3.8379,3.905,4.0972,4.1906,4.2345,4.3061,4.314,4.3,4.3,4.2521,4.2051,4.2051,4.1722,4.1422,4.1422,4.1422,4.1302,4.0786,4.0666,4.0546,4.0127,4.0038,3.9918,3.9463,3.9373,3.9373,3.9373,3.9373,3.9373,3.9373,3.9373,3.9373,3.9373,3.9373,3.9373,3.9373,3.9373,3.9373,3.9373,3.9373,3.9373,3.9373,3.9373,3.9809,4.069,4.156,4.2583,4.3768,4.4327,4.4615,4.4615,4.4615,4.4615,3.0005,3.0708,3.1436,3.1612,3.2365,3.3111,3.3111,0.0,3.3111,3.3111,3.3111,3.3111,3.3111,3.3111,0.0,0.0,0.0,0.0,0.0,0.0,0.0,0.0,3.3111,3.3111,3.3111,3.3111,3.3111,3.3111,3.3111,0.0,3.3111,3.3111,3.3111,3.3111,3.3445,3.3972,3.468,3.5805,3.6405,3.6405,3.6405,3.6405,3.6405,3.5981,3.5529,3.4931,3.46,3.3922,3.3111,3.3111,3.3111,3.3111,3.3111,3.3294,3.3721,3.4449,3.4906,3.5491,3.7417,3.8379,3.905,4.0972,4.1864,4.2316,4.3061,4.329,4.329,4.329,4.303,4.2671,4.2671,4.2372,4.2043,4.2043,4.2043,4.2043,4.2043,4.1683,4.1302,4.0816,4.0726,4.0516,3.9858,3.9738,3.9679,3.9403,3.9373,3.9373,3.9373,3.9373,3.9373,3.9373,3.9373,3.9373,3.9373,3.9373,3.9373,3.9373,3.9373,3.9373,3.9373,3.9373,3.9809,4.069,4.156,4.2426,4.3323,4.415,4.4615,4.4615,4.4615,4.4615,0.0,0.0,0.0,3.2089,3.2641,3.3111,3.3111,0.0,3.3111,3.3111,3.3111,3.3111,3.3111,0.0,0.0,0.0,0.0,0.0,0.0,0.0,0.0,0.0,3.3111,3.3111,3.3111,3.3111,3.3111,3.3111,3.3111,3.3111,3.3111,3.3111,3.3111,3.3111,3.4148,3.468,3.468,3.5805,3.6405,3.6405,3.6405,3.6405,3.6405,3.6405,3.6056,3.5508,3.5508,3.4625,3.3162,3.3119,3.3093,3.3111,3.3111,3.3111,3.3219,3.4324,3.468,3.5057,3.7332,3.8872,4.0059,4.1211,4.2386,4.329,4.329,4.329,4.329,4.329,4.329,4.329,4.329,4.329,4.329,4.329,4.329,4.329,4.329,4.2342,4.1482,4.1414,4.1452,4.1205,4.0546,4.0397,4.0187,3.9559,3.9403,3.9373,3.9373,3.9373,3.9373,3.9373,3.9373,3.9373,3.9373,3.9373,3.9373,3.9373,3.9373,3.9373,3.9373,3.9409,3.9844,4.069,4.156,4.2458,4.3323,4.415,4.4615,4.4615,4.4615,4.4615,3.1135,0.0,0.0,0.0,0.0,0.0,3.3111,3.3111,3.3111,3.3111,3.3111,3.3111,0.0,0.0,0.0,0.0,0.0,0.0,0.0,0.0,0.0,0.0,3.3111,3.3111,3.3111,3.3111,3.3111,0.0,3.3111,3.3111,3.3111,3.3111,3.3111,3.3111,3.4148,3.468,3.468,3.5805,3.6405,3.6405,3.6405,3.6405,3.6405,3.6405,3.6056,3.5508,3.5508,3.5006,3.4248,3.3847,3.3445,3.3111,3.3111,3.3111,3.3219,3.4324,3.468,3.5057,3.7332,3.8872,4.0059,4.1211,4.2386,4.329,4.329,4.329,4.329,4.329,4.329,4.329,4.329,4.329,4.329,4.329,4.329,4.329,4.329,4.3021,4.2671,4.2231,4.2141,4.1931,4.1235,4.0726,4.0337,4.0157,3.9738,3.9373,3.9373,3.9373,3.9373,3.9373,3.9373,3.9373,3.9373,3.9373,3.9373,3.9373,3.9373,3.9373,3.9373,3.999,4.0451,4.069,4.2173,4.3078,4.3323,4.415,4.4615,4.4615,4.4615,4.4886,0.0,0.0,0.0,3.2516,0.0,0.0,3.3111,3.3111,3.3111,0.0,3.3111,3.3111,0.0,0.0,0.0,0.0,0.0,0.0,0.0,0.0,0.0,0.0,3.3111,3.3111,3.3111,3.3111,3.3111,3.3111,3.3111,3.3111,3.3111,3.3111,3.3111,3.3111,3.4148,3.468,3.468,3.5805,3.6405,3.6405,3.6405,3.6405,3.6405,3.6405,3.6182,3.5881,3.5881,3.5579,3.5006,3.468,3.4123,3.3395,3.3212,3.3111,3.3219,3.4324,3.468,3.4967,3.6765,3.8153,3.936,4.0532,4.1657,4.267,4.317,4.329,4.329,4.329,4.329,4.329,4.329,4.329,4.329,4.329,4.329,4.329,4.329,4.329,4.32,4.2851,4.2761,4.2551,4.1931,4.1512,4.1115,4.0846,4.0247,3.9828,3.9828,3.9553,3.9373,3.9373,3.9373,3.9373,3.9373,3.9373,3.9373,3.9373,3.9373,3.9373,3.9373,3.9884,4.0516,4.1231,4.2237,4.3108,4.386,4.4355,4.4784,4.506,4.506,4.5432,0.0,0.0,0.0,0.0,3.3111,0.0,3.3111,3.3111,3.3111,3.3111,3.3111,0.0,0.0,0.0,0.0,0.0,0.0,0.0,0.0,0.0,0.0,0.0,3.3111,3.3111,3.3111,3.3111,3.3111,3.3111,3.3111,3.3111,3.3111,3.3111,3.3111,3.3111,3.4148,3.468,3.468,3.5805,3.6405,3.6405,3.6405,3.6405,3.6405,3.6405,3.6405,3.6405,3.6405,3.6081,3.5583,3.5533,3.4881,3.3947,3.3395,3.3212,3.3294,3.4349,3.468,3.4876,3.5981,3.715,3.8289,3.9492,4.0661,4.1794,4.2941,4.329,4.329,4.329,4.329,4.329,4.329,4.329,4.329,4.329,4.329,4.329,4.329,4.329,4.329,4.329,4.329,4.315,4.262,4.244,4.2201,4.1602,4.0935,4.0516,4.0516,4.0008,3.9649,3.9649,3.9649,3.9649,3.9649,3.9649,3.9649,3.9649,3.9649,3.9649,3.9649,3.9799,4.0659,4.2205,4.243,4.3307,4.4852,4.4784,4.506,4.5703,4.5805,4.621,0.0,0.0,0.0,0.0,3.3111,0.0,3.3111,3.3111,3.3111,0.0,3.3111,0.0,0.0,0.0,0.0,0.0,0.0,0.0,0.0,0.0,0.0,0.0,3.3111,3.3111,3.3111,3.3111,3.3111,3.3111,3.3111,3.3111,3.3111,3.3111,3.3111,3.3111,3.4148,3.468,3.468,3.5805,3.6405,3.6405,3.6405,3.6405,3.6405,3.6405,3.6405,3.6405,3.6405,3.6355,3.6182,3.5683,3.5107,3.45,3.3947,3.3746,3.3822,3.4474,3.468,3.4876,3.5981,3.715,3.8289,3.9492,4.0661,4.1794,4.2941,4.329,4.329,4.329,4.329,4.329,4.329,4.329,4.329,4.329,4.329,4.329,4.329,4.329,4.329,4.329,4.329,4.326,4.311,4.2701,4.2351,4.2231,4.1662,4.1175,4.1175,4.1085,4.0995,4.0995,4.0995,4.0995,4.0995,4.0995,4.0995,4.0995,4.0995,4.0995,4.0995,4.2435,4.3339,4.3709,4.5129,4.6018,4.6346,4.5771,4.5568,4.5703,4.6312,4.6989,0.0,0.0,0.0,3.3111,3.3111,0.0,0.0,3.3111,3.3111,3.3111,3.3111,3.3111,3.3111,0.0,0.0,0.0,0.0,0.0,0.0,0.0,0.0,0.0,3.3111,3.3111,3.3111,3.3111,3.3111,3.3111,3.3111,3.3111,3.3111,3.3111,3.3194,3.347,3.4299,3.4806,3.5082,3.5956,3.6405,3.6405,3.6405,3.6405,3.6405,3.6405,3.6405,3.6405,3.6405,3.6405,3.638,3.6056,3.578,3.5454,3.4625,3.4299,3.4374,3.4881,3.5082,3.5207,3.6128,3.6756,3.7474,3.8604,3.9798,4.0958,4.2111,4.286,4.329,4.329,4.329,4.329,4.329,4.329,4.329,4.329,4.329,4.329,4.329,4.329,4.329,4.329,4.329,4.329,4.329,4.306,4.2851,4.2851,4.2321,4.1901,4.1901,4.1632,4.1422,4.1422,4.1422,4.1422,4.1422,4.1422,4.1422,4.1422,4.1422,4.1422,4.1422,4.226,4.3196,4.406,4.5399,4.6301,4.6786,4.6819,4.6819,4.6819,4.7192,4.7733,0.0,0.0,0.0,0.0,0.0,3.3111,0.0,0.0,0.0,3.3111,3.3111,0.0,0.0,0.0,0.0,0.0,0.0,0.0,0.0,0.0,0.0,3.3111,3.3111,3.3111,3.3111,3.3111,3.3111,3.3111,3.3111,3.3111,3.3111,3.3111,3.3345,3.3872,3.4424,3.4931,3.5483,3.6081,3.6405,3.6405,3.6405,3.6405,3.6405,3.6405,3.6405,3.6405,3.6405,3.6405,3.6405,3.6405,3.6405,3.6304,3.5278,3.4831,3.4881,3.5332,3.5508,3.5583,3.6182,3.6405,3.6593,3.7723,3.905,4.0404,4.1337,4.2426,4.329,4.329,4.329,4.329,4.329,4.329,4.329,4.329,4.329,4.329,4.329,4.329,4.329,4.329,4.329,4.329,4.329,4.329,4.329,4.329,4.288,4.259,4.259,4.2073,4.1773,4.1773,4.1773,4.1773,4.1773,4.1773,4.1773,4.1773,4.1773,4.1773,4.1773,4.213,4.3102,4.4746,4.5634,4.6457,4.7225,4.7834,4.8041,4.7906,4.8041,4.8443,0.0,0.0,0.0,0.0,3.3445,3.3111,3.3111,0.0,3.3111,3.3111,0.0,0.0,0.0,0.0,0.0,0.0,0.0,0.0,3.239,3.2742,3.3111,3.3111,3.3111,3.3111,3.3111,3.3111,3.3111,3.3111,3.3111,3.3111,3.3111,3.3111,3.3345,3.3872,3.4424,3.4931,3.5483,3.6081,3.6405,3.6405,3.6405,3.6405,3.6405,3.6405,3.6405,3.6405,3.6405,3.6405,3.6405,3.6405,3.6405,3.6355,3.568,3.5408,3.5408,3.5483,3.5508,3.5583,3.6182,3.6405,3.6593,3.7723,3.9596,4.142,4.1545,4.2426,4.329,4.329,4.329,4.329,4.329,4.329,4.329,4.329,4.329,4.329,4.329,4.329,4.329,4.329,4.329,4.329,4.329,4.329,4.329,4.329,4.323,4.32,4.32,4.311,4.308,4.308,4.308,4.308,4.308,4.308,4.308,4.308,4.308,4.308,4.308,4.4756,4.6159,4.7177,4.8119,4.8655,4.8748,4.8849,4.8545,4.7906,4.8578,4.8917,0.0,0.0,0.0,0.0,0.0,0.0,3.4022,0.0,3.3545,0.0,0.0,0.0,0.0,0.0,0.0,0.0,3.2918,0.0,0.0,0.0,3.3111,0.0,0.0,0.0,3.3111,3.3111,3.3111,3.3111,3.3111,3.3111,3.3111,3.3111,3.347,3.4349,3.46,3.5152,3.6006,3.6279,3.6405,3.6405,3.6405,3.6405,3.6405,3.6405,3.6405,3.6405,3.6405,3.6405,3.6405,3.6405,3.6405,3.638,3.6107,3.6006,3.6006,3.6006,3.6006,3.6056,3.6329,3.6405,3.6593,3.7723,3.9244,4.0746,4.142,4.1947,4.2467,4.313,4.329,4.329,4.329,4.329,4.329,4.329,4.329,4.329,4.329,4.329,4.329,4.329,4.329,4.329,4.329,4.329,4.329,4.329,4.329,4.329,4.329,4.329,4.329,4.329,4.329,4.329,4.329,4.329,4.329,4.329,4.329,4.3536,4.4159,4.4968,4.6099,4.7572,4.7966,4.8482,4.9018,4.9018,4.8849,4.8545,4.8849,4.9018,3.5177,0.0,0.0,0.0,0.0,0.0,0.0,0.0,0.0,0.0,0.0,0.0,0.0,0.0,0.0,0.0,0.0,3.3018,0.0,0.0,0.0,0.0,0.0,0.0,0.0,3.3111,3.3111,3.3111,3.3111,3.3111,3.3111,3.3111,3.3571,3.47,3.468,3.5253,3.6405,3.6405,3.6405,3.6405,3.6405,3.6405,3.6405,3.6405,3.6405,3.6405,3.6405,3.6405,3.6405,3.6405,3.6405,3.6405,3.6405,3.6405,3.6405,3.6405,3.6405,3.6405,3.6405,3.6593,3.701,3.7861,3.9139,4.0532,4.1337,4.1794,4.2234,4.3061,4.329,4.329,4.329,4.329,4.329,4.329,4.329,4.329,4.329,4.329,4.329,4.329,4.329,4.329,4.329,4.329,4.329,4.329,4.329,4.329,4.329,4.329,4.329,4.329,4.329,4.329,4.329,4.329,4.329,4.329,4.329,4.3615,4.4358,4.4662,4.5447,4.6831,4.734,4.7933,4.8608,4.8861,4.9018,4.9018,4.9018,4.9018,0.0,0.0,0.0,3.5483,0.0,0.0,0.0,0.0,3.4655,0.0,0.0,0.0,0.0,0.0,0.0,0.0,0.0,0.0,0.0,0.0,0.0,0.0,0.0,0.0,0.0,3.3111,3.3111,3.3111,3.3111,3.3111,3.3111,3.3111,3.3571,3.47,3.468,3.5253,3.6405,3.6405,3.6405,3.6405,3.6405,3.6405,3.6405,3.6405,3.6405,3.6405,3.6405,3.6405,3.6405,3.6405,3.6405,3.6405,3.6405,3.6405,3.6405,3.6405,3.6405,3.6405,3.6405,3.7103,3.8062,3.8107,3.9683,4.1545,4.1587,4.2386,4.325,4.329,4.329,4.329,4.329,4.329,4.329,4.329,4.329,4.329,4.329,4.329,4.329,4.329,4.329,4.329,4.329,4.329,4.329,4.329,4.329,4.329,4.329,4.329,4.329,4.329,4.329,4.329,4.329,4.329,4.329,4.329,4.329,4.3329,4.3329,4.4282,4.4849,4.4887,4.6694,4.7605,4.7671,4.8545,4.9018,4.9018,4.9018,4.9018,0.0,0.0,3.6081,3.6081,0.0,0.0,0.0,0.0,0.0,0.0,0.0,0.0,0.0,0.0,0.0,0.0,0.0,0.0,0.0,0.0,0.0,0.0,0.0,0.0,0.0,0.0,0.0,3.3111,3.3111,3.3111,3.3111,3.3111,3.3571,3.47,3.468,3.5253,3.6405,3.6405,3.6405,3.6405,3.6405,3.6405,3.6405,3.6405,3.6405,3.6405,3.6405,3.6405,3.6405,3.6405,3.6405,3.6405,3.6405,3.6405,3.6405,3.6405,3.6405,3.6405,3.6405,3.715,3.8107,3.8107,3.9156,4.0618,4.1378,4.1864,4.2345,4.3061,4.329,4.329,4.329,4.329,4.329,4.329,4.329,4.329,4.329,4.329,4.329,4.329,4.329,4.329,4.329,4.329,4.329,4.329,4.329,4.329,4.329,4.329,4.329,4.329,4.329,4.329,4.329,4.329,4.329,4.329,4.329,4.3576,4.4243,4.4624,4.5079,4.5706,4.6349,4.7002,4.7572,4.7901,4.8385,4.9018,4.9018,4.9018,3.6405,3.6405,0.0,3.6405,3.6405,0.0,3.6405,0.0,3.583,0.0,0.0,0.0,0.0,0.0,0.0,0.0,0.0,0.0,0.0,3.3111,0.0,0.0,0.0,0.0,0.0,3.3111,3.3111,3.3111,3.3111,3.3111,3.3111,3.3269,3.3796,3.4655,3.4881,3.5454,3.6405,3.6405,3.6405,3.6405,3.6405,3.6405,3.6405,3.6405,3.6405,3.6405,3.6405,3.6405,3.6405,3.6405,3.6405,3.6405,3.6405,3.6405,3.6405,3.6405,3.6405,3.6405,3.6405,3.715,3.8107,3.8107,3.9156,4.0661,4.1378,4.1906,4.2327,4.2832,4.315,4.323,4.306,4.311,4.329,4.329,4.329,4.329,4.329,4.329,4.329,4.329,4.329,4.329,4.329,4.329,4.329,4.329,4.329,4.329,4.329,4.329,4.329,4.329,4.329,4.329,4.329,4.329,4.329,4.329,4.329,4.3576,4.4274,4.4243,4.4463,4.482,4.5726,4.636,4.6746,4.7671,4.8385,4.9018,4.9018,4.9018]}]]